<?xml version="1.0" encoding="UTF-8" standalone="no" ?>
<gpx xmlns="http://www.topografix.com/GPX/1/1" xmlns:xsi="http://www.w3.org/2001/XMLSchema-instance" xsi:schemaLocation="http://www.topografix.com/GPX/1/1 http://www.topografix.com/GPX/1/1/gpx.xsd" version="1.1" creator="VisuGPX - https://www.visugpx.com">
  <metadata>
    <name>Boucle autour de Santeuil (Val d'Oise) par la Chaussée de César</name>
    <desc><![CDATA[Randonnée de 19 km en boucle à partir de la gare de santeuil]]></desc>
  </metadata>
  <trk>
    <name><![CDATA[Boucle autour de Santeuil (Val d'Oise) par la Chaussée de César _R]]></name>
    <trkseg>
      <trkpt lat="49.12438" lon="1.94915">
        <ele>88.96</ele>
        <time>2019-03-10T08:09:30Z</time>
      </trkpt>
      <trkpt lat="49.12437" lon="1.94916">
        <ele>89.24</ele>
        <time>2019-03-10T08:09:54Z</time>
      </trkpt>
      <trkpt lat="49.12437" lon="1.94916">
        <ele>87.49</ele>
        <time>2019-03-10T08:10:16Z</time>
      </trkpt>
      <trkpt lat="49.12429" lon="1.94905">
        <ele>87.87</ele>
        <time>2019-03-10T08:10:33Z</time>
      </trkpt>
      <trkpt lat="49.12422" lon="1.94895">
        <ele>91.83</ele>
        <time>2019-03-10T08:10:43Z</time>
      </trkpt>
      <trkpt lat="49.12421" lon="1.94894">
        <ele>92.83</ele>
        <time>2019-03-10T08:10:44Z</time>
      </trkpt>
      <trkpt lat="49.12416" lon="1.94887">
        <ele>89.17</ele>
        <time>2019-03-10T08:10:50Z</time>
      </trkpt>
      <trkpt lat="49.12415" lon="1.94886">
        <ele>89.7</ele>
        <time>2019-03-10T08:10:51Z</time>
      </trkpt>
      <trkpt lat="49.12412" lon="1.94881">
        <ele>88.4</ele>
        <time>2019-03-10T08:10:55Z</time>
      </trkpt>
      <trkpt lat="49.12403" lon="1.94871">
        <ele>89.34</ele>
        <time>2019-03-10T08:11:04Z</time>
      </trkpt>
      <trkpt lat="49.124" lon="1.94866">
        <ele>88.98</ele>
        <time>2019-03-10T08:11:08Z</time>
      </trkpt>
      <trkpt lat="49.12387" lon="1.94855">
        <ele>89.88</ele>
        <time>2019-03-10T08:11:22Z</time>
      </trkpt>
      <trkpt lat="49.12383" lon="1.94853">
        <ele>90.73</ele>
        <time>2019-03-10T08:11:25Z</time>
      </trkpt>
      <trkpt lat="49.12379" lon="1.9485">
        <ele>91.92</ele>
        <time>2019-03-10T08:11:29Z</time>
      </trkpt>
      <trkpt lat="49.12378" lon="1.94849">
        <ele>91.73</ele>
        <time>2019-03-10T08:11:30Z</time>
      </trkpt>
      <trkpt lat="49.12363" lon="1.94842">
        <ele>90.65</ele>
        <time>2019-03-10T08:11:45Z</time>
      </trkpt>
      <trkpt lat="49.12362" lon="1.94842">
        <ele>90.44</ele>
        <time>2019-03-10T08:11:46Z</time>
      </trkpt>
      <trkpt lat="49.12349" lon="1.94841">
        <ele>92.6</ele>
        <time>2019-03-10T08:11:57Z</time>
      </trkpt>
      <trkpt lat="49.12347" lon="1.94842">
        <ele>91.76</ele>
        <time>2019-03-10T08:12:00Z</time>
      </trkpt>
      <trkpt lat="49.12334" lon="1.94849">
        <ele>91.65</ele>
        <time>2019-03-10T08:12:13Z</time>
      </trkpt>
      <trkpt lat="49.12324" lon="1.94855">
        <ele>93.08</ele>
        <time>2019-03-10T08:12:23Z</time>
      </trkpt>
      <trkpt lat="49.12312" lon="1.94865">
        <ele>94.49</ele>
        <time>2019-03-10T08:12:36Z</time>
      </trkpt>
      <trkpt lat="49.12298" lon="1.94874">
        <ele>94.36</ele>
        <time>2019-03-10T08:12:51Z</time>
      </trkpt>
      <trkpt lat="49.12288" lon="1.94885">
        <ele>94.37</ele>
        <time>2019-03-10T08:13:05Z</time>
      </trkpt>
      <trkpt lat="49.12274" lon="1.94897">
        <ele>92.93</ele>
        <time>2019-03-10T08:13:19Z</time>
      </trkpt>
      <trkpt lat="49.12267" lon="1.94902">
        <ele>93.86</ele>
        <time>2019-03-10T08:13:25Z</time>
      </trkpt>
      <trkpt lat="49.12255" lon="1.9491">
        <ele>93.46</ele>
        <time>2019-03-10T08:13:37Z</time>
      </trkpt>
      <trkpt lat="49.1225" lon="1.94915">
        <ele>92.56</ele>
        <time>2019-03-10T08:13:42Z</time>
      </trkpt>
      <trkpt lat="49.12241" lon="1.94915">
        <ele>92.67</ele>
        <time>2019-03-10T08:13:49Z</time>
      </trkpt>
      <trkpt lat="49.12224" lon="1.94917">
        <ele>89.37</ele>
        <time>2019-03-10T08:14:04Z</time>
      </trkpt>
      <trkpt lat="49.12204" lon="1.94908">
        <ele>87.14</ele>
        <time>2019-03-10T08:14:20Z</time>
      </trkpt>
      <trkpt lat="49.12203" lon="1.94906">
        <ele>86.48</ele>
        <time>2019-03-10T08:14:22Z</time>
      </trkpt>
      <trkpt lat="49.12198" lon="1.94902">
        <ele>88.42</ele>
        <time>2019-03-10T08:14:26Z</time>
      </trkpt>
      <trkpt lat="49.12195" lon="1.94898">
        <ele>86.8</ele>
        <time>2019-03-10T08:14:29Z</time>
      </trkpt>
      <trkpt lat="49.12188" lon="1.94885">
        <ele>85.32</ele>
        <time>2019-03-10T08:14:39Z</time>
      </trkpt>
      <trkpt lat="49.12187" lon="1.94884">
        <ele>84.9</ele>
        <time>2019-03-10T08:14:40Z</time>
      </trkpt>
      <trkpt lat="49.12182" lon="1.94874">
        <ele>86.55</ele>
        <time>2019-03-10T08:14:48Z</time>
      </trkpt>
      <trkpt lat="49.12178" lon="1.94869">
        <ele>82.5</ele>
        <time>2019-03-10T08:14:53Z</time>
      </trkpt>
      <trkpt lat="49.12176" lon="1.94865">
        <ele>84.16</ele>
        <time>2019-03-10T08:14:57Z</time>
      </trkpt>
      <trkpt lat="49.12166" lon="1.94849">
        <ele>82.52</ele>
        <time>2019-03-10T08:15:11Z</time>
      </trkpt>
      <trkpt lat="49.12156" lon="1.94829">
        <ele>80.51</ele>
        <time>2019-03-10T08:15:26Z</time>
      </trkpt>
      <trkpt lat="49.12146" lon="1.94812">
        <ele>79.97</ele>
        <time>2019-03-10T08:15:38Z</time>
      </trkpt>
      <trkpt lat="49.1214" lon="1.94803">
        <ele>80.33</ele>
        <time>2019-03-10T08:15:45Z</time>
      </trkpt>
      <trkpt lat="49.12139" lon="1.94801">
        <ele>79.7</ele>
        <time>2019-03-10T08:15:47Z</time>
      </trkpt>
      <trkpt lat="49.12129" lon="1.94781">
        <ele>78.44</ele>
        <time>2019-03-10T08:16:01Z</time>
      </trkpt>
      <trkpt lat="49.12122" lon="1.94767">
        <ele>78.65</ele>
        <time>2019-03-10T08:16:11Z</time>
      </trkpt>
      <trkpt lat="49.12107" lon="1.94753">
        <ele>78.23</ele>
        <time>2019-03-10T08:16:27Z</time>
      </trkpt>
      <trkpt lat="49.12104" lon="1.94747">
        <ele>77.9</ele>
        <time>2019-03-10T08:16:32Z</time>
      </trkpt>
      <trkpt lat="49.1209" lon="1.94726">
        <ele>79.72</ele>
        <time>2019-03-10T08:16:48Z</time>
      </trkpt>
      <trkpt lat="49.12078" lon="1.94707">
        <ele>80.36</ele>
        <time>2019-03-10T08:17:02Z</time>
      </trkpt>
      <trkpt lat="49.12076" lon="1.94705">
        <ele>80.37</ele>
        <time>2019-03-10T08:17:04Z</time>
      </trkpt>
      <trkpt lat="49.1206" lon="1.94687">
        <ele>80.52</ele>
        <time>2019-03-10T08:17:19Z</time>
      </trkpt>
      <trkpt lat="49.12054" lon="1.94674">
        <ele>80.84</ele>
        <time>2019-03-10T08:17:30Z</time>
      </trkpt>
      <trkpt lat="49.12051" lon="1.94663">
        <ele>81.41</ele>
        <time>2019-03-10T08:17:37Z</time>
      </trkpt>
      <trkpt lat="49.12046" lon="1.94647">
        <ele>81.68</ele>
        <time>2019-03-10T08:17:45Z</time>
      </trkpt>
      <trkpt lat="49.12045" lon="1.94643">
        <ele>81.57</ele>
        <time>2019-03-10T08:17:47Z</time>
      </trkpt>
      <trkpt lat="49.12038" lon="1.94621">
        <ele>83.67</ele>
        <time>2019-03-10T08:17:59Z</time>
      </trkpt>
      <trkpt lat="49.12035" lon="1.94611">
        <ele>83.03</ele>
        <time>2019-03-10T08:18:05Z</time>
      </trkpt>
      <trkpt lat="49.12034" lon="1.94607">
        <ele>82.99</ele>
        <time>2019-03-10T08:18:08Z</time>
      </trkpt>
      <trkpt lat="49.12033" lon="1.94601">
        <ele>83.61</ele>
        <time>2019-03-10T08:18:12Z</time>
      </trkpt>
      <trkpt lat="49.12031" lon="1.94591">
        <ele>82.61</ele>
        <time>2019-03-10T08:18:20Z</time>
      </trkpt>
      <trkpt lat="49.12027" lon="1.9457">
        <ele>84.57</ele>
        <time>2019-03-10T08:18:34Z</time>
      </trkpt>
      <trkpt lat="49.12025" lon="1.94569">
        <ele>85.43</ele>
        <time>2019-03-10T08:18:49Z</time>
      </trkpt>
      <trkpt lat="49.12024" lon="1.94569">
        <ele>85.96</ele>
        <time>2019-03-10T08:19:06Z</time>
      </trkpt>
      <trkpt lat="49.12024" lon="1.94568">
        <ele>84.43</ele>
        <time>2019-03-10T08:19:33Z</time>
      </trkpt>
      <trkpt lat="49.12022" lon="1.94568">
        <ele>84.04</ele>
        <time>2019-03-10T08:20:00Z</time>
      </trkpt>
      <trkpt lat="49.12023" lon="1.94567">
        <ele>81.69</ele>
        <time>2019-03-10T08:20:12Z</time>
      </trkpt>
      <trkpt lat="49.12025" lon="1.94564">
        <ele>82.86</ele>
        <time>2019-03-10T08:20:25Z</time>
      </trkpt>
      <trkpt lat="49.12025" lon="1.94564">
        <ele>82.98</ele>
        <time>2019-03-10T08:20:26Z</time>
      </trkpt>
      <trkpt lat="49.12027" lon="1.9457">
        <ele>85.52</ele>
        <time>2019-03-10T08:20:30Z</time>
      </trkpt>
      <trkpt lat="49.12027" lon="1.94571">
        <ele>81.59</ele>
        <time>2019-03-10T08:20:32Z</time>
      </trkpt>
      <trkpt lat="49.12027" lon="1.94572">
        <ele>83.64</ele>
        <time>2019-03-10T08:20:36Z</time>
      </trkpt>
      <trkpt lat="49.12028" lon="1.94572">
        <ele>82.92</ele>
        <time>2019-03-10T08:20:38Z</time>
      </trkpt>
      <trkpt lat="49.12031" lon="1.9457">
        <ele>81.76</ele>
        <time>2019-03-10T08:20:43Z</time>
      </trkpt>
      <trkpt lat="49.12031" lon="1.94568">
        <ele>82.81</ele>
        <time>2019-03-10T08:20:44Z</time>
      </trkpt>
      <trkpt lat="49.12031" lon="1.94558">
        <ele>82.52</ele>
        <time>2019-03-10T08:20:51Z</time>
      </trkpt>
      <trkpt lat="49.1203" lon="1.94555">
        <ele>81.71</ele>
        <time>2019-03-10T08:20:53Z</time>
      </trkpt>
      <trkpt lat="49.12028" lon="1.94549">
        <ele>83.82</ele>
        <time>2019-03-10T08:20:57Z</time>
      </trkpt>
      <trkpt lat="49.12028" lon="1.94542">
        <ele>84.44</ele>
        <time>2019-03-10T08:21:02Z</time>
      </trkpt>
      <trkpt lat="49.12027" lon="1.94528">
        <ele>84.89</ele>
        <time>2019-03-10T08:21:12Z</time>
      </trkpt>
      <trkpt lat="49.12026" lon="1.94509">
        <ele>85.16</ele>
        <time>2019-03-10T08:21:26Z</time>
      </trkpt>
      <trkpt lat="49.12026" lon="1.94485">
        <ele>85.76</ele>
        <time>2019-03-10T08:21:43Z</time>
      </trkpt>
      <trkpt lat="49.12026" lon="1.94483">
        <ele>86.05</ele>
        <time>2019-03-10T08:21:44Z</time>
      </trkpt>
      <trkpt lat="49.12026" lon="1.9448">
        <ele>87.02</ele>
        <time>2019-03-10T08:21:46Z</time>
      </trkpt>
      <trkpt lat="49.12025" lon="1.94456">
        <ele>85.79</ele>
        <time>2019-03-10T08:22:00Z</time>
      </trkpt>
      <trkpt lat="49.12026" lon="1.94442">
        <ele>89.44</ele>
        <time>2019-03-10T08:22:09Z</time>
      </trkpt>
      <trkpt lat="49.12027" lon="1.94433">
        <ele>85.93</ele>
        <time>2019-03-10T08:22:14Z</time>
      </trkpt>
      <trkpt lat="49.12028" lon="1.94432">
        <ele>85.63</ele>
        <time>2019-03-10T08:22:15Z</time>
      </trkpt>
      <trkpt lat="49.12029" lon="1.94429">
        <ele>87.49</ele>
        <time>2019-03-10T08:22:17Z</time>
      </trkpt>
      <trkpt lat="49.1203" lon="1.94426">
        <ele>86.42</ele>
        <time>2019-03-10T08:22:19Z</time>
      </trkpt>
      <trkpt lat="49.12031" lon="1.94424">
        <ele>85.25</ele>
        <time>2019-03-10T08:22:21Z</time>
      </trkpt>
      <trkpt lat="49.12034" lon="1.94415">
        <ele>85.43</ele>
        <time>2019-03-10T08:22:27Z</time>
      </trkpt>
      <trkpt lat="49.12034" lon="1.9441">
        <ele>85.44</ele>
        <time>2019-03-10T08:22:30Z</time>
      </trkpt>
      <trkpt lat="49.12043" lon="1.94388">
        <ele>82.54</ele>
        <time>2019-03-10T08:22:45Z</time>
      </trkpt>
      <trkpt lat="49.12044" lon="1.94384">
        <ele>84.35</ele>
        <time>2019-03-10T08:22:48Z</time>
      </trkpt>
      <trkpt lat="49.12047" lon="1.9438">
        <ele>82.74</ele>
        <time>2019-03-10T08:22:51Z</time>
      </trkpt>
      <trkpt lat="49.12059" lon="1.94351">
        <ele>82.94</ele>
        <time>2019-03-10T08:23:11Z</time>
      </trkpt>
      <trkpt lat="49.12062" lon="1.94347">
        <ele>82.88</ele>
        <time>2019-03-10T08:23:14Z</time>
      </trkpt>
      <trkpt lat="49.12076" lon="1.9432">
        <ele>80.83</ele>
        <time>2019-03-10T08:23:33Z</time>
      </trkpt>
      <trkpt lat="49.12078" lon="1.94316">
        <ele>81.01</ele>
        <time>2019-03-10T08:23:36Z</time>
      </trkpt>
      <trkpt lat="49.12082" lon="1.9431">
        <ele>80.77</ele>
        <time>2019-03-10T08:23:41Z</time>
      </trkpt>
      <trkpt lat="49.12094" lon="1.94291">
        <ele>80.38</ele>
        <time>2019-03-10T08:23:56Z</time>
      </trkpt>
      <trkpt lat="49.12107" lon="1.94264">
        <ele>80.77</ele>
        <time>2019-03-10T08:24:13Z</time>
      </trkpt>
      <trkpt lat="49.12113" lon="1.94254">
        <ele>80.16</ele>
        <time>2019-03-10T08:24:20Z</time>
      </trkpt>
      <trkpt lat="49.12117" lon="1.94243">
        <ele>80.24</ele>
        <time>2019-03-10T08:24:31Z</time>
      </trkpt>
      <trkpt lat="49.12121" lon="1.94237">
        <ele>80.11</ele>
        <time>2019-03-10T08:24:36Z</time>
      </trkpt>
      <trkpt lat="49.12122" lon="1.94233">
        <ele>79.53</ele>
        <time>2019-03-10T08:24:39Z</time>
      </trkpt>
      <trkpt lat="49.12133" lon="1.94205">
        <ele>79.65</ele>
        <time>2019-03-10T08:24:57Z</time>
      </trkpt>
      <trkpt lat="49.12133" lon="1.94204">
        <ele>79.63</ele>
        <time>2019-03-10T08:24:58Z</time>
      </trkpt>
      <trkpt lat="49.12136" lon="1.94198">
        <ele>79.7</ele>
        <time>2019-03-10T08:25:04Z</time>
      </trkpt>
      <trkpt lat="49.12143" lon="1.94172">
        <ele>79.42</ele>
        <time>2019-03-10T08:25:20Z</time>
      </trkpt>
      <trkpt lat="49.12152" lon="1.94151">
        <ele>78.78</ele>
        <time>2019-03-10T08:25:34Z</time>
      </trkpt>
      <trkpt lat="49.12152" lon="1.9415">
        <ele>78.52</ele>
        <time>2019-03-10T08:25:35Z</time>
      </trkpt>
      <trkpt lat="49.12161" lon="1.94125">
        <ele>79.03</ele>
        <time>2019-03-10T08:25:52Z</time>
      </trkpt>
      <trkpt lat="49.12166" lon="1.9411">
        <ele>77.83</ele>
        <time>2019-03-10T08:26:02Z</time>
      </trkpt>
      <trkpt lat="49.12167" lon="1.94101">
        <ele>77.34</ele>
        <time>2019-03-10T08:26:08Z</time>
      </trkpt>
      <trkpt lat="49.1217" lon="1.94095">
        <ele>77.57</ele>
        <time>2019-03-10T08:26:13Z</time>
      </trkpt>
      <trkpt lat="49.1217" lon="1.94089">
        <ele>77.19</ele>
        <time>2019-03-10T08:26:16Z</time>
      </trkpt>
      <trkpt lat="49.12171" lon="1.94086">
        <ele>77.66</ele>
        <time>2019-03-10T08:26:18Z</time>
      </trkpt>
      <trkpt lat="49.12174" lon="1.94082">
        <ele>77.72</ele>
        <time>2019-03-10T08:26:21Z</time>
      </trkpt>
      <trkpt lat="49.12179" lon="1.94065">
        <ele>77.45</ele>
        <time>2019-03-10T08:26:31Z</time>
      </trkpt>
      <trkpt lat="49.12192" lon="1.94051">
        <ele>76.69</ele>
        <time>2019-03-10T08:26:45Z</time>
      </trkpt>
      <trkpt lat="49.12219" lon="1.94038">
        <ele>74.8</ele>
        <time>2019-03-10T08:27:06Z</time>
      </trkpt>
      <trkpt lat="49.12227" lon="1.94031">
        <ele>74.19</ele>
        <time>2019-03-10T08:27:24Z</time>
      </trkpt>
      <trkpt lat="49.1223" lon="1.94042">
        <ele>73.41</ele>
        <time>2019-03-10T08:27:45Z</time>
      </trkpt>
      <trkpt lat="49.12235" lon="1.94041">
        <ele>73.42</ele>
        <time>2019-03-10T08:28:09Z</time>
      </trkpt>
      <trkpt lat="49.12247" lon="1.9404">
        <ele>71.29</ele>
        <time>2019-03-10T08:28:32Z</time>
      </trkpt>
      <trkpt lat="49.12264" lon="1.94044">
        <ele>71.96</ele>
        <time>2019-03-10T08:28:51Z</time>
      </trkpt>
      <trkpt lat="49.1228" lon="1.9404">
        <ele>70.35</ele>
        <time>2019-03-10T08:29:02Z</time>
      </trkpt>
      <trkpt lat="49.12283" lon="1.94038">
        <ele>70.23</ele>
        <time>2019-03-10T08:29:05Z</time>
      </trkpt>
      <trkpt lat="49.12298" lon="1.94033">
        <ele>70.81</ele>
        <time>2019-03-10T08:29:19Z</time>
      </trkpt>
      <trkpt lat="49.123" lon="1.94032">
        <ele>71.31</ele>
        <time>2019-03-10T08:29:20Z</time>
      </trkpt>
      <trkpt lat="49.12313" lon="1.94019">
        <ele>70.88</ele>
        <time>2019-03-10T08:29:33Z</time>
      </trkpt>
      <trkpt lat="49.12315" lon="1.94017">
        <ele>70.79</ele>
        <time>2019-03-10T08:29:35Z</time>
      </trkpt>
      <trkpt lat="49.12325" lon="1.94002">
        <ele>70.95</ele>
        <time>2019-03-10T08:29:47Z</time>
      </trkpt>
      <trkpt lat="49.1233" lon="1.93991">
        <ele>71.12</ele>
        <time>2019-03-10T08:29:53Z</time>
      </trkpt>
      <trkpt lat="49.12333" lon="1.93968">
        <ele>69.64</ele>
        <time>2019-03-10T08:30:05Z</time>
      </trkpt>
      <trkpt lat="49.12335" lon="1.93964">
        <ele>69.42</ele>
        <time>2019-03-10T08:30:07Z</time>
      </trkpt>
      <trkpt lat="49.12336" lon="1.93954">
        <ele>68.81</ele>
        <time>2019-03-10T08:30:12Z</time>
      </trkpt>
      <trkpt lat="49.12339" lon="1.93941">
        <ele>68.1</ele>
        <time>2019-03-10T08:30:19Z</time>
      </trkpt>
      <trkpt lat="49.12339" lon="1.93925">
        <ele>68.06</ele>
        <time>2019-03-10T08:30:27Z</time>
      </trkpt>
      <trkpt lat="49.12342" lon="1.93887">
        <ele>66.72</ele>
        <time>2019-03-10T08:30:47Z</time>
      </trkpt>
      <trkpt lat="49.12351" lon="1.93861">
        <ele>65.47</ele>
        <time>2019-03-10T08:31:01Z</time>
      </trkpt>
      <trkpt lat="49.12358" lon="1.93848">
        <ele>64.41</ele>
        <time>2019-03-10T08:31:07Z</time>
      </trkpt>
      <trkpt lat="49.12368" lon="1.93827">
        <ele>67.83</ele>
        <time>2019-03-10T08:31:20Z</time>
      </trkpt>
      <trkpt lat="49.12369" lon="1.93826">
        <ele>68.04</ele>
        <time>2019-03-10T08:31:21Z</time>
      </trkpt>
      <trkpt lat="49.12376" lon="1.93822">
        <ele>66.09</ele>
        <time>2019-03-10T08:31:24Z</time>
      </trkpt>
      <trkpt lat="49.12381" lon="1.93817">
        <ele>64.01</ele>
        <time>2019-03-10T08:31:28Z</time>
      </trkpt>
      <trkpt lat="49.12394" lon="1.93806">
        <ele>65.06</ele>
        <time>2019-03-10T08:31:42Z</time>
      </trkpt>
      <trkpt lat="49.12397" lon="1.93805">
        <ele>64.53</ele>
        <time>2019-03-10T08:31:46Z</time>
      </trkpt>
      <trkpt lat="49.12421" lon="1.93803">
        <ele>64.48</ele>
        <time>2019-03-10T08:32:06Z</time>
      </trkpt>
      <trkpt lat="49.12438" lon="1.93791">
        <ele>63.46</ele>
        <time>2019-03-10T08:32:18Z</time>
      </trkpt>
      <trkpt lat="49.12455" lon="1.93772">
        <ele>63.67</ele>
        <time>2019-03-10T08:32:31Z</time>
      </trkpt>
      <trkpt lat="49.12462" lon="1.9376">
        <ele>65.24</ele>
        <time>2019-03-10T08:32:37Z</time>
      </trkpt>
      <trkpt lat="49.12464" lon="1.93757">
        <ele>65.39</ele>
        <time>2019-03-10T08:32:39Z</time>
      </trkpt>
      <trkpt lat="49.1247" lon="1.93748">
        <ele>65.3</ele>
        <time>2019-03-10T08:32:46Z</time>
      </trkpt>
      <trkpt lat="49.12486" lon="1.93748">
        <ele>63.4</ele>
        <time>2019-03-10T08:32:59Z</time>
      </trkpt>
      <trkpt lat="49.1249" lon="1.93751">
        <ele>63.41</ele>
        <time>2019-03-10T08:33:01Z</time>
      </trkpt>
      <trkpt lat="49.12502" lon="1.93758">
        <ele>63.69</ele>
        <time>2019-03-10T08:33:14Z</time>
      </trkpt>
      <trkpt lat="49.12508" lon="1.93769">
        <ele>63.08</ele>
        <time>2019-03-10T08:33:31Z</time>
      </trkpt>
      <trkpt lat="49.1251" lon="1.9377">
        <ele>62.96</ele>
        <time>2019-03-10T08:33:33Z</time>
      </trkpt>
      <trkpt lat="49.12513" lon="1.93776">
        <ele>62.32</ele>
        <time>2019-03-10T08:33:47Z</time>
      </trkpt>
      <trkpt lat="49.1251" lon="1.93773">
        <ele>63.13</ele>
        <time>2019-03-10T08:33:52Z</time>
      </trkpt>
      <trkpt lat="49.12506" lon="1.93768">
        <ele>62.11</ele>
        <time>2019-03-10T08:33:59Z</time>
      </trkpt>
      <trkpt lat="49.12508" lon="1.93768">
        <ele>64.17</ele>
        <time>2019-03-10T08:34:21Z</time>
      </trkpt>
      <trkpt lat="49.12508" lon="1.93765">
        <ele>63.07</ele>
        <time>2019-03-10T08:34:41Z</time>
      </trkpt>
      <trkpt lat="49.12509" lon="1.93772">
        <ele>62.37</ele>
        <time>2019-03-10T08:35:00Z</time>
      </trkpt>
      <trkpt lat="49.12518" lon="1.93786">
        <ele>62.04</ele>
        <time>2019-03-10T08:35:15Z</time>
      </trkpt>
      <trkpt lat="49.12519" lon="1.93786">
        <ele>62.21</ele>
        <time>2019-03-10T08:35:16Z</time>
      </trkpt>
      <trkpt lat="49.12523" lon="1.93789">
        <ele>61.46</ele>
        <time>2019-03-10T08:35:21Z</time>
      </trkpt>
      <trkpt lat="49.12527" lon="1.93797">
        <ele>61.97</ele>
        <time>2019-03-10T08:35:27Z</time>
      </trkpt>
      <trkpt lat="49.12537" lon="1.93809">
        <ele>62.13</ele>
        <time>2019-03-10T08:35:42Z</time>
      </trkpt>
      <trkpt lat="49.12542" lon="1.93814">
        <ele>65.64</ele>
        <time>2019-03-10T08:35:47Z</time>
      </trkpt>
      <trkpt lat="49.12544" lon="1.93816">
        <ele>61.74</ele>
        <time>2019-03-10T08:35:49Z</time>
      </trkpt>
      <trkpt lat="49.12546" lon="1.93818">
        <ele>62.46</ele>
        <time>2019-03-10T08:35:53Z</time>
      </trkpt>
      <trkpt lat="49.12553" lon="1.93822">
        <ele>61.4</ele>
        <time>2019-03-10T08:35:59Z</time>
      </trkpt>
      <trkpt lat="49.12563" lon="1.93829">
        <ele>66.22</ele>
        <time>2019-03-10T08:36:09Z</time>
      </trkpt>
      <trkpt lat="49.12564" lon="1.9383">
        <ele>63.21</ele>
        <time>2019-03-10T08:36:10Z</time>
      </trkpt>
      <trkpt lat="49.12568" lon="1.93832">
        <ele>61.8</ele>
        <time>2019-03-10T08:36:13Z</time>
      </trkpt>
      <trkpt lat="49.12573" lon="1.93838">
        <ele>61.15</ele>
        <time>2019-03-10T08:36:19Z</time>
      </trkpt>
      <trkpt lat="49.12591" lon="1.9385">
        <ele>61.42</ele>
        <time>2019-03-10T08:36:36Z</time>
      </trkpt>
      <trkpt lat="49.12593" lon="1.93851">
        <ele>60.62</ele>
        <time>2019-03-10T08:36:38Z</time>
      </trkpt>
      <trkpt lat="49.12595" lon="1.93851">
        <ele>60.01</ele>
        <time>2019-03-10T08:36:40Z</time>
      </trkpt>
      <trkpt lat="49.12603" lon="1.93855">
        <ele>59.99</ele>
        <time>2019-03-10T08:36:46Z</time>
      </trkpt>
      <trkpt lat="49.12609" lon="1.93855">
        <ele>60.41</ele>
        <time>2019-03-10T08:36:57Z</time>
      </trkpt>
      <trkpt lat="49.12611" lon="1.93856">
        <ele>59.43</ele>
        <time>2019-03-10T08:36:59Z</time>
      </trkpt>
      <trkpt lat="49.12612" lon="1.93858">
        <ele>61.28</ele>
        <time>2019-03-10T08:37:01Z</time>
      </trkpt>
      <trkpt lat="49.12618" lon="1.93863">
        <ele>62.08</ele>
        <time>2019-03-10T08:37:08Z</time>
      </trkpt>
      <trkpt lat="49.12629" lon="1.93865">
        <ele>55.93</ele>
        <time>2019-03-10T08:37:18Z</time>
      </trkpt>
      <trkpt lat="49.12631" lon="1.93865">
        <ele>59.21</ele>
        <time>2019-03-10T08:37:20Z</time>
      </trkpt>
      <trkpt lat="49.12634" lon="1.93867">
        <ele>59.31</ele>
        <time>2019-03-10T08:37:23Z</time>
      </trkpt>
      <trkpt lat="49.12637" lon="1.93867">
        <ele>57.19</ele>
        <time>2019-03-10T08:37:26Z</time>
      </trkpt>
      <trkpt lat="49.12639" lon="1.93867">
        <ele>61.1</ele>
        <time>2019-03-10T08:37:27Z</time>
      </trkpt>
      <trkpt lat="49.12642" lon="1.93867">
        <ele>56.75</ele>
        <time>2019-03-10T08:37:29Z</time>
      </trkpt>
      <trkpt lat="49.12647" lon="1.93868">
        <ele>60.95</ele>
        <time>2019-03-10T08:37:34Z</time>
      </trkpt>
      <trkpt lat="49.12648" lon="1.93868">
        <ele>59.55</ele>
        <time>2019-03-10T08:37:35Z</time>
      </trkpt>
      <trkpt lat="49.12652" lon="1.93868">
        <ele>57.93</ele>
        <time>2019-03-10T08:37:39Z</time>
      </trkpt>
      <trkpt lat="49.12656" lon="1.93866">
        <ele>58.59</ele>
        <time>2019-03-10T08:37:43Z</time>
      </trkpt>
      <trkpt lat="49.12663" lon="1.93864">
        <ele>58.7</ele>
        <time>2019-03-10T08:37:51Z</time>
      </trkpt>
      <trkpt lat="49.12674" lon="1.9386">
        <ele>58.32</ele>
        <time>2019-03-10T08:38:05Z</time>
      </trkpt>
      <trkpt lat="49.12676" lon="1.93858">
        <ele>57.1</ele>
        <time>2019-03-10T08:38:08Z</time>
      </trkpt>
      <trkpt lat="49.12689" lon="1.93844">
        <ele>55.64</ele>
        <time>2019-03-10T08:38:23Z</time>
      </trkpt>
      <trkpt lat="49.12692" lon="1.93842">
        <ele>53.08</ele>
        <time>2019-03-10T08:38:26Z</time>
      </trkpt>
      <trkpt lat="49.12695" lon="1.93836">
        <ele>57.61</ele>
        <time>2019-03-10T08:38:31Z</time>
      </trkpt>
      <trkpt lat="49.12697" lon="1.93835">
        <ele>57.66</ele>
        <time>2019-03-10T08:38:32Z</time>
      </trkpt>
      <trkpt lat="49.12697" lon="1.93834">
        <ele>53.77</ele>
        <time>2019-03-10T08:38:33Z</time>
      </trkpt>
      <trkpt lat="49.12698" lon="1.93833">
        <ele>54.9</ele>
        <time>2019-03-10T08:38:34Z</time>
      </trkpt>
      <trkpt lat="49.127" lon="1.93831">
        <ele>56.08</ele>
        <time>2019-03-10T08:38:36Z</time>
      </trkpt>
      <trkpt lat="49.1271" lon="1.93818">
        <ele>57.22</ele>
        <time>2019-03-10T08:38:46Z</time>
      </trkpt>
      <trkpt lat="49.1272" lon="1.93802">
        <ele>61.18</ele>
        <time>2019-03-10T08:38:59Z</time>
      </trkpt>
      <trkpt lat="49.12723" lon="1.93798">
        <ele>57.46</ele>
        <time>2019-03-10T08:39:02Z</time>
      </trkpt>
      <trkpt lat="49.12725" lon="1.93796">
        <ele>56.26</ele>
        <time>2019-03-10T08:39:04Z</time>
      </trkpt>
      <trkpt lat="49.12727" lon="1.93794">
        <ele>58.63</ele>
        <time>2019-03-10T08:39:06Z</time>
      </trkpt>
      <trkpt lat="49.12735" lon="1.93786">
        <ele>61.33</ele>
        <time>2019-03-10T08:39:15Z</time>
      </trkpt>
      <trkpt lat="49.12742" lon="1.9378">
        <ele>58.2</ele>
        <time>2019-03-10T08:39:22Z</time>
      </trkpt>
      <trkpt lat="49.12748" lon="1.93776">
        <ele>61.46</ele>
        <time>2019-03-10T08:39:33Z</time>
      </trkpt>
      <trkpt lat="49.12753" lon="1.93772">
        <ele>60.6</ele>
        <time>2019-03-10T08:39:52Z</time>
      </trkpt>
      <trkpt lat="49.12758" lon="1.9377">
        <ele>58.65</ele>
        <time>2019-03-10T08:39:57Z</time>
      </trkpt>
      <trkpt lat="49.12762" lon="1.93769">
        <ele>61.68</ele>
        <time>2019-03-10T08:40:02Z</time>
      </trkpt>
      <trkpt lat="49.12776" lon="1.93767">
        <ele>65.35</ele>
        <time>2019-03-10T08:40:19Z</time>
      </trkpt>
      <trkpt lat="49.12786" lon="1.93769">
        <ele>65.41</ele>
        <time>2019-03-10T08:40:32Z</time>
      </trkpt>
      <trkpt lat="49.12804" lon="1.93771">
        <ele>66.61</ele>
        <time>2019-03-10T08:40:53Z</time>
      </trkpt>
      <trkpt lat="49.12811" lon="1.93771">
        <ele>69.24</ele>
        <time>2019-03-10T08:41:01Z</time>
      </trkpt>
      <trkpt lat="49.1283" lon="1.9377">
        <ele>70.29</ele>
        <time>2019-03-10T08:41:17Z</time>
      </trkpt>
      <trkpt lat="49.12834" lon="1.93769">
        <ele>70.41</ele>
        <time>2019-03-10T08:41:21Z</time>
      </trkpt>
      <trkpt lat="49.1284" lon="1.93769">
        <ele>71.01</ele>
        <time>2019-03-10T08:41:26Z</time>
      </trkpt>
      <trkpt lat="49.12847" lon="1.93769">
        <ele>70.16</ele>
        <time>2019-03-10T08:41:32Z</time>
      </trkpt>
      <trkpt lat="49.12854" lon="1.93769">
        <ele>76.18</ele>
        <time>2019-03-10T08:41:38Z</time>
      </trkpt>
      <trkpt lat="49.12857" lon="1.93768">
        <ele>71.75</ele>
        <time>2019-03-10T08:41:41Z</time>
      </trkpt>
      <trkpt lat="49.12863" lon="1.93766">
        <ele>73.08</ele>
        <time>2019-03-10T08:41:47Z</time>
      </trkpt>
      <trkpt lat="49.12878" lon="1.93763">
        <ele>74.25</ele>
        <time>2019-03-10T08:42:01Z</time>
      </trkpt>
      <trkpt lat="49.12891" lon="1.93759">
        <ele>74.05</ele>
        <time>2019-03-10T08:42:13Z</time>
      </trkpt>
      <trkpt lat="49.12894" lon="1.93758">
        <ele>75.18</ele>
        <time>2019-03-10T08:42:17Z</time>
      </trkpt>
      <trkpt lat="49.12906" lon="1.93756">
        <ele>76.5</ele>
        <time>2019-03-10T08:42:28Z</time>
      </trkpt>
      <trkpt lat="49.1292" lon="1.93756">
        <ele>77.31</ele>
        <time>2019-03-10T08:42:42Z</time>
      </trkpt>
      <trkpt lat="49.12934" lon="1.93755">
        <ele>77.73</ele>
        <time>2019-03-10T08:42:56Z</time>
      </trkpt>
      <trkpt lat="49.12948" lon="1.93755">
        <ele>79.44</ele>
        <time>2019-03-10T08:43:11Z</time>
      </trkpt>
      <trkpt lat="49.12955" lon="1.93754">
        <ele>80.73</ele>
        <time>2019-03-10T08:43:18Z</time>
      </trkpt>
      <trkpt lat="49.12963" lon="1.93754">
        <ele>85.4</ele>
        <time>2019-03-10T08:43:25Z</time>
      </trkpt>
      <trkpt lat="49.12964" lon="1.93754">
        <ele>85.35</ele>
        <time>2019-03-10T08:43:26Z</time>
      </trkpt>
      <trkpt lat="49.12964" lon="1.93755">
        <ele>82.02</ele>
        <time>2019-03-10T08:43:27Z</time>
      </trkpt>
      <trkpt lat="49.12965" lon="1.93755">
        <ele>83</ele>
        <time>2019-03-10T08:43:28Z</time>
      </trkpt>
      <trkpt lat="49.12967" lon="1.93755">
        <ele>79</ele>
        <time>2019-03-10T08:43:30Z</time>
      </trkpt>
      <trkpt lat="49.12968" lon="1.93754">
        <ele>80.53</ele>
        <time>2019-03-10T08:43:31Z</time>
      </trkpt>
      <trkpt lat="49.12973" lon="1.93753">
        <ele>87.27</ele>
        <time>2019-03-10T08:43:36Z</time>
      </trkpt>
      <trkpt lat="49.12974" lon="1.93753">
        <ele>84.03</ele>
        <time>2019-03-10T08:43:38Z</time>
      </trkpt>
      <trkpt lat="49.12976" lon="1.93753">
        <ele>82.51</ele>
        <time>2019-03-10T08:43:40Z</time>
      </trkpt>
      <trkpt lat="49.12984" lon="1.93752">
        <ele>79.74</ele>
        <time>2019-03-10T08:43:48Z</time>
      </trkpt>
      <trkpt lat="49.13" lon="1.93749">
        <ele>82.13</ele>
        <time>2019-03-10T08:44:03Z</time>
      </trkpt>
      <trkpt lat="49.13016" lon="1.93746">
        <ele>81.1</ele>
        <time>2019-03-10T08:44:17Z</time>
      </trkpt>
      <trkpt lat="49.13022" lon="1.93744">
        <ele>80.77</ele>
        <time>2019-03-10T08:44:23Z</time>
      </trkpt>
      <trkpt lat="49.13037" lon="1.93741">
        <ele>84.04</ele>
        <time>2019-03-10T08:44:38Z</time>
      </trkpt>
      <trkpt lat="49.13042" lon="1.9374">
        <ele>82.12</ele>
        <time>2019-03-10T08:44:43Z</time>
      </trkpt>
      <trkpt lat="49.13045" lon="1.93738">
        <ele>81.22</ele>
        <time>2019-03-10T08:44:46Z</time>
      </trkpt>
      <trkpt lat="49.13055" lon="1.93724">
        <ele>82.28</ele>
        <time>2019-03-10T08:45:00Z</time>
      </trkpt>
      <trkpt lat="49.13057" lon="1.93722">
        <ele>81.47</ele>
        <time>2019-03-10T08:45:03Z</time>
      </trkpt>
      <trkpt lat="49.1306" lon="1.93719">
        <ele>81.52</ele>
        <time>2019-03-10T08:45:06Z</time>
      </trkpt>
      <trkpt lat="49.13072" lon="1.93702">
        <ele>82.3</ele>
        <time>2019-03-10T08:45:21Z</time>
      </trkpt>
      <trkpt lat="49.13077" lon="1.93695">
        <ele>80.46</ele>
        <time>2019-03-10T08:45:27Z</time>
      </trkpt>
      <trkpt lat="49.13087" lon="1.9368">
        <ele>80.44</ele>
        <time>2019-03-10T08:45:40Z</time>
      </trkpt>
      <trkpt lat="49.13088" lon="1.93676">
        <ele>80.72</ele>
        <time>2019-03-10T08:45:43Z</time>
      </trkpt>
      <trkpt lat="49.13091" lon="1.93673">
        <ele>81.02</ele>
        <time>2019-03-10T08:45:47Z</time>
      </trkpt>
      <trkpt lat="49.13093" lon="1.93669">
        <ele>81.79</ele>
        <time>2019-03-10T08:45:50Z</time>
      </trkpt>
      <trkpt lat="49.13102" lon="1.93649">
        <ele>78</ele>
        <time>2019-03-10T08:46:04Z</time>
      </trkpt>
      <trkpt lat="49.13103" lon="1.93645">
        <ele>80.31</ele>
        <time>2019-03-10T08:46:07Z</time>
      </trkpt>
      <trkpt lat="49.13104" lon="1.93643">
        <ele>79.8</ele>
        <time>2019-03-10T08:46:08Z</time>
      </trkpt>
      <trkpt lat="49.13106" lon="1.93639">
        <ele>82.68</ele>
        <time>2019-03-10T08:46:11Z</time>
      </trkpt>
      <trkpt lat="49.13109" lon="1.93632">
        <ele>80.23</ele>
        <time>2019-03-10T08:46:16Z</time>
      </trkpt>
      <trkpt lat="49.13117" lon="1.93604">
        <ele>80.3</ele>
        <time>2019-03-10T08:46:33Z</time>
      </trkpt>
      <trkpt lat="49.13127" lon="1.93577">
        <ele>80.65</ele>
        <time>2019-03-10T08:46:51Z</time>
      </trkpt>
      <trkpt lat="49.1313" lon="1.93567">
        <ele>81.76</ele>
        <time>2019-03-10T08:46:57Z</time>
      </trkpt>
      <trkpt lat="49.13137" lon="1.93548">
        <ele>81.82</ele>
        <time>2019-03-10T08:47:10Z</time>
      </trkpt>
      <trkpt lat="49.13142" lon="1.93539">
        <ele>82.61</ele>
        <time>2019-03-10T08:47:17Z</time>
      </trkpt>
      <trkpt lat="49.13146" lon="1.93529">
        <ele>82.46</ele>
        <time>2019-03-10T08:47:24Z</time>
      </trkpt>
      <trkpt lat="49.13152" lon="1.93514">
        <ele>83.34</ele>
        <time>2019-03-10T08:47:35Z</time>
      </trkpt>
      <trkpt lat="49.13157" lon="1.93505">
        <ele>83.89</ele>
        <time>2019-03-10T08:47:42Z</time>
      </trkpt>
      <trkpt lat="49.13157" lon="1.93502">
        <ele>84.88</ele>
        <time>2019-03-10T08:47:44Z</time>
      </trkpt>
      <trkpt lat="49.13168" lon="1.93479">
        <ele>86.1</ele>
        <time>2019-03-10T08:48:01Z</time>
      </trkpt>
      <trkpt lat="49.13172" lon="1.93469">
        <ele>86.2</ele>
        <time>2019-03-10T08:48:08Z</time>
      </trkpt>
      <trkpt lat="49.13178" lon="1.93458">
        <ele>84.9</ele>
        <time>2019-03-10T08:48:16Z</time>
      </trkpt>
      <trkpt lat="49.13182" lon="1.93449">
        <ele>83.77</ele>
        <time>2019-03-10T08:48:22Z</time>
      </trkpt>
      <trkpt lat="49.13184" lon="1.93443">
        <ele>84.57</ele>
        <time>2019-03-10T08:48:26Z</time>
      </trkpt>
      <trkpt lat="49.13186" lon="1.93439">
        <ele>85</ele>
        <time>2019-03-10T08:48:29Z</time>
      </trkpt>
      <trkpt lat="49.13193" lon="1.93423">
        <ele>84.7</ele>
        <time>2019-03-10T08:48:41Z</time>
      </trkpt>
      <trkpt lat="49.132" lon="1.93404">
        <ele>84.8</ele>
        <time>2019-03-10T08:48:54Z</time>
      </trkpt>
      <trkpt lat="49.13203" lon="1.93393">
        <ele>82.62</ele>
        <time>2019-03-10T08:49:01Z</time>
      </trkpt>
      <trkpt lat="49.13208" lon="1.9338">
        <ele>85.58</ele>
        <time>2019-03-10T08:49:11Z</time>
      </trkpt>
      <trkpt lat="49.13216" lon="1.93359">
        <ele>85.85</ele>
        <time>2019-03-10T08:49:26Z</time>
      </trkpt>
      <trkpt lat="49.1322" lon="1.93352">
        <ele>84.13</ele>
        <time>2019-03-10T08:49:31Z</time>
      </trkpt>
      <trkpt lat="49.13225" lon="1.93343">
        <ele>86.25</ele>
        <time>2019-03-10T08:49:37Z</time>
      </trkpt>
      <trkpt lat="49.1323" lon="1.93327">
        <ele>86.08</ele>
        <time>2019-03-10T08:49:49Z</time>
      </trkpt>
      <trkpt lat="49.13236" lon="1.93312">
        <ele>85.16</ele>
        <time>2019-03-10T08:50:02Z</time>
      </trkpt>
      <trkpt lat="49.13238" lon="1.93308">
        <ele>85.1</ele>
        <time>2019-03-10T08:50:06Z</time>
      </trkpt>
      <trkpt lat="49.13239" lon="1.933">
        <ele>81.51</ele>
        <time>2019-03-10T08:50:12Z</time>
      </trkpt>
      <trkpt lat="49.13235" lon="1.93283">
        <ele>81.79</ele>
        <time>2019-03-10T08:50:30Z</time>
      </trkpt>
      <trkpt lat="49.1323" lon="1.93256">
        <ele>79.64</ele>
        <time>2019-03-10T08:50:47Z</time>
      </trkpt>
      <trkpt lat="49.13229" lon="1.9325">
        <ele>78.86</ele>
        <time>2019-03-10T08:50:51Z</time>
      </trkpt>
      <trkpt lat="49.13228" lon="1.93242">
        <ele>79.12</ele>
        <time>2019-03-10T08:50:56Z</time>
      </trkpt>
      <trkpt lat="49.13229" lon="1.93239">
        <ele>78.2</ele>
        <time>2019-03-10T08:50:58Z</time>
      </trkpt>
      <trkpt lat="49.13231" lon="1.93226">
        <ele>79.1</ele>
        <time>2019-03-10T08:51:08Z</time>
      </trkpt>
      <trkpt lat="49.13236" lon="1.93205">
        <ele>77.61</ele>
        <time>2019-03-10T08:51:22Z</time>
      </trkpt>
      <trkpt lat="49.1324" lon="1.93188">
        <ele>74.17</ele>
        <time>2019-03-10T08:51:33Z</time>
      </trkpt>
      <trkpt lat="49.13241" lon="1.93186">
        <ele>74.23</ele>
        <time>2019-03-10T08:51:34Z</time>
      </trkpt>
      <trkpt lat="49.13246" lon="1.93177">
        <ele>76.16</ele>
        <time>2019-03-10T08:51:40Z</time>
      </trkpt>
      <trkpt lat="49.13255" lon="1.93166">
        <ele>73.47</ele>
        <time>2019-03-10T08:51:53Z</time>
      </trkpt>
      <trkpt lat="49.13256" lon="1.93165">
        <ele>76.78</ele>
        <time>2019-03-10T08:51:58Z</time>
      </trkpt>
      <trkpt lat="49.13256" lon="1.93165">
        <ele>73.75</ele>
        <time>2019-03-10T08:52:01Z</time>
      </trkpt>
      <trkpt lat="49.13256" lon="1.93164">
        <ele>73.04</ele>
        <time>2019-03-10T08:52:03Z</time>
      </trkpt>
      <trkpt lat="49.13256" lon="1.93164">
        <ele>74.85</ele>
        <time>2019-03-10T08:52:08Z</time>
      </trkpt>
      <trkpt lat="49.13256" lon="1.93163">
        <ele>78.59</ele>
        <time>2019-03-10T08:52:33Z</time>
      </trkpt>
      <trkpt lat="49.13256" lon="1.93162">
        <ele>75.3</ele>
        <time>2019-03-10T08:52:37Z</time>
      </trkpt>
      <trkpt lat="49.13258" lon="1.93159">
        <ele>73.44</ele>
        <time>2019-03-10T08:52:53Z</time>
      </trkpt>
      <trkpt lat="49.13266" lon="1.9315">
        <ele>73.4</ele>
        <time>2019-03-10T08:53:06Z</time>
      </trkpt>
      <trkpt lat="49.13287" lon="1.93138">
        <ele>71.68</ele>
        <time>2019-03-10T08:53:28Z</time>
      </trkpt>
      <trkpt lat="49.13306" lon="1.93125">
        <ele>70.1</ele>
        <time>2019-03-10T08:53:48Z</time>
      </trkpt>
      <trkpt lat="49.13325" lon="1.93112">
        <ele>68.72</ele>
        <time>2019-03-10T08:54:10Z</time>
      </trkpt>
      <trkpt lat="49.13334" lon="1.93107">
        <ele>67.09</ele>
        <time>2019-03-10T08:54:17Z</time>
      </trkpt>
      <trkpt lat="49.1335" lon="1.93095">
        <ele>64.58</ele>
        <time>2019-03-10T08:54:32Z</time>
      </trkpt>
      <trkpt lat="49.13354" lon="1.93092">
        <ele>67.72</ele>
        <time>2019-03-10T08:54:36Z</time>
      </trkpt>
      <trkpt lat="49.13365" lon="1.93082">
        <ele>64.51</ele>
        <time>2019-03-10T08:54:45Z</time>
      </trkpt>
      <trkpt lat="49.13367" lon="1.93077">
        <ele>66.88</ele>
        <time>2019-03-10T08:54:48Z</time>
      </trkpt>
      <trkpt lat="49.13373" lon="1.9307">
        <ele>63.8</ele>
        <time>2019-03-10T08:54:54Z</time>
      </trkpt>
      <trkpt lat="49.13374" lon="1.93068">
        <ele>63.7</ele>
        <time>2019-03-10T08:54:55Z</time>
      </trkpt>
      <trkpt lat="49.13379" lon="1.93061">
        <ele>63.9</ele>
        <time>2019-03-10T08:55:01Z</time>
      </trkpt>
      <trkpt lat="49.1339" lon="1.93048">
        <ele>62.26</ele>
        <time>2019-03-10T08:55:14Z</time>
      </trkpt>
      <trkpt lat="49.13404" lon="1.9303">
        <ele>63.61</ele>
        <time>2019-03-10T08:55:30Z</time>
      </trkpt>
      <trkpt lat="49.13407" lon="1.93026">
        <ele>61.46</ele>
        <time>2019-03-10T08:55:33Z</time>
      </trkpt>
      <trkpt lat="49.13408" lon="1.93022">
        <ele>58.1</ele>
        <time>2019-03-10T08:55:36Z</time>
      </trkpt>
      <trkpt lat="49.13421" lon="1.92998">
        <ele>58.22</ele>
        <time>2019-03-10T08:55:54Z</time>
      </trkpt>
      <trkpt lat="49.13422" lon="1.92994">
        <ele>56.87</ele>
        <time>2019-03-10T08:55:56Z</time>
      </trkpt>
      <trkpt lat="49.13424" lon="1.9299">
        <ele>58.66</ele>
        <time>2019-03-10T08:55:59Z</time>
      </trkpt>
      <trkpt lat="49.13428" lon="1.92978">
        <ele>59.8</ele>
        <time>2019-03-10T08:56:07Z</time>
      </trkpt>
      <trkpt lat="49.13429" lon="1.92967">
        <ele>57.7</ele>
        <time>2019-03-10T08:56:13Z</time>
      </trkpt>
      <trkpt lat="49.13428" lon="1.92963">
        <ele>56.2</ele>
        <time>2019-03-10T08:56:15Z</time>
      </trkpt>
      <trkpt lat="49.13424" lon="1.92952">
        <ele>54.78</ele>
        <time>2019-03-10T08:56:20Z</time>
      </trkpt>
      <trkpt lat="49.13417" lon="1.92933">
        <ele>57.18</ele>
        <time>2019-03-10T08:56:29Z</time>
      </trkpt>
      <trkpt lat="49.13404" lon="1.92912">
        <ele>57.7</ele>
        <time>2019-03-10T08:56:43Z</time>
      </trkpt>
      <trkpt lat="49.13392" lon="1.92887">
        <ele>56.94</ele>
        <time>2019-03-10T08:56:59Z</time>
      </trkpt>
      <trkpt lat="49.13388" lon="1.9288">
        <ele>57.29</ele>
        <time>2019-03-10T08:57:05Z</time>
      </trkpt>
      <trkpt lat="49.13371" lon="1.92863">
        <ele>55.44</ele>
        <time>2019-03-10T08:57:21Z</time>
      </trkpt>
      <trkpt lat="49.13367" lon="1.92857">
        <ele>57.23</ele>
        <time>2019-03-10T08:57:25Z</time>
      </trkpt>
      <trkpt lat="49.1336" lon="1.92845">
        <ele>55.11</ele>
        <time>2019-03-10T08:57:32Z</time>
      </trkpt>
      <trkpt lat="49.13355" lon="1.92833">
        <ele>56.15</ele>
        <time>2019-03-10T08:57:38Z</time>
      </trkpt>
      <trkpt lat="49.13348" lon="1.92814">
        <ele>58.23</ele>
        <time>2019-03-10T08:57:53Z</time>
      </trkpt>
      <trkpt lat="49.13348" lon="1.92815">
        <ele>57.42</ele>
        <time>2019-03-10T08:57:55Z</time>
      </trkpt>
      <trkpt lat="49.1335" lon="1.92816">
        <ele>54.89</ele>
        <time>2019-03-10T08:57:59Z</time>
      </trkpt>
      <trkpt lat="49.1334" lon="1.92807">
        <ele>57.46</ele>
        <time>2019-03-10T08:58:15Z</time>
      </trkpt>
      <trkpt lat="49.13337" lon="1.92799">
        <ele>57.71</ele>
        <time>2019-03-10T08:58:23Z</time>
      </trkpt>
      <trkpt lat="49.13336" lon="1.92797">
        <ele>57.64</ele>
        <time>2019-03-10T08:58:24Z</time>
      </trkpt>
      <trkpt lat="49.13333" lon="1.9279">
        <ele>57.62</ele>
        <time>2019-03-10T08:58:28Z</time>
      </trkpt>
      <trkpt lat="49.1333" lon="1.92782">
        <ele>55.83</ele>
        <time>2019-03-10T08:58:32Z</time>
      </trkpt>
      <trkpt lat="49.13328" lon="1.92776">
        <ele>56.54</ele>
        <time>2019-03-10T08:58:37Z</time>
      </trkpt>
      <trkpt lat="49.13312" lon="1.92767">
        <ele>56.84</ele>
        <time>2019-03-10T08:58:55Z</time>
      </trkpt>
      <trkpt lat="49.1331" lon="1.92785">
        <ele>54.59</ele>
        <time>2019-03-10T08:59:14Z</time>
      </trkpt>
      <trkpt lat="49.13304" lon="1.92814">
        <ele>52.43</ele>
        <time>2019-03-10T08:59:34Z</time>
      </trkpt>
      <trkpt lat="49.13286" lon="1.92825">
        <ele>51.68</ele>
        <time>2019-03-10T08:59:55Z</time>
      </trkpt>
      <trkpt lat="49.13265" lon="1.92817">
        <ele>50.75</ele>
        <time>2019-03-10T09:00:15Z</time>
      </trkpt>
      <trkpt lat="49.13247" lon="1.92817">
        <ele>50.46</ele>
        <time>2019-03-10T09:00:37Z</time>
      </trkpt>
      <trkpt lat="49.13224" lon="1.92822">
        <ele>50.8</ele>
        <time>2019-03-10T09:01:00Z</time>
      </trkpt>
      <trkpt lat="49.13222" lon="1.92823">
        <ele>49.41</ele>
        <time>2019-03-10T09:01:03Z</time>
      </trkpt>
      <trkpt lat="49.13205" lon="1.92828">
        <ele>49.87</ele>
        <time>2019-03-10T09:01:22Z</time>
      </trkpt>
      <trkpt lat="49.13185" lon="1.92831">
        <ele>50.05</ele>
        <time>2019-03-10T09:01:41Z</time>
      </trkpt>
      <trkpt lat="49.13162" lon="1.92843">
        <ele>49.42</ele>
        <time>2019-03-10T09:01:58Z</time>
      </trkpt>
      <trkpt lat="49.13149" lon="1.92851">
        <ele>49.23</ele>
        <time>2019-03-10T09:02:15Z</time>
      </trkpt>
      <trkpt lat="49.13143" lon="1.92856">
        <ele>49.11</ele>
        <time>2019-03-10T09:02:34Z</time>
      </trkpt>
      <trkpt lat="49.13143" lon="1.92867">
        <ele>48.39</ele>
        <time>2019-03-10T09:03:05Z</time>
      </trkpt>
      <trkpt lat="49.13139" lon="1.92867">
        <ele>48.47</ele>
        <time>2019-03-10T09:03:30Z</time>
      </trkpt>
      <trkpt lat="49.13137" lon="1.92869">
        <ele>47.87</ele>
        <time>2019-03-10T09:03:53Z</time>
      </trkpt>
      <trkpt lat="49.13136" lon="1.92871">
        <ele>49.16</ele>
        <time>2019-03-10T09:04:00Z</time>
      </trkpt>
      <trkpt lat="49.13134" lon="1.9287">
        <ele>50.72</ele>
        <time>2019-03-10T09:04:03Z</time>
      </trkpt>
      <trkpt lat="49.13128" lon="1.92873">
        <ele>47.47</ele>
        <time>2019-03-10T09:04:14Z</time>
      </trkpt>
      <trkpt lat="49.1312" lon="1.92878">
        <ele>49.07</ele>
        <time>2019-03-10T09:04:27Z</time>
      </trkpt>
      <trkpt lat="49.13117" lon="1.9288">
        <ele>47.96</ele>
        <time>2019-03-10T09:04:31Z</time>
      </trkpt>
      <trkpt lat="49.1311" lon="1.92889">
        <ele>47.48</ele>
        <time>2019-03-10T09:04:56Z</time>
      </trkpt>
      <trkpt lat="49.13102" lon="1.92896">
        <ele>47.34</ele>
        <time>2019-03-10T09:05:14Z</time>
      </trkpt>
      <trkpt lat="49.13087" lon="1.92909">
        <ele>48.22</ele>
        <time>2019-03-10T09:05:36Z</time>
      </trkpt>
      <trkpt lat="49.13085" lon="1.92912">
        <ele>48.22</ele>
        <time>2019-03-10T09:05:40Z</time>
      </trkpt>
      <trkpt lat="49.13081" lon="1.9292">
        <ele>47.91</ele>
        <time>2019-03-10T09:05:58Z</time>
      </trkpt>
      <trkpt lat="49.13082" lon="1.92919">
        <ele>47.37</ele>
        <time>2019-03-10T09:06:24Z</time>
      </trkpt>
      <trkpt lat="49.13083" lon="1.9292">
        <ele>48.42</ele>
        <time>2019-03-10T09:06:35Z</time>
      </trkpt>
      <trkpt lat="49.13083" lon="1.92921">
        <ele>46.48</ele>
        <time>2019-03-10T09:07:02Z</time>
      </trkpt>
      <trkpt lat="49.1308" lon="1.92923">
        <ele>46.48</ele>
        <time>2019-03-10T09:07:28Z</time>
      </trkpt>
      <trkpt lat="49.13082" lon="1.92921">
        <ele>46.25</ele>
        <time>2019-03-10T09:07:57Z</time>
      </trkpt>
      <trkpt lat="49.13082" lon="1.9292">
        <ele>47.57</ele>
        <time>2019-03-10T09:08:24Z</time>
      </trkpt>
      <trkpt lat="49.13082" lon="1.9292">
        <ele>48.32</ele>
        <time>2019-03-10T09:08:29Z</time>
      </trkpt>
      <trkpt lat="49.13081" lon="1.92919">
        <ele>45.77</ele>
        <time>2019-03-10T09:08:54Z</time>
      </trkpt>
      <trkpt lat="49.13072" lon="1.92938">
        <ele>47.06</ele>
        <time>2019-03-10T09:09:15Z</time>
      </trkpt>
      <trkpt lat="49.1306" lon="1.92958">
        <ele>45.97</ele>
        <time>2019-03-10T09:09:36Z</time>
      </trkpt>
      <trkpt lat="49.13057" lon="1.92965">
        <ele>47.87</ele>
        <time>2019-03-10T09:09:45Z</time>
      </trkpt>
      <trkpt lat="49.13041" lon="1.92984">
        <ele>46.94</ele>
        <time>2019-03-10T09:10:04Z</time>
      </trkpt>
      <trkpt lat="49.13029" lon="1.92976">
        <ele>47.02</ele>
        <time>2019-03-10T09:10:19Z</time>
      </trkpt>
      <trkpt lat="49.13028" lon="1.9297">
        <ele>47.12</ele>
        <time>2019-03-10T09:10:25Z</time>
      </trkpt>
      <trkpt lat="49.13031" lon="1.92947">
        <ele>45.63</ele>
        <time>2019-03-10T09:10:43Z</time>
      </trkpt>
      <trkpt lat="49.13029" lon="1.92922">
        <ele>46.25</ele>
        <time>2019-03-10T09:11:02Z</time>
      </trkpt>
      <trkpt lat="49.13029" lon="1.92916">
        <ele>45.32</ele>
        <time>2019-03-10T09:11:07Z</time>
      </trkpt>
      <trkpt lat="49.13023" lon="1.92884">
        <ele>45.47</ele>
        <time>2019-03-10T09:11:27Z</time>
      </trkpt>
      <trkpt lat="49.13016" lon="1.92851">
        <ele>45.06</ele>
        <time>2019-03-10T09:11:46Z</time>
      </trkpt>
      <trkpt lat="49.13009" lon="1.92825">
        <ele>43.88</ele>
        <time>2019-03-10T09:12:03Z</time>
      </trkpt>
      <trkpt lat="49.13002" lon="1.92803">
        <ele>43.77</ele>
        <time>2019-03-10T09:12:17Z</time>
      </trkpt>
      <trkpt lat="49.12995" lon="1.92775">
        <ele>43.57</ele>
        <time>2019-03-10T09:12:36Z</time>
      </trkpt>
      <trkpt lat="49.12987" lon="1.92747">
        <ele>43.07</ele>
        <time>2019-03-10T09:12:56Z</time>
      </trkpt>
      <trkpt lat="49.12975" lon="1.92717">
        <ele>41.93</ele>
        <time>2019-03-10T09:13:16Z</time>
      </trkpt>
      <trkpt lat="49.12966" lon="1.92687">
        <ele>41.04</ele>
        <time>2019-03-10T09:13:36Z</time>
      </trkpt>
      <trkpt lat="49.12958" lon="1.9267">
        <ele>42.18</ele>
        <time>2019-03-10T09:13:51Z</time>
      </trkpt>
      <trkpt lat="49.12948" lon="1.92644">
        <ele>41.8</ele>
        <time>2019-03-10T09:14:10Z</time>
      </trkpt>
      <trkpt lat="49.12945" lon="1.92635">
        <ele>41.22</ele>
        <time>2019-03-10T09:14:17Z</time>
      </trkpt>
      <trkpt lat="49.12938" lon="1.92617">
        <ele>42.37</ele>
        <time>2019-03-10T09:14:30Z</time>
      </trkpt>
      <trkpt lat="49.12925" lon="1.92584">
        <ele>41.54</ele>
        <time>2019-03-10T09:14:52Z</time>
      </trkpt>
      <trkpt lat="49.12915" lon="1.92552">
        <ele>40.19</ele>
        <time>2019-03-10T09:15:12Z</time>
      </trkpt>
      <trkpt lat="49.1291" lon="1.92541">
        <ele>41.43</ele>
        <time>2019-03-10T09:15:18Z</time>
      </trkpt>
      <trkpt lat="49.12903" lon="1.92524">
        <ele>40.96</ele>
        <time>2019-03-10T09:15:31Z</time>
      </trkpt>
      <trkpt lat="49.12895" lon="1.92504">
        <ele>39.74</ele>
        <time>2019-03-10T09:15:49Z</time>
      </trkpt>
      <trkpt lat="49.12888" lon="1.92479">
        <ele>39.69</ele>
        <time>2019-03-10T09:16:08Z</time>
      </trkpt>
      <trkpt lat="49.12886" lon="1.92445">
        <ele>41.13</ele>
        <time>2019-03-10T09:16:29Z</time>
      </trkpt>
      <trkpt lat="49.12879" lon="1.92427">
        <ele>39.91</ele>
        <time>2019-03-10T09:16:49Z</time>
      </trkpt>
      <trkpt lat="49.12874" lon="1.92407">
        <ele>41.66</ele>
        <time>2019-03-10T09:17:02Z</time>
      </trkpt>
      <trkpt lat="49.12867" lon="1.92374">
        <ele>43.03</ele>
        <time>2019-03-10T09:17:22Z</time>
      </trkpt>
      <trkpt lat="49.1286" lon="1.92356">
        <ele>41.16</ele>
        <time>2019-03-10T09:17:42Z</time>
      </trkpt>
      <trkpt lat="49.12856" lon="1.92339">
        <ele>41.67</ele>
        <time>2019-03-10T09:17:55Z</time>
      </trkpt>
      <trkpt lat="49.12856" lon="1.9232">
        <ele>41.83</ele>
        <time>2019-03-10T09:18:07Z</time>
      </trkpt>
      <trkpt lat="49.12849" lon="1.92297">
        <ele>42.75</ele>
        <time>2019-03-10T09:18:26Z</time>
      </trkpt>
      <trkpt lat="49.12842" lon="1.92284">
        <ele>43.18</ele>
        <time>2019-03-10T09:18:47Z</time>
      </trkpt>
      <trkpt lat="49.12839" lon="1.92269">
        <ele>45.02</ele>
        <time>2019-03-10T09:19:05Z</time>
      </trkpt>
      <trkpt lat="49.12836" lon="1.92249">
        <ele>43.97</ele>
        <time>2019-03-10T09:19:23Z</time>
      </trkpt>
      <trkpt lat="49.12833" lon="1.92234">
        <ele>45</ele>
        <time>2019-03-10T09:19:33Z</time>
      </trkpt>
      <trkpt lat="49.12832" lon="1.92209">
        <ele>45.84</ele>
        <time>2019-03-10T09:19:53Z</time>
      </trkpt>
      <trkpt lat="49.12833" lon="1.92201">
        <ele>44.72</ele>
        <time>2019-03-10T09:20:07Z</time>
      </trkpt>
      <trkpt lat="49.1283" lon="1.92189">
        <ele>44.48</ele>
        <time>2019-03-10T09:20:32Z</time>
      </trkpt>
      <trkpt lat="49.12829" lon="1.92185">
        <ele>44.43</ele>
        <time>2019-03-10T09:20:56Z</time>
      </trkpt>
      <trkpt lat="49.12826" lon="1.92175">
        <ele>43.56</ele>
        <time>2019-03-10T09:21:21Z</time>
      </trkpt>
      <trkpt lat="49.12826" lon="1.92162">
        <ele>44.48</ele>
        <time>2019-03-10T09:21:41Z</time>
      </trkpt>
      <trkpt lat="49.12824" lon="1.92149">
        <ele>43.5</ele>
        <time>2019-03-10T09:22:01Z</time>
      </trkpt>
      <trkpt lat="49.12824" lon="1.92144">
        <ele>45.05</ele>
        <time>2019-03-10T09:22:12Z</time>
      </trkpt>
      <trkpt lat="49.12825" lon="1.92129">
        <ele>43.67</ele>
        <time>2019-03-10T09:22:26Z</time>
      </trkpt>
      <trkpt lat="49.12822" lon="1.92094">
        <ele>44.34</ele>
        <time>2019-03-10T09:22:43Z</time>
      </trkpt>
      <trkpt lat="49.1282" lon="1.92063">
        <ele>44.02</ele>
        <time>2019-03-10T09:23:03Z</time>
      </trkpt>
      <trkpt lat="49.12814" lon="1.92029">
        <ele>41.81</ele>
        <time>2019-03-10T09:23:20Z</time>
      </trkpt>
      <trkpt lat="49.12812" lon="1.92012">
        <ele>42.19</ele>
        <time>2019-03-10T09:23:33Z</time>
      </trkpt>
      <trkpt lat="49.12813" lon="1.91999">
        <ele>42.1</ele>
        <time>2019-03-10T09:23:41Z</time>
      </trkpt>
      <trkpt lat="49.12813" lon="1.91994">
        <ele>43.44</ele>
        <time>2019-03-10T09:23:43Z</time>
      </trkpt>
      <trkpt lat="49.12813" lon="1.91979">
        <ele>44.04</ele>
        <time>2019-03-10T09:23:51Z</time>
      </trkpt>
      <trkpt lat="49.12811" lon="1.91952">
        <ele>44.25</ele>
        <time>2019-03-10T09:24:05Z</time>
      </trkpt>
      <trkpt lat="49.12808" lon="1.91943">
        <ele>44.92</ele>
        <time>2019-03-10T09:24:12Z</time>
      </trkpt>
      <trkpt lat="49.12805" lon="1.9193">
        <ele>45.18</ele>
        <time>2019-03-10T09:24:21Z</time>
      </trkpt>
      <trkpt lat="49.12801" lon="1.91917">
        <ele>46.07</ele>
        <time>2019-03-10T09:24:38Z</time>
      </trkpt>
      <trkpt lat="49.12801" lon="1.91903">
        <ele>44.15</ele>
        <time>2019-03-10T09:25:00Z</time>
      </trkpt>
      <trkpt lat="49.12795" lon="1.91875">
        <ele>44.86</ele>
        <time>2019-03-10T09:25:18Z</time>
      </trkpt>
      <trkpt lat="49.1279" lon="1.91844">
        <ele>44.14</ele>
        <time>2019-03-10T09:25:36Z</time>
      </trkpt>
      <trkpt lat="49.12784" lon="1.91823">
        <ele>45.23</ele>
        <time>2019-03-10T09:25:49Z</time>
      </trkpt>
      <trkpt lat="49.12774" lon="1.9179">
        <ele>43.9</ele>
        <time>2019-03-10T09:26:06Z</time>
      </trkpt>
      <trkpt lat="49.12766" lon="1.91769">
        <ele>43.76</ele>
        <time>2019-03-10T09:26:22Z</time>
      </trkpt>
      <trkpt lat="49.12756" lon="1.91735">
        <ele>43.09</ele>
        <time>2019-03-10T09:26:41Z</time>
      </trkpt>
      <trkpt lat="49.12753" lon="1.91726">
        <ele>42.78</ele>
        <time>2019-03-10T09:26:46Z</time>
      </trkpt>
      <trkpt lat="49.12745" lon="1.917">
        <ele>42.3</ele>
        <time>2019-03-10T09:27:05Z</time>
      </trkpt>
      <trkpt lat="49.12743" lon="1.91687">
        <ele>41.11</ele>
        <time>2019-03-10T09:27:26Z</time>
      </trkpt>
      <trkpt lat="49.12741" lon="1.91685">
        <ele>41.07</ele>
        <time>2019-03-10T09:27:31Z</time>
      </trkpt>
      <trkpt lat="49.12739" lon="1.91674">
        <ele>38.98</ele>
        <time>2019-03-10T09:27:39Z</time>
      </trkpt>
      <trkpt lat="49.12738" lon="1.91672">
        <ele>38.25</ele>
        <time>2019-03-10T09:27:41Z</time>
      </trkpt>
      <trkpt lat="49.12736" lon="1.91663">
        <ele>41.62</ele>
        <time>2019-03-10T09:27:46Z</time>
      </trkpt>
      <trkpt lat="49.12729" lon="1.91635">
        <ele>41.47</ele>
        <time>2019-03-10T09:28:03Z</time>
      </trkpt>
      <trkpt lat="49.12717" lon="1.91603">
        <ele>41.79</ele>
        <time>2019-03-10T09:28:24Z</time>
      </trkpt>
      <trkpt lat="49.12708" lon="1.91572">
        <ele>41.32</ele>
        <time>2019-03-10T09:28:46Z</time>
      </trkpt>
      <trkpt lat="49.12698" lon="1.91545">
        <ele>40.38</ele>
        <time>2019-03-10T09:29:06Z</time>
      </trkpt>
      <trkpt lat="49.12694" lon="1.91533">
        <ele>44.44</ele>
        <time>2019-03-10T09:29:14Z</time>
      </trkpt>
      <trkpt lat="49.12694" lon="1.91532">
        <ele>44.34</ele>
        <time>2019-03-10T09:29:15Z</time>
      </trkpt>
      <trkpt lat="49.12686" lon="1.915">
        <ele>43.15</ele>
        <time>2019-03-10T09:29:31Z</time>
      </trkpt>
      <trkpt lat="49.1268" lon="1.91484">
        <ele>44.52</ele>
        <time>2019-03-10T09:29:44Z</time>
      </trkpt>
      <trkpt lat="49.12678" lon="1.91477">
        <ele>40.84</ele>
        <time>2019-03-10T09:29:48Z</time>
      </trkpt>
      <trkpt lat="49.12669" lon="1.91444">
        <ele>42.14</ele>
        <time>2019-03-10T09:30:06Z</time>
      </trkpt>
      <trkpt lat="49.12663" lon="1.91413">
        <ele>42.98</ele>
        <time>2019-03-10T09:30:23Z</time>
      </trkpt>
      <trkpt lat="49.12655" lon="1.91371">
        <ele>41.83</ele>
        <time>2019-03-10T09:30:44Z</time>
      </trkpt>
      <trkpt lat="49.12651" lon="1.9134">
        <ele>41.53</ele>
        <time>2019-03-10T09:31:02Z</time>
      </trkpt>
      <trkpt lat="49.12645" lon="1.91309">
        <ele>41.9</ele>
        <time>2019-03-10T09:31:24Z</time>
      </trkpt>
      <trkpt lat="49.12641" lon="1.91275">
        <ele>41.09</ele>
        <time>2019-03-10T09:31:45Z</time>
      </trkpt>
      <trkpt lat="49.12637" lon="1.91245">
        <ele>41.61</ele>
        <time>2019-03-10T09:32:05Z</time>
      </trkpt>
      <trkpt lat="49.12636" lon="1.91212">
        <ele>41.19</ele>
        <time>2019-03-10T09:32:25Z</time>
      </trkpt>
      <trkpt lat="49.12634" lon="1.91179">
        <ele>40.73</ele>
        <time>2019-03-10T09:32:46Z</time>
      </trkpt>
      <trkpt lat="49.12634" lon="1.91175">
        <ele>40.92</ele>
        <time>2019-03-10T09:32:49Z</time>
      </trkpt>
      <trkpt lat="49.1264" lon="1.9115">
        <ele>41.55</ele>
        <time>2019-03-10T09:33:10Z</time>
      </trkpt>
      <trkpt lat="49.12649" lon="1.91118">
        <ele>41.63</ele>
        <time>2019-03-10T09:33:30Z</time>
      </trkpt>
      <trkpt lat="49.12663" lon="1.91099">
        <ele>40.26</ele>
        <time>2019-03-10T09:33:48Z</time>
      </trkpt>
      <trkpt lat="49.12675" lon="1.91078">
        <ele>42.58</ele>
        <time>2019-03-10T09:34:08Z</time>
      </trkpt>
      <trkpt lat="49.12682" lon="1.91072">
        <ele>39.08</ele>
        <time>2019-03-10T09:34:14Z</time>
      </trkpt>
      <trkpt lat="49.12684" lon="1.9107">
        <ele>38.25</ele>
        <time>2019-03-10T09:34:16Z</time>
      </trkpt>
      <trkpt lat="49.12689" lon="1.91064">
        <ele>41.26</ele>
        <time>2019-03-10T09:34:20Z</time>
      </trkpt>
      <trkpt lat="49.12693" lon="1.9106">
        <ele>42.35</ele>
        <time>2019-03-10T09:34:22Z</time>
      </trkpt>
      <trkpt lat="49.12703" lon="1.9105">
        <ele>39.4</ele>
        <time>2019-03-10T09:34:34Z</time>
      </trkpt>
      <trkpt lat="49.12707" lon="1.91046">
        <ele>42.51</ele>
        <time>2019-03-10T09:34:41Z</time>
      </trkpt>
      <trkpt lat="49.12711" lon="1.91025">
        <ele>40.81</ele>
        <time>2019-03-10T09:34:59Z</time>
      </trkpt>
      <trkpt lat="49.12711" lon="1.91017">
        <ele>39.25</ele>
        <time>2019-03-10T09:35:12Z</time>
      </trkpt>
      <trkpt lat="49.12714" lon="1.91014">
        <ele>38.7</ele>
        <time>2019-03-10T09:35:38Z</time>
      </trkpt>
      <trkpt lat="49.12713" lon="1.91017">
        <ele>39.17</ele>
        <time>2019-03-10T09:35:41Z</time>
      </trkpt>
      <trkpt lat="49.12714" lon="1.91029">
        <ele>41.02</ele>
        <time>2019-03-10T09:36:06Z</time>
      </trkpt>
      <trkpt lat="49.12717" lon="1.91026">
        <ele>41.66</ele>
        <time>2019-03-10T09:36:13Z</time>
      </trkpt>
      <trkpt lat="49.12716" lon="1.91013">
        <ele>41.77</ele>
        <time>2019-03-10T09:36:38Z</time>
      </trkpt>
      <trkpt lat="49.12721" lon="1.91019">
        <ele>41.46</ele>
        <time>2019-03-10T09:37:02Z</time>
      </trkpt>
      <trkpt lat="49.12721" lon="1.91021">
        <ele>42.8</ele>
        <time>2019-03-10T09:37:26Z</time>
      </trkpt>
      <trkpt lat="49.12721" lon="1.91021">
        <ele>40.59</ele>
        <time>2019-03-10T09:37:34Z</time>
      </trkpt>
      <trkpt lat="49.12725" lon="1.91017">
        <ele>42.88</ele>
        <time>2019-03-10T09:38:00Z</time>
      </trkpt>
      <trkpt lat="49.12726" lon="1.91011">
        <ele>41.12</ele>
        <time>2019-03-10T09:38:11Z</time>
      </trkpt>
      <trkpt lat="49.12727" lon="1.91003">
        <ele>43.18</ele>
        <time>2019-03-10T09:38:30Z</time>
      </trkpt>
      <trkpt lat="49.12726" lon="1.90992">
        <ele>41.83</ele>
        <time>2019-03-10T09:38:57Z</time>
      </trkpt>
      <trkpt lat="49.12725" lon="1.90988">
        <ele>42.2</ele>
        <time>2019-03-10T09:39:15Z</time>
      </trkpt>
      <trkpt lat="49.12729" lon="1.90986">
        <ele>45.45</ele>
        <time>2019-03-10T09:39:26Z</time>
      </trkpt>
      <trkpt lat="49.12731" lon="1.90982">
        <ele>42.1</ele>
        <time>2019-03-10T09:39:34Z</time>
      </trkpt>
      <trkpt lat="49.12739" lon="1.90962">
        <ele>42.06</ele>
        <time>2019-03-10T09:39:53Z</time>
      </trkpt>
      <trkpt lat="49.12747" lon="1.90936">
        <ele>43.02</ele>
        <time>2019-03-10T09:40:10Z</time>
      </trkpt>
      <trkpt lat="49.12754" lon="1.90911">
        <ele>43.48</ele>
        <time>2019-03-10T09:40:27Z</time>
      </trkpt>
      <trkpt lat="49.12763" lon="1.90883">
        <ele>44.61</ele>
        <time>2019-03-10T09:40:43Z</time>
      </trkpt>
      <trkpt lat="49.12764" lon="1.90879">
        <ele>45.53</ele>
        <time>2019-03-10T09:40:45Z</time>
      </trkpt>
      <trkpt lat="49.12771" lon="1.90852">
        <ele>44.68</ele>
        <time>2019-03-10T09:41:03Z</time>
      </trkpt>
      <trkpt lat="49.12777" lon="1.90833">
        <ele>46.28</ele>
        <time>2019-03-10T09:41:19Z</time>
      </trkpt>
      <trkpt lat="49.12785" lon="1.9081">
        <ele>46.53</ele>
        <time>2019-03-10T09:41:39Z</time>
      </trkpt>
      <trkpt lat="49.12789" lon="1.90786">
        <ele>47.59</ele>
        <time>2019-03-10T09:41:57Z</time>
      </trkpt>
      <trkpt lat="49.12796" lon="1.90758">
        <ele>46.63</ele>
        <time>2019-03-10T09:42:16Z</time>
      </trkpt>
      <trkpt lat="49.12802" lon="1.90727">
        <ele>48.33</ele>
        <time>2019-03-10T09:42:36Z</time>
      </trkpt>
      <trkpt lat="49.12803" lon="1.90703">
        <ele>49.18</ele>
        <time>2019-03-10T09:42:56Z</time>
      </trkpt>
      <trkpt lat="49.12807" lon="1.90674">
        <ele>50.87</ele>
        <time>2019-03-10T09:43:13Z</time>
      </trkpt>
      <trkpt lat="49.12812" lon="1.9065">
        <ele>50.55</ele>
        <time>2019-03-10T09:43:31Z</time>
      </trkpt>
      <trkpt lat="49.12816" lon="1.90623">
        <ele>50.85</ele>
        <time>2019-03-10T09:43:50Z</time>
      </trkpt>
      <trkpt lat="49.1282" lon="1.90597">
        <ele>51.89</ele>
        <time>2019-03-10T09:44:08Z</time>
      </trkpt>
      <trkpt lat="49.1282" lon="1.90594">
        <ele>51.79</ele>
        <time>2019-03-10T09:44:10Z</time>
      </trkpt>
      <trkpt lat="49.12822" lon="1.90568">
        <ele>52.19</ele>
        <time>2019-03-10T09:44:27Z</time>
      </trkpt>
      <trkpt lat="49.12822" lon="1.90542">
        <ele>53.26</ele>
        <time>2019-03-10T09:44:45Z</time>
      </trkpt>
      <trkpt lat="49.12821" lon="1.9051">
        <ele>51.83</ele>
        <time>2019-03-10T09:45:06Z</time>
      </trkpt>
      <trkpt lat="49.12815" lon="1.90486">
        <ele>52.8</ele>
        <time>2019-03-10T09:45:27Z</time>
      </trkpt>
      <trkpt lat="49.12808" lon="1.90453">
        <ele>53.93</ele>
        <time>2019-03-10T09:45:45Z</time>
      </trkpt>
      <trkpt lat="49.12803" lon="1.9043">
        <ele>56.22</ele>
        <time>2019-03-10T09:46:03Z</time>
      </trkpt>
      <trkpt lat="49.12806" lon="1.90415">
        <ele>56.55</ele>
        <time>2019-03-10T09:46:14Z</time>
      </trkpt>
      <trkpt lat="49.12805" lon="1.90383">
        <ele>57.55</ele>
        <time>2019-03-10T09:46:34Z</time>
      </trkpt>
      <trkpt lat="49.12812" lon="1.90357">
        <ele>59.74</ele>
        <time>2019-03-10T09:46:55Z</time>
      </trkpt>
      <trkpt lat="49.12812" lon="1.90357">
        <ele>59.32</ele>
        <time>2019-03-10T09:47:16Z</time>
      </trkpt>
      <trkpt lat="49.1281" lon="1.90362">
        <ele>59.15</ele>
        <time>2019-03-10T09:47:38Z</time>
      </trkpt>
      <trkpt lat="49.12811" lon="1.90348">
        <ele>59.34</ele>
        <time>2019-03-10T09:47:58Z</time>
      </trkpt>
      <trkpt lat="49.12821" lon="1.90327">
        <ele>59.44</ele>
        <time>2019-03-10T09:48:21Z</time>
      </trkpt>
      <trkpt lat="49.12824" lon="1.90312">
        <ele>58.22</ele>
        <time>2019-03-10T09:48:31Z</time>
      </trkpt>
      <trkpt lat="49.12826" lon="1.90304">
        <ele>61.24</ele>
        <time>2019-03-10T09:48:37Z</time>
      </trkpt>
      <trkpt lat="49.12827" lon="1.90302">
        <ele>61.49</ele>
        <time>2019-03-10T09:48:38Z</time>
      </trkpt>
      <trkpt lat="49.12829" lon="1.90295">
        <ele>62.04</ele>
        <time>2019-03-10T09:48:44Z</time>
      </trkpt>
      <trkpt lat="49.1283" lon="1.90294">
        <ele>62.48</ele>
        <time>2019-03-10T09:49:02Z</time>
      </trkpt>
      <trkpt lat="49.1283" lon="1.90294">
        <ele>59.1</ele>
        <time>2019-03-10T09:49:11Z</time>
      </trkpt>
      <trkpt lat="49.1283" lon="1.90294">
        <ele>61.88</ele>
        <time>2019-03-10T09:49:14Z</time>
      </trkpt>
      <trkpt lat="49.1283" lon="1.90294">
        <ele>66.1</ele>
        <time>2019-03-10T09:49:26Z</time>
      </trkpt>
      <trkpt lat="49.1283" lon="1.90294">
        <ele>60.41</ele>
        <time>2019-03-10T09:49:28Z</time>
      </trkpt>
      <trkpt lat="49.1283" lon="1.90294">
        <ele>60.2</ele>
        <time>2019-03-10T09:49:29Z</time>
      </trkpt>
      <trkpt lat="49.1283" lon="1.90295">
        <ele>62.12</ele>
        <time>2019-03-10T09:49:33Z</time>
      </trkpt>
      <trkpt lat="49.1283" lon="1.90295">
        <ele>60.63</ele>
        <time>2019-03-10T09:49:37Z</time>
      </trkpt>
      <trkpt lat="49.1283" lon="1.90295">
        <ele>64.01</ele>
        <time>2019-03-10T09:49:46Z</time>
      </trkpt>
      <trkpt lat="49.1283" lon="1.90295">
        <ele>63.99</ele>
        <time>2019-03-10T09:49:47Z</time>
      </trkpt>
      <trkpt lat="49.12829" lon="1.90292">
        <ele>62.09</ele>
        <time>2019-03-10T09:50:12Z</time>
      </trkpt>
      <trkpt lat="49.12829" lon="1.90292">
        <ele>63.36</ele>
        <time>2019-03-10T09:50:14Z</time>
      </trkpt>
      <trkpt lat="49.12829" lon="1.90291">
        <ele>63.25</ele>
        <time>2019-03-10T09:50:37Z</time>
      </trkpt>
      <trkpt lat="49.12829" lon="1.90291">
        <ele>63.72</ele>
        <time>2019-03-10T09:51:05Z</time>
      </trkpt>
      <trkpt lat="49.12829" lon="1.90294">
        <ele>63.76</ele>
        <time>2019-03-10T09:51:29Z</time>
      </trkpt>
      <trkpt lat="49.12834" lon="1.9028">
        <ele>63.4</ele>
        <time>2019-03-10T09:51:48Z</time>
      </trkpt>
      <trkpt lat="49.12838" lon="1.9026">
        <ele>63.9</ele>
        <time>2019-03-10T09:52:02Z</time>
      </trkpt>
      <trkpt lat="49.1284" lon="1.90251">
        <ele>62.93</ele>
        <time>2019-03-10T09:52:08Z</time>
      </trkpt>
      <trkpt lat="49.12841" lon="1.90246">
        <ele>65.87</ele>
        <time>2019-03-10T09:52:11Z</time>
      </trkpt>
      <trkpt lat="49.12845" lon="1.90226">
        <ele>65.09</ele>
        <time>2019-03-10T09:52:25Z</time>
      </trkpt>
      <trkpt lat="49.12846" lon="1.90218">
        <ele>61.88</ele>
        <time>2019-03-10T09:52:31Z</time>
      </trkpt>
      <trkpt lat="49.12847" lon="1.90217">
        <ele>62.62</ele>
        <time>2019-03-10T09:52:32Z</time>
      </trkpt>
      <trkpt lat="49.12848" lon="1.90208">
        <ele>66.12</ele>
        <time>2019-03-10T09:52:38Z</time>
      </trkpt>
      <trkpt lat="49.1285" lon="1.90197">
        <ele>63.98</ele>
        <time>2019-03-10T09:52:46Z</time>
      </trkpt>
      <trkpt lat="49.12851" lon="1.90194">
        <ele>65.17</ele>
        <time>2019-03-10T09:52:48Z</time>
      </trkpt>
      <trkpt lat="49.12852" lon="1.90182">
        <ele>65.03</ele>
        <time>2019-03-10T09:52:55Z</time>
      </trkpt>
      <trkpt lat="49.12854" lon="1.90174">
        <ele>65.18</ele>
        <time>2019-03-10T09:53:01Z</time>
      </trkpt>
      <trkpt lat="49.12855" lon="1.90145">
        <ele>66.85</ele>
        <time>2019-03-10T09:53:17Z</time>
      </trkpt>
      <trkpt lat="49.12857" lon="1.90118">
        <ele>68.23</ele>
        <time>2019-03-10T09:53:32Z</time>
      </trkpt>
      <trkpt lat="49.12856" lon="1.90103">
        <ele>66.82</ele>
        <time>2019-03-10T09:53:41Z</time>
      </trkpt>
      <trkpt lat="49.12856" lon="1.9008">
        <ele>68.62</ele>
        <time>2019-03-10T09:53:55Z</time>
      </trkpt>
      <trkpt lat="49.12855" lon="1.90058">
        <ele>69.46</ele>
        <time>2019-03-10T09:54:11Z</time>
      </trkpt>
      <trkpt lat="49.12855" lon="1.90054">
        <ele>68.23</ele>
        <time>2019-03-10T09:54:14Z</time>
      </trkpt>
      <trkpt lat="49.12854" lon="1.90051">
        <ele>69.01</ele>
        <time>2019-03-10T09:54:16Z</time>
      </trkpt>
      <trkpt lat="49.12851" lon="1.90024">
        <ele>69.16</ele>
        <time>2019-03-10T09:54:29Z</time>
      </trkpt>
      <trkpt lat="49.12848" lon="1.90003">
        <ele>69.62</ele>
        <time>2019-03-10T09:54:44Z</time>
      </trkpt>
      <trkpt lat="49.12847" lon="1.89988">
        <ele>69.01</ele>
        <time>2019-03-10T09:54:54Z</time>
      </trkpt>
      <trkpt lat="49.12841" lon="1.8996">
        <ele>70.33</ele>
        <time>2019-03-10T09:55:11Z</time>
      </trkpt>
      <trkpt lat="49.12835" lon="1.89931">
        <ele>70.11</ele>
        <time>2019-03-10T09:55:27Z</time>
      </trkpt>
      <trkpt lat="49.12834" lon="1.89926">
        <ele>71.36</ele>
        <time>2019-03-10T09:55:30Z</time>
      </trkpt>
      <trkpt lat="49.12827" lon="1.89896">
        <ele>71.64</ele>
        <time>2019-03-10T09:55:48Z</time>
      </trkpt>
      <trkpt lat="49.1282" lon="1.8987">
        <ele>71.44</ele>
        <time>2019-03-10T09:56:04Z</time>
      </trkpt>
      <trkpt lat="49.12816" lon="1.89852">
        <ele>71.54</ele>
        <time>2019-03-10T09:56:16Z</time>
      </trkpt>
      <trkpt lat="49.12812" lon="1.89836">
        <ele>71.92</ele>
        <time>2019-03-10T09:56:27Z</time>
      </trkpt>
      <trkpt lat="49.12806" lon="1.89813">
        <ele>72.23</ele>
        <time>2019-03-10T09:56:43Z</time>
      </trkpt>
      <trkpt lat="49.12799" lon="1.89788">
        <ele>72.49</ele>
        <time>2019-03-10T09:57:01Z</time>
      </trkpt>
      <trkpt lat="49.12798" lon="1.89786">
        <ele>72.94</ele>
        <time>2019-03-10T09:57:03Z</time>
      </trkpt>
      <trkpt lat="49.12795" lon="1.89771">
        <ele>72.51</ele>
        <time>2019-03-10T09:57:12Z</time>
      </trkpt>
      <trkpt lat="49.12793" lon="1.89763">
        <ele>73.09</ele>
        <time>2019-03-10T09:57:17Z</time>
      </trkpt>
      <trkpt lat="49.12791" lon="1.89756">
        <ele>73.9</ele>
        <time>2019-03-10T09:57:21Z</time>
      </trkpt>
      <trkpt lat="49.12788" lon="1.89745">
        <ele>74.16</ele>
        <time>2019-03-10T09:57:28Z</time>
      </trkpt>
      <trkpt lat="49.1278" lon="1.89715">
        <ele>74.94</ele>
        <time>2019-03-10T09:57:47Z</time>
      </trkpt>
      <trkpt lat="49.12775" lon="1.89693">
        <ele>75.55</ele>
        <time>2019-03-10T09:58:03Z</time>
      </trkpt>
      <trkpt lat="49.12774" lon="1.89684">
        <ele>74</ele>
        <time>2019-03-10T09:58:11Z</time>
      </trkpt>
      <trkpt lat="49.12773" lon="1.8968">
        <ele>75.41</ele>
        <time>2019-03-10T09:58:15Z</time>
      </trkpt>
      <trkpt lat="49.12769" lon="1.89664">
        <ele>77.45</ele>
        <time>2019-03-10T09:58:30Z</time>
      </trkpt>
      <trkpt lat="49.12769" lon="1.89661">
        <ele>77.16</ele>
        <time>2019-03-10T09:58:32Z</time>
      </trkpt>
      <trkpt lat="49.12765" lon="1.89645">
        <ele>77.06</ele>
        <time>2019-03-10T09:58:39Z</time>
      </trkpt>
      <trkpt lat="49.12761" lon="1.89629">
        <ele>76.87</ele>
        <time>2019-03-10T09:58:47Z</time>
      </trkpt>
      <trkpt lat="49.12755" lon="1.89606">
        <ele>76.54</ele>
        <time>2019-03-10T09:59:02Z</time>
      </trkpt>
      <trkpt lat="49.12749" lon="1.89577">
        <ele>75.67</ele>
        <time>2019-03-10T09:59:22Z</time>
      </trkpt>
      <trkpt lat="49.12748" lon="1.89562">
        <ele>78.55</ele>
        <time>2019-03-10T09:59:34Z</time>
      </trkpt>
      <trkpt lat="49.12744" lon="1.89541">
        <ele>79.93</ele>
        <time>2019-03-10T09:59:50Z</time>
      </trkpt>
      <trkpt lat="49.12738" lon="1.89511">
        <ele>78.11</ele>
        <time>2019-03-10T10:00:09Z</time>
      </trkpt>
      <trkpt lat="49.12738" lon="1.8951">
        <ele>77.85</ele>
        <time>2019-03-10T10:00:10Z</time>
      </trkpt>
      <trkpt lat="49.12729" lon="1.89484">
        <ele>78.32</ele>
        <time>2019-03-10T10:00:22Z</time>
      </trkpt>
      <trkpt lat="49.12727" lon="1.89449">
        <ele>78.72</ele>
        <time>2019-03-10T10:00:43Z</time>
      </trkpt>
      <trkpt lat="49.12726" lon="1.89444">
        <ele>80.8</ele>
        <time>2019-03-10T10:00:47Z</time>
      </trkpt>
      <trkpt lat="49.12725" lon="1.89434">
        <ele>79.47</ele>
        <time>2019-03-10T10:00:54Z</time>
      </trkpt>
      <trkpt lat="49.12719" lon="1.89413">
        <ele>81.11</ele>
        <time>2019-03-10T10:01:13Z</time>
      </trkpt>
      <trkpt lat="49.12714" lon="1.89394">
        <ele>80.74</ele>
        <time>2019-03-10T10:01:26Z</time>
      </trkpt>
      <trkpt lat="49.12711" lon="1.89379">
        <ele>80.72</ele>
        <time>2019-03-10T10:01:35Z</time>
      </trkpt>
      <trkpt lat="49.12707" lon="1.89365">
        <ele>81.33</ele>
        <time>2019-03-10T10:01:42Z</time>
      </trkpt>
      <trkpt lat="49.127" lon="1.8934">
        <ele>79.92</ele>
        <time>2019-03-10T10:02:01Z</time>
      </trkpt>
      <trkpt lat="49.12695" lon="1.8931">
        <ele>80.88</ele>
        <time>2019-03-10T10:02:22Z</time>
      </trkpt>
      <trkpt lat="49.1269" lon="1.89294">
        <ele>80.13</ele>
        <time>2019-03-10T10:02:35Z</time>
      </trkpt>
      <trkpt lat="49.12681" lon="1.89271">
        <ele>81.63</ele>
        <time>2019-03-10T10:02:51Z</time>
      </trkpt>
      <trkpt lat="49.12679" lon="1.89265">
        <ele>81.18</ele>
        <time>2019-03-10T10:02:55Z</time>
      </trkpt>
      <trkpt lat="49.12672" lon="1.89241">
        <ele>82.34</ele>
        <time>2019-03-10T10:03:09Z</time>
      </trkpt>
      <trkpt lat="49.1267" lon="1.89235">
        <ele>83.89</ele>
        <time>2019-03-10T10:03:13Z</time>
      </trkpt>
      <trkpt lat="49.12668" lon="1.89227">
        <ele>82.31</ele>
        <time>2019-03-10T10:03:18Z</time>
      </trkpt>
      <trkpt lat="49.12661" lon="1.89204">
        <ele>85.11</ele>
        <time>2019-03-10T10:03:33Z</time>
      </trkpt>
      <trkpt lat="49.12656" lon="1.89186">
        <ele>85.12</ele>
        <time>2019-03-10T10:03:47Z</time>
      </trkpt>
      <trkpt lat="49.12652" lon="1.89163">
        <ele>85.64</ele>
        <time>2019-03-10T10:04:06Z</time>
      </trkpt>
      <trkpt lat="49.12652" lon="1.89159">
        <ele>87.63</ele>
        <time>2019-03-10T10:04:18Z</time>
      </trkpt>
      <trkpt lat="49.12652" lon="1.89158">
        <ele>85.18</ele>
        <time>2019-03-10T10:04:21Z</time>
      </trkpt>
      <trkpt lat="49.12648" lon="1.89151">
        <ele>86.44</ele>
        <time>2019-03-10T10:04:45Z</time>
      </trkpt>
      <trkpt lat="49.12647" lon="1.8915">
        <ele>85.82</ele>
        <time>2019-03-10T10:04:47Z</time>
      </trkpt>
      <trkpt lat="49.12642" lon="1.89128">
        <ele>85.97</ele>
        <time>2019-03-10T10:05:05Z</time>
      </trkpt>
      <trkpt lat="49.12641" lon="1.89123">
        <ele>84.66</ele>
        <time>2019-03-10T10:05:09Z</time>
      </trkpt>
      <trkpt lat="49.12638" lon="1.89121">
        <ele>85.32</ele>
        <time>2019-03-10T10:05:23Z</time>
      </trkpt>
      <trkpt lat="49.12627" lon="1.8913">
        <ele>84.52</ele>
        <time>2019-03-10T10:05:43Z</time>
      </trkpt>
      <trkpt lat="49.12619" lon="1.89134">
        <ele>83.23</ele>
        <time>2019-03-10T10:06:03Z</time>
      </trkpt>
      <trkpt lat="49.1261" lon="1.89143">
        <ele>85.91</ele>
        <time>2019-03-10T10:06:15Z</time>
      </trkpt>
      <trkpt lat="49.12595" lon="1.89146">
        <ele>84.6</ele>
        <time>2019-03-10T10:06:31Z</time>
      </trkpt>
      <trkpt lat="49.12588" lon="1.89155">
        <ele>82.44</ele>
        <time>2019-03-10T10:06:42Z</time>
      </trkpt>
      <trkpt lat="49.12586" lon="1.89157">
        <ele>82.93</ele>
        <time>2019-03-10T10:06:44Z</time>
      </trkpt>
      <trkpt lat="49.12583" lon="1.89159">
        <ele>83.59</ele>
        <time>2019-03-10T10:06:46Z</time>
      </trkpt>
      <trkpt lat="49.12579" lon="1.89162">
        <ele>82.91</ele>
        <time>2019-03-10T10:06:51Z</time>
      </trkpt>
      <trkpt lat="49.12571" lon="1.89166">
        <ele>86.04</ele>
        <time>2019-03-10T10:07:01Z</time>
      </trkpt>
      <trkpt lat="49.1257" lon="1.89166">
        <ele>85.1</ele>
        <time>2019-03-10T10:07:03Z</time>
      </trkpt>
      <trkpt lat="49.12569" lon="1.89167">
        <ele>84.23</ele>
        <time>2019-03-10T10:07:04Z</time>
      </trkpt>
      <trkpt lat="49.12566" lon="1.8917">
        <ele>82.4</ele>
        <time>2019-03-10T10:07:08Z</time>
      </trkpt>
      <trkpt lat="49.12557" lon="1.89174">
        <ele>82.83</ele>
        <time>2019-03-10T10:07:17Z</time>
      </trkpt>
      <trkpt lat="49.12556" lon="1.89177">
        <ele>84.06</ele>
        <time>2019-03-10T10:07:20Z</time>
      </trkpt>
      <trkpt lat="49.12545" lon="1.89186">
        <ele>85.77</ele>
        <time>2019-03-10T10:07:32Z</time>
      </trkpt>
      <trkpt lat="49.12539" lon="1.8919">
        <ele>84.8</ele>
        <time>2019-03-10T10:07:40Z</time>
      </trkpt>
      <trkpt lat="49.12527" lon="1.89191">
        <ele>81.6</ele>
        <time>2019-03-10T10:07:53Z</time>
      </trkpt>
      <trkpt lat="49.12516" lon="1.89194">
        <ele>83.42</ele>
        <time>2019-03-10T10:08:03Z</time>
      </trkpt>
      <trkpt lat="49.12493" lon="1.89194">
        <ele>83.01</ele>
        <time>2019-03-10T10:08:24Z</time>
      </trkpt>
      <trkpt lat="49.12485" lon="1.89196">
        <ele>83.27</ele>
        <time>2019-03-10T10:08:33Z</time>
      </trkpt>
      <trkpt lat="49.12471" lon="1.89198">
        <ele>83.51</ele>
        <time>2019-03-10T10:08:47Z</time>
      </trkpt>
      <trkpt lat="49.12469" lon="1.89198">
        <ele>82.87</ele>
        <time>2019-03-10T10:08:49Z</time>
      </trkpt>
      <trkpt lat="49.12467" lon="1.89198">
        <ele>84.48</ele>
        <time>2019-03-10T10:08:51Z</time>
      </trkpt>
      <trkpt lat="49.12465" lon="1.89199">
        <ele>83</ele>
        <time>2019-03-10T10:08:53Z</time>
      </trkpt>
      <trkpt lat="49.12449" lon="1.89198">
        <ele>82.45</ele>
        <time>2019-03-10T10:09:12Z</time>
      </trkpt>
      <trkpt lat="49.12441" lon="1.89196">
        <ele>82.15</ele>
        <time>2019-03-10T10:09:26Z</time>
      </trkpt>
      <trkpt lat="49.12436" lon="1.89198">
        <ele>83.03</ele>
        <time>2019-03-10T10:09:31Z</time>
      </trkpt>
      <trkpt lat="49.12435" lon="1.89198">
        <ele>81.96</ele>
        <time>2019-03-10T10:09:33Z</time>
      </trkpt>
      <trkpt lat="49.12433" lon="1.892">
        <ele>77.7</ele>
        <time>2019-03-10T10:09:35Z</time>
      </trkpt>
      <trkpt lat="49.12432" lon="1.892">
        <ele>79.31</ele>
        <time>2019-03-10T10:09:36Z</time>
      </trkpt>
      <trkpt lat="49.12431" lon="1.89202">
        <ele>82.59</ele>
        <time>2019-03-10T10:09:38Z</time>
      </trkpt>
      <trkpt lat="49.12428" lon="1.89202">
        <ele>83.96</ele>
        <time>2019-03-10T10:09:41Z</time>
      </trkpt>
      <trkpt lat="49.12418" lon="1.89206">
        <ele>85.48</ele>
        <time>2019-03-10T10:09:51Z</time>
      </trkpt>
      <trkpt lat="49.12416" lon="1.89208">
        <ele>85.33</ele>
        <time>2019-03-10T10:09:58Z</time>
      </trkpt>
      <trkpt lat="49.12415" lon="1.89207">
        <ele>88.81</ele>
        <time>2019-03-10T10:10:11Z</time>
      </trkpt>
      <trkpt lat="49.12415" lon="1.89207">
        <ele>89.12</ele>
        <time>2019-03-10T10:10:12Z</time>
      </trkpt>
      <trkpt lat="49.12414" lon="1.89206">
        <ele>82.89</ele>
        <time>2019-03-10T10:10:14Z</time>
      </trkpt>
      <trkpt lat="49.12413" lon="1.89205">
        <ele>84.89</ele>
        <time>2019-03-10T10:10:15Z</time>
      </trkpt>
      <trkpt lat="49.12412" lon="1.89204">
        <ele>84.81</ele>
        <time>2019-03-10T10:10:16Z</time>
      </trkpt>
      <trkpt lat="49.12409" lon="1.89204">
        <ele>86.3</ele>
        <time>2019-03-10T10:10:18Z</time>
      </trkpt>
      <trkpt lat="49.12406" lon="1.89205">
        <ele>81.51</ele>
        <time>2019-03-10T10:10:21Z</time>
      </trkpt>
      <trkpt lat="49.12399" lon="1.89204">
        <ele>87.03</ele>
        <time>2019-03-10T10:10:26Z</time>
      </trkpt>
      <trkpt lat="49.12398" lon="1.89204">
        <ele>87.08</ele>
        <time>2019-03-10T10:10:27Z</time>
      </trkpt>
      <trkpt lat="49.12395" lon="1.89205">
        <ele>82.34</ele>
        <time>2019-03-10T10:10:29Z</time>
      </trkpt>
      <trkpt lat="49.12394" lon="1.89206">
        <ele>86.98</ele>
        <time>2019-03-10T10:10:31Z</time>
      </trkpt>
      <trkpt lat="49.12393" lon="1.89206">
        <ele>87.06</ele>
        <time>2019-03-10T10:10:32Z</time>
      </trkpt>
      <trkpt lat="49.12386" lon="1.89209">
        <ele>88.18</ele>
        <time>2019-03-10T10:10:38Z</time>
      </trkpt>
      <trkpt lat="49.12379" lon="1.89207">
        <ele>86.32</ele>
        <time>2019-03-10T10:10:43Z</time>
      </trkpt>
      <trkpt lat="49.12372" lon="1.89207">
        <ele>90.06</ele>
        <time>2019-03-10T10:10:48Z</time>
      </trkpt>
      <trkpt lat="49.12371" lon="1.89207">
        <ele>88.09</ele>
        <time>2019-03-10T10:10:49Z</time>
      </trkpt>
      <trkpt lat="49.12369" lon="1.89208">
        <ele>88.11</ele>
        <time>2019-03-10T10:10:50Z</time>
      </trkpt>
      <trkpt lat="49.1236" lon="1.89207">
        <ele>94.97</ele>
        <time>2019-03-10T10:10:58Z</time>
      </trkpt>
      <trkpt lat="49.12359" lon="1.89207">
        <ele>92.03</ele>
        <time>2019-03-10T10:10:59Z</time>
      </trkpt>
      <trkpt lat="49.12353" lon="1.89208">
        <ele>90.89</ele>
        <time>2019-03-10T10:11:04Z</time>
      </trkpt>
      <trkpt lat="49.12348" lon="1.89207">
        <ele>88.43</ele>
        <time>2019-03-10T10:11:08Z</time>
      </trkpt>
      <trkpt lat="49.12338" lon="1.89207">
        <ele>89.5</ele>
        <time>2019-03-10T10:11:17Z</time>
      </trkpt>
      <trkpt lat="49.12325" lon="1.89209">
        <ele>87.73</ele>
        <time>2019-03-10T10:11:26Z</time>
      </trkpt>
      <trkpt lat="49.12318" lon="1.8921">
        <ele>86.68</ele>
        <time>2019-03-10T10:11:31Z</time>
      </trkpt>
      <trkpt lat="49.12309" lon="1.892">
        <ele>89.18</ele>
        <time>2019-03-10T10:11:41Z</time>
      </trkpt>
      <trkpt lat="49.12307" lon="1.89198">
        <ele>90.2</ele>
        <time>2019-03-10T10:11:45Z</time>
      </trkpt>
      <trkpt lat="49.12305" lon="1.89197">
        <ele>88.27</ele>
        <time>2019-03-10T10:11:47Z</time>
      </trkpt>
      <trkpt lat="49.12298" lon="1.89195">
        <ele>88.17</ele>
        <time>2019-03-10T10:11:55Z</time>
      </trkpt>
      <trkpt lat="49.12296" lon="1.89194">
        <ele>87.34</ele>
        <time>2019-03-10T10:11:57Z</time>
      </trkpt>
      <trkpt lat="49.1229" lon="1.89189">
        <ele>87.44</ele>
        <time>2019-03-10T10:12:03Z</time>
      </trkpt>
      <trkpt lat="49.12286" lon="1.89187">
        <ele>90.02</ele>
        <time>2019-03-10T10:12:07Z</time>
      </trkpt>
      <trkpt lat="49.12281" lon="1.89186">
        <ele>89.88</ele>
        <time>2019-03-10T10:12:11Z</time>
      </trkpt>
      <trkpt lat="49.12279" lon="1.89185">
        <ele>94.37</ele>
        <time>2019-03-10T10:12:14Z</time>
      </trkpt>
      <trkpt lat="49.12276" lon="1.89183">
        <ele>89.63</ele>
        <time>2019-03-10T10:12:18Z</time>
      </trkpt>
      <trkpt lat="49.12275" lon="1.89183">
        <ele>92.94</ele>
        <time>2019-03-10T10:12:19Z</time>
      </trkpt>
      <trkpt lat="49.12274" lon="1.89182">
        <ele>88.7</ele>
        <time>2019-03-10T10:12:21Z</time>
      </trkpt>
      <trkpt lat="49.12274" lon="1.89182">
        <ele>91.71</ele>
        <time>2019-03-10T10:12:22Z</time>
      </trkpt>
      <trkpt lat="49.12272" lon="1.89182">
        <ele>93.96</ele>
        <time>2019-03-10T10:12:24Z</time>
      </trkpt>
      <trkpt lat="49.12271" lon="1.89181">
        <ele>89.86</ele>
        <time>2019-03-10T10:12:25Z</time>
      </trkpt>
      <trkpt lat="49.12271" lon="1.89181">
        <ele>91.11</ele>
        <time>2019-03-10T10:12:26Z</time>
      </trkpt>
      <trkpt lat="49.12269" lon="1.89181">
        <ele>92.88</ele>
        <time>2019-03-10T10:12:28Z</time>
      </trkpt>
      <trkpt lat="49.12266" lon="1.89181">
        <ele>90.91</ele>
        <time>2019-03-10T10:12:33Z</time>
      </trkpt>
      <trkpt lat="49.12263" lon="1.8918">
        <ele>87.17</ele>
        <time>2019-03-10T10:12:38Z</time>
      </trkpt>
      <trkpt lat="49.12262" lon="1.8918">
        <ele>88.88</ele>
        <time>2019-03-10T10:12:39Z</time>
      </trkpt>
      <trkpt lat="49.12261" lon="1.89179">
        <ele>88.05</ele>
        <time>2019-03-10T10:12:40Z</time>
      </trkpt>
      <trkpt lat="49.12255" lon="1.89177">
        <ele>92.14</ele>
        <time>2019-03-10T10:12:47Z</time>
      </trkpt>
      <trkpt lat="49.12239" lon="1.89172">
        <ele>89.53</ele>
        <time>2019-03-10T10:13:02Z</time>
      </trkpt>
      <trkpt lat="49.12231" lon="1.8917">
        <ele>87.36</ele>
        <time>2019-03-10T10:13:09Z</time>
      </trkpt>
      <trkpt lat="49.12229" lon="1.89169">
        <ele>90.8</ele>
        <time>2019-03-10T10:13:10Z</time>
      </trkpt>
      <trkpt lat="49.12228" lon="1.89169">
        <ele>88.93</ele>
        <time>2019-03-10T10:13:11Z</time>
      </trkpt>
      <trkpt lat="49.12216" lon="1.89166">
        <ele>88.73</ele>
        <time>2019-03-10T10:13:22Z</time>
      </trkpt>
      <trkpt lat="49.12211" lon="1.89166">
        <ele>89.48</ele>
        <time>2019-03-10T10:13:26Z</time>
      </trkpt>
      <trkpt lat="49.12201" lon="1.89163">
        <ele>88.68</ele>
        <time>2019-03-10T10:13:35Z</time>
      </trkpt>
      <trkpt lat="49.1218" lon="1.89159">
        <ele>88.48</ele>
        <time>2019-03-10T10:13:53Z</time>
      </trkpt>
      <trkpt lat="49.12177" lon="1.89159">
        <ele>87.17</ele>
        <time>2019-03-10T10:13:56Z</time>
      </trkpt>
      <trkpt lat="49.12172" lon="1.89158">
        <ele>82.76</ele>
        <time>2019-03-10T10:14:00Z</time>
      </trkpt>
      <trkpt lat="49.12169" lon="1.89157">
        <ele>87.78</ele>
        <time>2019-03-10T10:14:03Z</time>
      </trkpt>
      <trkpt lat="49.12166" lon="1.89155">
        <ele>85.63</ele>
        <time>2019-03-10T10:14:06Z</time>
      </trkpt>
      <trkpt lat="49.12165" lon="1.89155">
        <ele>88.65</ele>
        <time>2019-03-10T10:14:07Z</time>
      </trkpt>
      <trkpt lat="49.12163" lon="1.89155">
        <ele>88.87</ele>
        <time>2019-03-10T10:14:08Z</time>
      </trkpt>
      <trkpt lat="49.12161" lon="1.89154">
        <ele>85.83</ele>
        <time>2019-03-10T10:14:10Z</time>
      </trkpt>
      <trkpt lat="49.12156" lon="1.89152">
        <ele>90.17</ele>
        <time>2019-03-10T10:14:15Z</time>
      </trkpt>
      <trkpt lat="49.12155" lon="1.89152">
        <ele>90.12</ele>
        <time>2019-03-10T10:14:16Z</time>
      </trkpt>
      <trkpt lat="49.12151" lon="1.89151">
        <ele>88.51</ele>
        <time>2019-03-10T10:14:19Z</time>
      </trkpt>
      <trkpt lat="49.12148" lon="1.89151">
        <ele>86.27</ele>
        <time>2019-03-10T10:14:22Z</time>
      </trkpt>
      <trkpt lat="49.12143" lon="1.89149">
        <ele>89.16</ele>
        <time>2019-03-10T10:14:26Z</time>
      </trkpt>
      <trkpt lat="49.12126" lon="1.89145">
        <ele>89.67</ele>
        <time>2019-03-10T10:14:41Z</time>
      </trkpt>
      <trkpt lat="49.12118" lon="1.89144">
        <ele>89.2</ele>
        <time>2019-03-10T10:14:48Z</time>
      </trkpt>
      <trkpt lat="49.12116" lon="1.89143">
        <ele>88.61</ele>
        <time>2019-03-10T10:14:50Z</time>
      </trkpt>
      <trkpt lat="49.12111" lon="1.89142">
        <ele>90.5</ele>
        <time>2019-03-10T10:14:54Z</time>
      </trkpt>
      <trkpt lat="49.1211" lon="1.89142">
        <ele>90.78</ele>
        <time>2019-03-10T10:14:55Z</time>
      </trkpt>
      <trkpt lat="49.12106" lon="1.89141">
        <ele>86.44</ele>
        <time>2019-03-10T10:15:00Z</time>
      </trkpt>
      <trkpt lat="49.12099" lon="1.89139">
        <ele>89.63</ele>
        <time>2019-03-10T10:15:07Z</time>
      </trkpt>
      <trkpt lat="49.12087" lon="1.89137">
        <ele>86.27</ele>
        <time>2019-03-10T10:15:16Z</time>
      </trkpt>
      <trkpt lat="49.12085" lon="1.89137">
        <ele>89.97</ele>
        <time>2019-03-10T10:15:18Z</time>
      </trkpt>
      <trkpt lat="49.12084" lon="1.89136">
        <ele>89.38</ele>
        <time>2019-03-10T10:15:19Z</time>
      </trkpt>
      <trkpt lat="49.12072" lon="1.89134">
        <ele>87.73</ele>
        <time>2019-03-10T10:15:29Z</time>
      </trkpt>
      <trkpt lat="49.1207" lon="1.89134">
        <ele>91.71</ele>
        <time>2019-03-10T10:15:31Z</time>
      </trkpt>
      <trkpt lat="49.12069" lon="1.89133">
        <ele>90.62</ele>
        <time>2019-03-10T10:15:32Z</time>
      </trkpt>
      <trkpt lat="49.12067" lon="1.89132">
        <ele>88.52</ele>
        <time>2019-03-10T10:15:34Z</time>
      </trkpt>
      <trkpt lat="49.12064" lon="1.89132">
        <ele>90.84</ele>
        <time>2019-03-10T10:15:37Z</time>
      </trkpt>
      <trkpt lat="49.12052" lon="1.8913">
        <ele>86.62</ele>
        <time>2019-03-10T10:15:48Z</time>
      </trkpt>
      <trkpt lat="49.12051" lon="1.89129">
        <ele>89.73</ele>
        <time>2019-03-10T10:15:49Z</time>
      </trkpt>
      <trkpt lat="49.12033" lon="1.89125">
        <ele>89.18</ele>
        <time>2019-03-10T10:16:04Z</time>
      </trkpt>
      <trkpt lat="49.12029" lon="1.89125">
        <ele>90.48</ele>
        <time>2019-03-10T10:16:07Z</time>
      </trkpt>
      <trkpt lat="49.12022" lon="1.89122">
        <ele>91.12</ele>
        <time>2019-03-10T10:16:14Z</time>
      </trkpt>
      <trkpt lat="49.12006" lon="1.8912">
        <ele>92.11</ele>
        <time>2019-03-10T10:16:28Z</time>
      </trkpt>
      <trkpt lat="49.11998" lon="1.89117">
        <ele>91.01</ele>
        <time>2019-03-10T10:16:34Z</time>
      </trkpt>
      <trkpt lat="49.11993" lon="1.89116">
        <ele>92.24</ele>
        <time>2019-03-10T10:16:39Z</time>
      </trkpt>
      <trkpt lat="49.11988" lon="1.89114">
        <ele>92.62</ele>
        <time>2019-03-10T10:16:43Z</time>
      </trkpt>
      <trkpt lat="49.11986" lon="1.89114">
        <ele>91.26</ele>
        <time>2019-03-10T10:16:45Z</time>
      </trkpt>
      <trkpt lat="49.11983" lon="1.89112">
        <ele>87.35</ele>
        <time>2019-03-10T10:16:48Z</time>
      </trkpt>
      <trkpt lat="49.1198" lon="1.89111">
        <ele>90.91</ele>
        <time>2019-03-10T10:16:50Z</time>
      </trkpt>
      <trkpt lat="49.11964" lon="1.89101">
        <ele>90.26</ele>
        <time>2019-03-10T10:17:06Z</time>
      </trkpt>
      <trkpt lat="49.11959" lon="1.89099">
        <ele>88.43</ele>
        <time>2019-03-10T10:17:11Z</time>
      </trkpt>
      <trkpt lat="49.11951" lon="1.89093">
        <ele>87.5</ele>
        <time>2019-03-10T10:17:19Z</time>
      </trkpt>
      <trkpt lat="49.11947" lon="1.89089">
        <ele>91.06</ele>
        <time>2019-03-10T10:17:23Z</time>
      </trkpt>
      <trkpt lat="49.11944" lon="1.89087">
        <ele>88.85</ele>
        <time>2019-03-10T10:17:26Z</time>
      </trkpt>
      <trkpt lat="49.11926" lon="1.8907">
        <ele>88.26</ele>
        <time>2019-03-10T10:17:45Z</time>
      </trkpt>
      <trkpt lat="49.11924" lon="1.89068">
        <ele>90.36</ele>
        <time>2019-03-10T10:17:47Z</time>
      </trkpt>
      <trkpt lat="49.11917" lon="1.8906">
        <ele>89.77</ele>
        <time>2019-03-10T10:17:55Z</time>
      </trkpt>
      <trkpt lat="49.11915" lon="1.89057">
        <ele>98.2</ele>
        <time>2019-03-10T10:17:58Z</time>
      </trkpt>
      <trkpt lat="49.11915" lon="1.89057">
        <ele>97.44</ele>
        <time>2019-03-10T10:17:59Z</time>
      </trkpt>
      <trkpt lat="49.11913" lon="1.89054">
        <ele>94.3</ele>
        <time>2019-03-10T10:18:04Z</time>
      </trkpt>
      <trkpt lat="49.11911" lon="1.89053">
        <ele>94.05</ele>
        <time>2019-03-10T10:18:06Z</time>
      </trkpt>
      <trkpt lat="49.1191" lon="1.89051">
        <ele>91.4</ele>
        <time>2019-03-10T10:18:08Z</time>
      </trkpt>
      <trkpt lat="49.11904" lon="1.89044">
        <ele>85.81</ele>
        <time>2019-03-10T10:18:14Z</time>
      </trkpt>
      <trkpt lat="49.11903" lon="1.89043">
        <ele>89.57</ele>
        <time>2019-03-10T10:18:15Z</time>
      </trkpt>
      <trkpt lat="49.11897" lon="1.89037">
        <ele>89.08</ele>
        <time>2019-03-10T10:18:21Z</time>
      </trkpt>
      <trkpt lat="49.11896" lon="1.89036">
        <ele>92.84</ele>
        <time>2019-03-10T10:18:22Z</time>
      </trkpt>
      <trkpt lat="49.11889" lon="1.89027">
        <ele>93.54</ele>
        <time>2019-03-10T10:18:30Z</time>
      </trkpt>
      <trkpt lat="49.11885" lon="1.89022">
        <ele>92.81</ele>
        <time>2019-03-10T10:18:34Z</time>
      </trkpt>
      <trkpt lat="49.11876" lon="1.89011">
        <ele>88.67</ele>
        <time>2019-03-10T10:18:44Z</time>
      </trkpt>
      <trkpt lat="49.11876" lon="1.8901">
        <ele>88.58</ele>
        <time>2019-03-10T10:18:45Z</time>
      </trkpt>
      <trkpt lat="49.11873" lon="1.89007">
        <ele>93.32</ele>
        <time>2019-03-10T10:18:48Z</time>
      </trkpt>
      <trkpt lat="49.11871" lon="1.89005">
        <ele>94.31</ele>
        <time>2019-03-10T10:18:50Z</time>
      </trkpt>
      <trkpt lat="49.11867" lon="1.88998">
        <ele>87.59</ele>
        <time>2019-03-10T10:18:56Z</time>
      </trkpt>
      <trkpt lat="49.11863" lon="1.88994">
        <ele>97.79</ele>
        <time>2019-03-10T10:19:00Z</time>
      </trkpt>
      <trkpt lat="49.11862" lon="1.88993">
        <ele>96.02</ele>
        <time>2019-03-10T10:19:01Z</time>
      </trkpt>
      <trkpt lat="49.11861" lon="1.88992">
        <ele>87.09</ele>
        <time>2019-03-10T10:19:02Z</time>
      </trkpt>
      <trkpt lat="49.1186" lon="1.88991">
        <ele>90.31</ele>
        <time>2019-03-10T10:19:03Z</time>
      </trkpt>
      <trkpt lat="49.11852" lon="1.8898">
        <ele>90.81</ele>
        <time>2019-03-10T10:19:12Z</time>
      </trkpt>
      <trkpt lat="49.11848" lon="1.88977">
        <ele>92.77</ele>
        <time>2019-03-10T10:19:16Z</time>
      </trkpt>
      <trkpt lat="49.11834" lon="1.88959">
        <ele>92.76</ele>
        <time>2019-03-10T10:19:32Z</time>
      </trkpt>
      <trkpt lat="49.11832" lon="1.88958">
        <ele>90.76</ele>
        <time>2019-03-10T10:19:34Z</time>
      </trkpt>
      <trkpt lat="49.11831" lon="1.88957">
        <ele>90.85</ele>
        <time>2019-03-10T10:19:35Z</time>
      </trkpt>
      <trkpt lat="49.11824" lon="1.88948">
        <ele>93.9</ele>
        <time>2019-03-10T10:19:43Z</time>
      </trkpt>
      <trkpt lat="49.11818" lon="1.8894">
        <ele>89.18</ele>
        <time>2019-03-10T10:19:51Z</time>
      </trkpt>
      <trkpt lat="49.11815" lon="1.88937">
        <ele>90.34</ele>
        <time>2019-03-10T10:19:55Z</time>
      </trkpt>
      <trkpt lat="49.11814" lon="1.88937">
        <ele>102.09</ele>
        <time>2019-03-10T10:19:57Z</time>
      </trkpt>
      <trkpt lat="49.11814" lon="1.88937">
        <ele>102.03</ele>
        <time>2019-03-10T10:19:58Z</time>
      </trkpt>
      <trkpt lat="49.11813" lon="1.88939">
        <ele>102.92</ele>
        <time>2019-03-10T10:20:05Z</time>
      </trkpt>
      <trkpt lat="49.11812" lon="1.88943">
        <ele>97.37</ele>
        <time>2019-03-10T10:20:07Z</time>
      </trkpt>
      <trkpt lat="49.11812" lon="1.88946">
        <ele>96.55</ele>
        <time>2019-03-10T10:20:19Z</time>
      </trkpt>
      <trkpt lat="49.11812" lon="1.88947">
        <ele>99.96</ele>
        <time>2019-03-10T10:20:21Z</time>
      </trkpt>
      <trkpt lat="49.11812" lon="1.88947">
        <ele>98.93</ele>
        <time>2019-03-10T10:20:22Z</time>
      </trkpt>
      <trkpt lat="49.11812" lon="1.88946">
        <ele>98.16</ele>
        <time>2019-03-10T10:20:24Z</time>
      </trkpt>
      <trkpt lat="49.11811" lon="1.88947">
        <ele>99.33</ele>
        <time>2019-03-10T10:20:45Z</time>
      </trkpt>
      <trkpt lat="49.1181" lon="1.88951">
        <ele>95.91</ele>
        <time>2019-03-10T10:20:48Z</time>
      </trkpt>
      <trkpt lat="49.1181" lon="1.88952">
        <ele>95.76</ele>
        <time>2019-03-10T10:20:49Z</time>
      </trkpt>
      <trkpt lat="49.11807" lon="1.88961">
        <ele>97.08</ele>
        <time>2019-03-10T10:20:54Z</time>
      </trkpt>
      <trkpt lat="49.118" lon="1.88981">
        <ele>94.4</ele>
        <time>2019-03-10T10:21:03Z</time>
      </trkpt>
      <trkpt lat="49.11795" lon="1.88997">
        <ele>96.63</ele>
        <time>2019-03-10T10:21:07Z</time>
      </trkpt>
      <trkpt lat="49.11792" lon="1.89004">
        <ele>95.22</ele>
        <time>2019-03-10T10:21:09Z</time>
      </trkpt>
      <trkpt lat="49.11788" lon="1.89015">
        <ele>91.48</ele>
        <time>2019-03-10T10:21:16Z</time>
      </trkpt>
      <trkpt lat="49.11787" lon="1.89015">
        <ele>88.36</ele>
        <time>2019-03-10T10:21:17Z</time>
      </trkpt>
      <trkpt lat="49.11787" lon="1.89015">
        <ele>94.38</ele>
        <time>2019-03-10T10:21:18Z</time>
      </trkpt>
      <trkpt lat="49.11787" lon="1.89015">
        <ele>90.69</ele>
        <time>2019-03-10T10:21:20Z</time>
      </trkpt>
      <trkpt lat="49.11787" lon="1.89015">
        <ele>94.75</ele>
        <time>2019-03-10T10:21:21Z</time>
      </trkpt>
      <trkpt lat="49.11786" lon="1.89016">
        <ele>94.78</ele>
        <time>2019-03-10T10:21:22Z</time>
      </trkpt>
      <trkpt lat="49.11785" lon="1.89017">
        <ele>94.71</ele>
        <time>2019-03-10T10:21:23Z</time>
      </trkpt>
      <trkpt lat="49.11785" lon="1.89018">
        <ele>95.4</ele>
        <time>2019-03-10T10:21:24Z</time>
      </trkpt>
      <trkpt lat="49.11784" lon="1.8902">
        <ele>94.77</ele>
        <time>2019-03-10T10:21:25Z</time>
      </trkpt>
      <trkpt lat="49.11783" lon="1.89021">
        <ele>96.06</ele>
        <time>2019-03-10T10:21:26Z</time>
      </trkpt>
      <trkpt lat="49.11783" lon="1.89024">
        <ele>95.99</ele>
        <time>2019-03-10T10:21:28Z</time>
      </trkpt>
      <trkpt lat="49.11783" lon="1.89027">
        <ele>94.88</ele>
        <time>2019-03-10T10:21:30Z</time>
      </trkpt>
      <trkpt lat="49.11782" lon="1.89029">
        <ele>94.97</ele>
        <time>2019-03-10T10:21:31Z</time>
      </trkpt>
      <trkpt lat="49.11781" lon="1.89032">
        <ele>96.78</ele>
        <time>2019-03-10T10:21:33Z</time>
      </trkpt>
      <trkpt lat="49.11778" lon="1.89041">
        <ele>95.6</ele>
        <time>2019-03-10T10:21:39Z</time>
      </trkpt>
      <trkpt lat="49.11775" lon="1.89049">
        <ele>92.37</ele>
        <time>2019-03-10T10:21:52Z</time>
      </trkpt>
      <trkpt lat="49.11774" lon="1.8905">
        <ele>95.92</ele>
        <time>2019-03-10T10:21:54Z</time>
      </trkpt>
      <trkpt lat="49.11773" lon="1.89051">
        <ele>95.42</ele>
        <time>2019-03-10T10:21:55Z</time>
      </trkpt>
      <trkpt lat="49.11771" lon="1.89056">
        <ele>95.38</ele>
        <time>2019-03-10T10:21:58Z</time>
      </trkpt>
      <trkpt lat="49.1177" lon="1.8906">
        <ele>95.61</ele>
        <time>2019-03-10T10:22:00Z</time>
      </trkpt>
      <trkpt lat="49.1177" lon="1.89063">
        <ele>95.78</ele>
        <time>2019-03-10T10:22:02Z</time>
      </trkpt>
      <trkpt lat="49.11769" lon="1.89065">
        <ele>95.89</ele>
        <time>2019-03-10T10:22:03Z</time>
      </trkpt>
      <trkpt lat="49.11769" lon="1.89066">
        <ele>95.48</ele>
        <time>2019-03-10T10:22:04Z</time>
      </trkpt>
      <trkpt lat="49.11768" lon="1.89068">
        <ele>95.2</ele>
        <time>2019-03-10T10:22:05Z</time>
      </trkpt>
      <trkpt lat="49.11767" lon="1.89069">
        <ele>95.18</ele>
        <time>2019-03-10T10:22:06Z</time>
      </trkpt>
      <trkpt lat="49.11767" lon="1.89071">
        <ele>95.99</ele>
        <time>2019-03-10T10:22:07Z</time>
      </trkpt>
      <trkpt lat="49.11757" lon="1.89096">
        <ele>95.77</ele>
        <time>2019-03-10T10:22:25Z</time>
      </trkpt>
      <trkpt lat="49.1175" lon="1.89113">
        <ele>99.13</ele>
        <time>2019-03-10T10:22:36Z</time>
      </trkpt>
      <trkpt lat="49.11749" lon="1.89114">
        <ele>97.87</ele>
        <time>2019-03-10T10:22:37Z</time>
      </trkpt>
      <trkpt lat="49.11747" lon="1.89119">
        <ele>91.69</ele>
        <time>2019-03-10T10:22:41Z</time>
      </trkpt>
      <trkpt lat="49.11747" lon="1.8912">
        <ele>96.52</ele>
        <time>2019-03-10T10:22:44Z</time>
      </trkpt>
      <trkpt lat="49.11746" lon="1.89122">
        <ele>99.17</ele>
        <time>2019-03-10T10:22:46Z</time>
      </trkpt>
      <trkpt lat="49.11745" lon="1.89124">
        <ele>98.03</ele>
        <time>2019-03-10T10:22:47Z</time>
      </trkpt>
      <trkpt lat="49.11744" lon="1.89126">
        <ele>96.92</ele>
        <time>2019-03-10T10:22:49Z</time>
      </trkpt>
      <trkpt lat="49.11739" lon="1.89139">
        <ele>98.44</ele>
        <time>2019-03-10T10:22:57Z</time>
      </trkpt>
      <trkpt lat="49.11732" lon="1.89155">
        <ele>96.7</ele>
        <time>2019-03-10T10:23:08Z</time>
      </trkpt>
      <trkpt lat="49.11731" lon="1.89156">
        <ele>96.93</ele>
        <time>2019-03-10T10:23:09Z</time>
      </trkpt>
      <trkpt lat="49.11731" lon="1.89158">
        <ele>97.86</ele>
        <time>2019-03-10T10:23:10Z</time>
      </trkpt>
      <trkpt lat="49.1173" lon="1.8916">
        <ele>97.53</ele>
        <time>2019-03-10T10:23:11Z</time>
      </trkpt>
      <trkpt lat="49.1173" lon="1.89162">
        <ele>97.74</ele>
        <time>2019-03-10T10:23:12Z</time>
      </trkpt>
      <trkpt lat="49.11729" lon="1.89163">
        <ele>97.38</ele>
        <time>2019-03-10T10:23:13Z</time>
      </trkpt>
      <trkpt lat="49.11728" lon="1.89165">
        <ele>98.19</ele>
        <time>2019-03-10T10:23:14Z</time>
      </trkpt>
      <trkpt lat="49.11727" lon="1.89167">
        <ele>98.19</ele>
        <time>2019-03-10T10:23:15Z</time>
      </trkpt>
      <trkpt lat="49.11716" lon="1.89193">
        <ele>96.65</ele>
        <time>2019-03-10T10:23:34Z</time>
      </trkpt>
      <trkpt lat="49.11709" lon="1.89207">
        <ele>96.61</ele>
        <time>2019-03-10T10:23:48Z</time>
      </trkpt>
      <trkpt lat="49.11707" lon="1.89211">
        <ele>96.85</ele>
        <time>2019-03-10T10:23:52Z</time>
      </trkpt>
      <trkpt lat="49.11706" lon="1.89215">
        <ele>97.24</ele>
        <time>2019-03-10T10:23:55Z</time>
      </trkpt>
      <trkpt lat="49.11699" lon="1.89229">
        <ele>100.55</ele>
        <time>2019-03-10T10:24:07Z</time>
      </trkpt>
      <trkpt lat="49.11693" lon="1.89247">
        <ele>99.12</ele>
        <time>2019-03-10T10:24:20Z</time>
      </trkpt>
      <trkpt lat="49.11686" lon="1.89259">
        <ele>101.29</ele>
        <time>2019-03-10T10:24:29Z</time>
      </trkpt>
      <trkpt lat="49.11685" lon="1.8926">
        <ele>101.26</ele>
        <time>2019-03-10T10:24:30Z</time>
      </trkpt>
      <trkpt lat="49.11683" lon="1.89266">
        <ele>99.37</ele>
        <time>2019-03-10T10:24:34Z</time>
      </trkpt>
      <trkpt lat="49.11672" lon="1.89288">
        <ele>98.83</ele>
        <time>2019-03-10T10:24:50Z</time>
      </trkpt>
      <trkpt lat="49.11665" lon="1.89299">
        <ele>98.73</ele>
        <time>2019-03-10T10:24:58Z</time>
      </trkpt>
      <trkpt lat="49.11664" lon="1.89302">
        <ele>100.57</ele>
        <time>2019-03-10T10:25:00Z</time>
      </trkpt>
      <trkpt lat="49.11663" lon="1.89303">
        <ele>101.35</ele>
        <time>2019-03-10T10:25:01Z</time>
      </trkpt>
      <trkpt lat="49.11663" lon="1.89305">
        <ele>101.34</ele>
        <time>2019-03-10T10:25:02Z</time>
      </trkpt>
      <trkpt lat="49.11654" lon="1.89327">
        <ele>98.94</ele>
        <time>2019-03-10T10:25:18Z</time>
      </trkpt>
      <trkpt lat="49.11652" lon="1.89331">
        <ele>98.91</ele>
        <time>2019-03-10T10:25:22Z</time>
      </trkpt>
      <trkpt lat="49.11647" lon="1.8934">
        <ele>102.5</ele>
        <time>2019-03-10T10:25:29Z</time>
      </trkpt>
      <trkpt lat="49.11647" lon="1.89341">
        <ele>101.22</ele>
        <time>2019-03-10T10:25:30Z</time>
      </trkpt>
      <trkpt lat="49.11642" lon="1.89351">
        <ele>103.9</ele>
        <time>2019-03-10T10:25:36Z</time>
      </trkpt>
      <trkpt lat="49.11633" lon="1.89373">
        <ele>102.3</ele>
        <time>2019-03-10T10:25:49Z</time>
      </trkpt>
      <trkpt lat="49.1162" lon="1.89404">
        <ele>104.98</ele>
        <time>2019-03-10T10:26:08Z</time>
      </trkpt>
      <trkpt lat="49.11619" lon="1.89406">
        <ele>105.21</ele>
        <time>2019-03-10T10:26:09Z</time>
      </trkpt>
      <trkpt lat="49.11613" lon="1.89422">
        <ele>101.76</ele>
        <time>2019-03-10T10:26:18Z</time>
      </trkpt>
      <trkpt lat="49.11601" lon="1.89448">
        <ele>101.56</ele>
        <time>2019-03-10T10:26:36Z</time>
      </trkpt>
      <trkpt lat="49.11594" lon="1.89471">
        <ele>100.58</ele>
        <time>2019-03-10T10:26:49Z</time>
      </trkpt>
      <trkpt lat="49.11583" lon="1.89495">
        <ele>100.31</ele>
        <time>2019-03-10T10:27:06Z</time>
      </trkpt>
      <trkpt lat="49.11577" lon="1.89511">
        <ele>102.09</ele>
        <time>2019-03-10T10:27:17Z</time>
      </trkpt>
      <trkpt lat="49.11573" lon="1.89518">
        <ele>101.19</ele>
        <time>2019-03-10T10:27:21Z</time>
      </trkpt>
      <trkpt lat="49.11564" lon="1.89541">
        <ele>101.63</ele>
        <time>2019-03-10T10:27:37Z</time>
      </trkpt>
      <trkpt lat="49.11556" lon="1.89564">
        <ele>100.29</ele>
        <time>2019-03-10T10:27:52Z</time>
      </trkpt>
      <trkpt lat="49.11554" lon="1.89568">
        <ele>103.28</ele>
        <time>2019-03-10T10:27:54Z</time>
      </trkpt>
      <trkpt lat="49.11547" lon="1.89583">
        <ele>103.01</ele>
        <time>2019-03-10T10:28:04Z</time>
      </trkpt>
      <trkpt lat="49.11546" lon="1.89588">
        <ele>104.45</ele>
        <time>2019-03-10T10:28:07Z</time>
      </trkpt>
      <trkpt lat="49.11543" lon="1.89596">
        <ele>102.85</ele>
        <time>2019-03-10T10:28:12Z</time>
      </trkpt>
      <trkpt lat="49.1154" lon="1.89602">
        <ele>100.17</ele>
        <time>2019-03-10T10:28:16Z</time>
      </trkpt>
      <trkpt lat="49.11538" lon="1.89608">
        <ele>101.72</ele>
        <time>2019-03-10T10:28:20Z</time>
      </trkpt>
      <trkpt lat="49.11534" lon="1.89616">
        <ele>98.96</ele>
        <time>2019-03-10T10:28:25Z</time>
      </trkpt>
      <trkpt lat="49.11526" lon="1.89635">
        <ele>102.23</ele>
        <time>2019-03-10T10:28:38Z</time>
      </trkpt>
      <trkpt lat="49.11518" lon="1.89656">
        <ele>106.71</ele>
        <time>2019-03-10T10:28:51Z</time>
      </trkpt>
      <trkpt lat="49.11517" lon="1.89658">
        <ele>105.27</ele>
        <time>2019-03-10T10:28:52Z</time>
      </trkpt>
      <trkpt lat="49.11516" lon="1.8966">
        <ele>101.55</ele>
        <time>2019-03-10T10:28:53Z</time>
      </trkpt>
      <trkpt lat="49.11509" lon="1.89677">
        <ele>102</ele>
        <time>2019-03-10T10:29:05Z</time>
      </trkpt>
      <trkpt lat="49.11508" lon="1.89679">
        <ele>105.53</ele>
        <time>2019-03-10T10:29:06Z</time>
      </trkpt>
      <trkpt lat="49.11508" lon="1.8968">
        <ele>104.32</ele>
        <time>2019-03-10T10:29:07Z</time>
      </trkpt>
      <trkpt lat="49.11507" lon="1.89682">
        <ele>104.45</ele>
        <time>2019-03-10T10:29:08Z</time>
      </trkpt>
      <trkpt lat="49.11507" lon="1.89683">
        <ele>101.93</ele>
        <time>2019-03-10T10:29:09Z</time>
      </trkpt>
      <trkpt lat="49.11506" lon="1.89685">
        <ele>101.93</ele>
        <time>2019-03-10T10:29:10Z</time>
      </trkpt>
      <trkpt lat="49.11495" lon="1.89711">
        <ele>102.66</ele>
        <time>2019-03-10T10:29:28Z</time>
      </trkpt>
      <trkpt lat="49.11493" lon="1.89717">
        <ele>103.85</ele>
        <time>2019-03-10T10:29:32Z</time>
      </trkpt>
      <trkpt lat="49.11482" lon="1.89741">
        <ele>103.35</ele>
        <time>2019-03-10T10:29:49Z</time>
      </trkpt>
      <trkpt lat="49.11474" lon="1.89764">
        <ele>102.07</ele>
        <time>2019-03-10T10:30:04Z</time>
      </trkpt>
      <trkpt lat="49.11464" lon="1.89791">
        <ele>100.73</ele>
        <time>2019-03-10T10:30:20Z</time>
      </trkpt>
      <trkpt lat="49.11463" lon="1.89794">
        <ele>102.37</ele>
        <time>2019-03-10T10:30:22Z</time>
      </trkpt>
      <trkpt lat="49.11461" lon="1.89799">
        <ele>100.9</ele>
        <time>2019-03-10T10:30:25Z</time>
      </trkpt>
      <trkpt lat="49.11459" lon="1.89804">
        <ele>102.87</ele>
        <time>2019-03-10T10:30:28Z</time>
      </trkpt>
      <trkpt lat="49.11449" lon="1.89831">
        <ele>103.66</ele>
        <time>2019-03-10T10:30:46Z</time>
      </trkpt>
      <trkpt lat="49.11444" lon="1.89844">
        <ele>103.6</ele>
        <time>2019-03-10T10:30:55Z</time>
      </trkpt>
      <trkpt lat="49.11432" lon="1.8987">
        <ele>103.78</ele>
        <time>2019-03-10T10:31:12Z</time>
      </trkpt>
      <trkpt lat="49.11431" lon="1.89871">
        <ele>101.88</ele>
        <time>2019-03-10T10:31:13Z</time>
      </trkpt>
      <trkpt lat="49.11424" lon="1.89887">
        <ele>100.12</ele>
        <time>2019-03-10T10:31:24Z</time>
      </trkpt>
      <trkpt lat="49.11414" lon="1.89907">
        <ele>98.99</ele>
        <time>2019-03-10T10:31:38Z</time>
      </trkpt>
      <trkpt lat="49.11405" lon="1.89925">
        <ele>100.69</ele>
        <time>2019-03-10T10:31:51Z</time>
      </trkpt>
      <trkpt lat="49.11404" lon="1.89927">
        <ele>99.62</ele>
        <time>2019-03-10T10:31:53Z</time>
      </trkpt>
      <trkpt lat="49.11403" lon="1.8993">
        <ele>98.01</ele>
        <time>2019-03-10T10:31:55Z</time>
      </trkpt>
      <trkpt lat="49.11395" lon="1.89946">
        <ele>97.65</ele>
        <time>2019-03-10T10:32:07Z</time>
      </trkpt>
      <trkpt lat="49.11387" lon="1.89962">
        <ele>100.93</ele>
        <time>2019-03-10T10:32:19Z</time>
      </trkpt>
      <trkpt lat="49.11385" lon="1.89966">
        <ele>98.44</ele>
        <time>2019-03-10T10:32:22Z</time>
      </trkpt>
      <trkpt lat="49.11378" lon="1.89983">
        <ele>99.4</ele>
        <time>2019-03-10T10:32:34Z</time>
      </trkpt>
      <trkpt lat="49.11373" lon="1.89994">
        <ele>96.25</ele>
        <time>2019-03-10T10:32:42Z</time>
      </trkpt>
      <trkpt lat="49.11368" lon="1.90006">
        <ele>97.11</ele>
        <time>2019-03-10T10:32:50Z</time>
      </trkpt>
      <trkpt lat="49.11367" lon="1.90008">
        <ele>98.04</ele>
        <time>2019-03-10T10:32:51Z</time>
      </trkpt>
      <trkpt lat="49.1136" lon="1.90025">
        <ele>96.78</ele>
        <time>2019-03-10T10:33:02Z</time>
      </trkpt>
      <trkpt lat="49.11357" lon="1.90032">
        <ele>96.76</ele>
        <time>2019-03-10T10:33:07Z</time>
      </trkpt>
      <trkpt lat="49.11357" lon="1.90034">
        <ele>96.24</ele>
        <time>2019-03-10T10:33:08Z</time>
      </trkpt>
      <trkpt lat="49.11351" lon="1.90048">
        <ele>95.41</ele>
        <time>2019-03-10T10:33:18Z</time>
      </trkpt>
      <trkpt lat="49.11351" lon="1.90049">
        <ele>95.41</ele>
        <time>2019-03-10T10:33:19Z</time>
      </trkpt>
      <trkpt lat="49.1135" lon="1.90051">
        <ele>96.34</ele>
        <time>2019-03-10T10:33:20Z</time>
      </trkpt>
      <trkpt lat="49.11342" lon="1.9007">
        <ele>96.07</ele>
        <time>2019-03-10T10:33:36Z</time>
      </trkpt>
      <trkpt lat="49.11332" lon="1.9009">
        <ele>96.09</ele>
        <time>2019-03-10T10:33:53Z</time>
      </trkpt>
      <trkpt lat="49.11324" lon="1.9011">
        <ele>96.55</ele>
        <time>2019-03-10T10:34:11Z</time>
      </trkpt>
      <trkpt lat="49.1132" lon="1.90121">
        <ele>96.38</ele>
        <time>2019-03-10T10:34:28Z</time>
      </trkpt>
      <trkpt lat="49.1132" lon="1.90124">
        <ele>96.71</ele>
        <time>2019-03-10T10:34:52Z</time>
      </trkpt>
      <trkpt lat="49.11322" lon="1.90124">
        <ele>95.33</ele>
        <time>2019-03-10T10:35:10Z</time>
      </trkpt>
      <trkpt lat="49.11321" lon="1.90127">
        <ele>95.85</ele>
        <time>2019-03-10T10:35:38Z</time>
      </trkpt>
      <trkpt lat="49.11319" lon="1.90129">
        <ele>94.29</ele>
        <time>2019-03-10T10:35:58Z</time>
      </trkpt>
      <trkpt lat="49.11319" lon="1.9013">
        <ele>95.28</ele>
        <time>2019-03-10T10:36:24Z</time>
      </trkpt>
      <trkpt lat="49.11318" lon="1.90132">
        <ele>96.09</ele>
        <time>2019-03-10T10:36:48Z</time>
      </trkpt>
      <trkpt lat="49.11313" lon="1.90141">
        <ele>95.07</ele>
        <time>2019-03-10T10:37:06Z</time>
      </trkpt>
      <trkpt lat="49.11307" lon="1.90156">
        <ele>97.26</ele>
        <time>2019-03-10T10:37:24Z</time>
      </trkpt>
      <trkpt lat="49.11302" lon="1.9017">
        <ele>95.49</ele>
        <time>2019-03-10T10:37:39Z</time>
      </trkpt>
      <trkpt lat="49.11296" lon="1.90182">
        <ele>99.03</ele>
        <time>2019-03-10T10:37:51Z</time>
      </trkpt>
      <trkpt lat="49.11295" lon="1.90185">
        <ele>96.82</ele>
        <time>2019-03-10T10:37:54Z</time>
      </trkpt>
      <trkpt lat="49.11286" lon="1.90207">
        <ele>98.1</ele>
        <time>2019-03-10T10:38:14Z</time>
      </trkpt>
      <trkpt lat="49.11284" lon="1.90211">
        <ele>98.4</ele>
        <time>2019-03-10T10:38:16Z</time>
      </trkpt>
      <trkpt lat="49.11283" lon="1.90214">
        <ele>99.74</ele>
        <time>2019-03-10T10:38:17Z</time>
      </trkpt>
      <trkpt lat="49.11282" lon="1.90216">
        <ele>99.75</ele>
        <time>2019-03-10T10:38:18Z</time>
      </trkpt>
      <trkpt lat="49.11281" lon="1.90218">
        <ele>98.59</ele>
        <time>2019-03-10T10:38:19Z</time>
      </trkpt>
      <trkpt lat="49.11277" lon="1.90224">
        <ele>100.71</ele>
        <time>2019-03-10T10:38:23Z</time>
      </trkpt>
      <trkpt lat="49.11268" lon="1.90247">
        <ele>101.05</ele>
        <time>2019-03-10T10:38:37Z</time>
      </trkpt>
      <trkpt lat="49.11262" lon="1.9026">
        <ele>100.38</ele>
        <time>2019-03-10T10:38:45Z</time>
      </trkpt>
      <trkpt lat="49.11261" lon="1.90262">
        <ele>100.36</ele>
        <time>2019-03-10T10:38:46Z</time>
      </trkpt>
      <trkpt lat="49.11261" lon="1.90264">
        <ele>99.58</ele>
        <time>2019-03-10T10:38:47Z</time>
      </trkpt>
      <trkpt lat="49.11258" lon="1.90273">
        <ele>103.29</ele>
        <time>2019-03-10T10:38:51Z</time>
      </trkpt>
      <trkpt lat="49.11257" lon="1.90275">
        <ele>102.62</ele>
        <time>2019-03-10T10:38:52Z</time>
      </trkpt>
      <trkpt lat="49.11256" lon="1.90276">
        <ele>102.24</ele>
        <time>2019-03-10T10:38:53Z</time>
      </trkpt>
      <trkpt lat="49.11255" lon="1.90277">
        <ele>103.1</ele>
        <time>2019-03-10T10:38:54Z</time>
      </trkpt>
      <trkpt lat="49.11254" lon="1.90279">
        <ele>105.6</ele>
        <time>2019-03-10T10:38:55Z</time>
      </trkpt>
      <trkpt lat="49.11253" lon="1.90281">
        <ele>104.72</ele>
        <time>2019-03-10T10:38:56Z</time>
      </trkpt>
      <trkpt lat="49.11252" lon="1.90283">
        <ele>103.79</ele>
        <time>2019-03-10T10:38:57Z</time>
      </trkpt>
      <trkpt lat="49.1125" lon="1.90286">
        <ele>102.96</ele>
        <time>2019-03-10T10:38:59Z</time>
      </trkpt>
      <trkpt lat="49.11244" lon="1.90303">
        <ele>99.32</ele>
        <time>2019-03-10T10:39:07Z</time>
      </trkpt>
      <trkpt lat="49.11243" lon="1.90304">
        <ele>99.54</ele>
        <time>2019-03-10T10:39:08Z</time>
      </trkpt>
      <trkpt lat="49.1123" lon="1.90334">
        <ele>98.65</ele>
        <time>2019-03-10T10:39:27Z</time>
      </trkpt>
      <trkpt lat="49.11228" lon="1.90344">
        <ele>96.95</ele>
        <time>2019-03-10T10:39:33Z</time>
      </trkpt>
      <trkpt lat="49.11224" lon="1.90352">
        <ele>93.68</ele>
        <time>2019-03-10T10:39:38Z</time>
      </trkpt>
      <trkpt lat="49.11224" lon="1.90353">
        <ele>89.7</ele>
        <time>2019-03-10T10:39:39Z</time>
      </trkpt>
      <trkpt lat="49.11224" lon="1.90353">
        <ele>94.25</ele>
        <time>2019-03-10T10:39:40Z</time>
      </trkpt>
      <trkpt lat="49.11223" lon="1.90357">
        <ele>97.47</ele>
        <time>2019-03-10T10:39:47Z</time>
      </trkpt>
      <trkpt lat="49.11222" lon="1.90358">
        <ele>97.12</ele>
        <time>2019-03-10T10:39:48Z</time>
      </trkpt>
      <trkpt lat="49.11222" lon="1.9036">
        <ele>99.52</ele>
        <time>2019-03-10T10:39:49Z</time>
      </trkpt>
      <trkpt lat="49.11221" lon="1.90361">
        <ele>99.49</ele>
        <time>2019-03-10T10:39:50Z</time>
      </trkpt>
      <trkpt lat="49.11221" lon="1.90362">
        <ele>100.12</ele>
        <time>2019-03-10T10:39:51Z</time>
      </trkpt>
      <trkpt lat="49.1122" lon="1.90364">
        <ele>102.54</ele>
        <time>2019-03-10T10:39:52Z</time>
      </trkpt>
      <trkpt lat="49.11219" lon="1.90366">
        <ele>100.02</ele>
        <time>2019-03-10T10:39:53Z</time>
      </trkpt>
      <trkpt lat="49.11218" lon="1.90367">
        <ele>98.92</ele>
        <time>2019-03-10T10:39:54Z</time>
      </trkpt>
      <trkpt lat="49.11215" lon="1.90374">
        <ele>95.83</ele>
        <time>2019-03-10T10:39:58Z</time>
      </trkpt>
      <trkpt lat="49.11203" lon="1.904">
        <ele>95.39</ele>
        <time>2019-03-10T10:40:16Z</time>
      </trkpt>
      <trkpt lat="49.11201" lon="1.90404">
        <ele>97.68</ele>
        <time>2019-03-10T10:40:20Z</time>
      </trkpt>
      <trkpt lat="49.11199" lon="1.90411">
        <ele>97.77</ele>
        <time>2019-03-10T10:40:24Z</time>
      </trkpt>
      <trkpt lat="49.11198" lon="1.90412">
        <ele>96.98</ele>
        <time>2019-03-10T10:40:25Z</time>
      </trkpt>
      <trkpt lat="49.11197" lon="1.90413">
        <ele>96.8</ele>
        <time>2019-03-10T10:40:26Z</time>
      </trkpt>
      <trkpt lat="49.11197" lon="1.90415">
        <ele>97.35</ele>
        <time>2019-03-10T10:40:27Z</time>
      </trkpt>
      <trkpt lat="49.11195" lon="1.90419">
        <ele>95.93</ele>
        <time>2019-03-10T10:40:30Z</time>
      </trkpt>
      <trkpt lat="49.11186" lon="1.90448">
        <ele>96.96</ele>
        <time>2019-03-10T10:40:47Z</time>
      </trkpt>
      <trkpt lat="49.11187" lon="1.90454">
        <ele>96.97</ele>
        <time>2019-03-10T10:40:50Z</time>
      </trkpt>
      <trkpt lat="49.11188" lon="1.90456">
        <ele>96.97</ele>
        <time>2019-03-10T10:40:51Z</time>
      </trkpt>
      <trkpt lat="49.11188" lon="1.90458">
        <ele>96.98</ele>
        <time>2019-03-10T10:40:52Z</time>
      </trkpt>
      <trkpt lat="49.11188" lon="1.90459">
        <ele>96.06</ele>
        <time>2019-03-10T10:40:53Z</time>
      </trkpt>
      <trkpt lat="49.11188" lon="1.90461">
        <ele>95.86</ele>
        <time>2019-03-10T10:40:54Z</time>
      </trkpt>
      <trkpt lat="49.11189" lon="1.90462">
        <ele>95.46</ele>
        <time>2019-03-10T10:40:55Z</time>
      </trkpt>
      <trkpt lat="49.11189" lon="1.90464">
        <ele>95.51</ele>
        <time>2019-03-10T10:40:56Z</time>
      </trkpt>
      <trkpt lat="49.1119" lon="1.90465">
        <ele>94.99</ele>
        <time>2019-03-10T10:40:57Z</time>
      </trkpt>
      <trkpt lat="49.1119" lon="1.90467">
        <ele>95.95</ele>
        <time>2019-03-10T10:40:58Z</time>
      </trkpt>
      <trkpt lat="49.11191" lon="1.90468">
        <ele>94.6</ele>
        <time>2019-03-10T10:40:59Z</time>
      </trkpt>
      <trkpt lat="49.11192" lon="1.90484">
        <ele>92.89</ele>
        <time>2019-03-10T10:41:08Z</time>
      </trkpt>
      <trkpt lat="49.11192" lon="1.90486">
        <ele>94.24</ele>
        <time>2019-03-10T10:41:09Z</time>
      </trkpt>
      <trkpt lat="49.11192" lon="1.90488">
        <ele>94.31</ele>
        <time>2019-03-10T10:41:10Z</time>
      </trkpt>
      <trkpt lat="49.11194" lon="1.90495">
        <ele>95.36</ele>
        <time>2019-03-10T10:41:15Z</time>
      </trkpt>
      <trkpt lat="49.11194" lon="1.90496">
        <ele>95.07</ele>
        <time>2019-03-10T10:41:16Z</time>
      </trkpt>
      <trkpt lat="49.11195" lon="1.90498">
        <ele>95.64</ele>
        <time>2019-03-10T10:41:17Z</time>
      </trkpt>
      <trkpt lat="49.11201" lon="1.9052">
        <ele>95.72</ele>
        <time>2019-03-10T10:41:34Z</time>
      </trkpt>
      <trkpt lat="49.11204" lon="1.90538">
        <ele>96.42</ele>
        <time>2019-03-10T10:41:49Z</time>
      </trkpt>
      <trkpt lat="49.11206" lon="1.90549">
        <ele>96.3</ele>
        <time>2019-03-10T10:41:57Z</time>
      </trkpt>
      <trkpt lat="49.11219" lon="1.90564">
        <ele>95.78</ele>
        <time>2019-03-10T10:42:14Z</time>
      </trkpt>
      <trkpt lat="49.11221" lon="1.90587">
        <ele>95.22</ele>
        <time>2019-03-10T10:42:27Z</time>
      </trkpt>
      <trkpt lat="49.11222" lon="1.90589">
        <ele>95.37</ele>
        <time>2019-03-10T10:42:28Z</time>
      </trkpt>
      <trkpt lat="49.11222" lon="1.90591">
        <ele>95.84</ele>
        <time>2019-03-10T10:42:29Z</time>
      </trkpt>
      <trkpt lat="49.11221" lon="1.90597">
        <ele>95.87</ele>
        <time>2019-03-10T10:42:32Z</time>
      </trkpt>
      <trkpt lat="49.11221" lon="1.90605">
        <ele>95.41</ele>
        <time>2019-03-10T10:42:37Z</time>
      </trkpt>
      <trkpt lat="49.11221" lon="1.90607">
        <ele>95.18</ele>
        <time>2019-03-10T10:42:38Z</time>
      </trkpt>
      <trkpt lat="49.11222" lon="1.90608">
        <ele>95.52</ele>
        <time>2019-03-10T10:42:39Z</time>
      </trkpt>
      <trkpt lat="49.11222" lon="1.9061">
        <ele>95.44</ele>
        <time>2019-03-10T10:42:40Z</time>
      </trkpt>
      <trkpt lat="49.11222" lon="1.90612">
        <ele>95.88</ele>
        <time>2019-03-10T10:42:41Z</time>
      </trkpt>
      <trkpt lat="49.11222" lon="1.90615">
        <ele>95.41</ele>
        <time>2019-03-10T10:42:42Z</time>
      </trkpt>
      <trkpt lat="49.11219" lon="1.90638">
        <ele>98.88</ele>
        <time>2019-03-10T10:42:55Z</time>
      </trkpt>
      <trkpt lat="49.11219" lon="1.90638">
        <ele>99.18</ele>
        <time>2019-03-10T10:42:56Z</time>
      </trkpt>
      <trkpt lat="49.1122" lon="1.90641">
        <ele>97.57</ele>
        <time>2019-03-10T10:42:59Z</time>
      </trkpt>
      <trkpt lat="49.11221" lon="1.90643">
        <ele>97.73</ele>
        <time>2019-03-10T10:43:00Z</time>
      </trkpt>
      <trkpt lat="49.11222" lon="1.90646">
        <ele>99.09</ele>
        <time>2019-03-10T10:43:04Z</time>
      </trkpt>
      <trkpt lat="49.11221" lon="1.90648">
        <ele>97.41</ele>
        <time>2019-03-10T10:43:11Z</time>
      </trkpt>
      <trkpt lat="49.11219" lon="1.90658">
        <ele>98.72</ele>
        <time>2019-03-10T10:43:28Z</time>
      </trkpt>
      <trkpt lat="49.11218" lon="1.90662">
        <ele>94.53</ele>
        <time>2019-03-10T10:43:35Z</time>
      </trkpt>
      <trkpt lat="49.11218" lon="1.90661">
        <ele>96.28</ele>
        <time>2019-03-10T10:43:38Z</time>
      </trkpt>
      <trkpt lat="49.11218" lon="1.90661">
        <ele>91.85</ele>
        <time>2019-03-10T10:43:39Z</time>
      </trkpt>
      <trkpt lat="49.1122" lon="1.9066">
        <ele>95.72</ele>
        <time>2019-03-10T10:43:42Z</time>
      </trkpt>
      <trkpt lat="49.11222" lon="1.90661">
        <ele>98.61</ele>
        <time>2019-03-10T10:43:44Z</time>
      </trkpt>
      <trkpt lat="49.11225" lon="1.90661">
        <ele>95.4</ele>
        <time>2019-03-10T10:43:51Z</time>
      </trkpt>
      <trkpt lat="49.11225" lon="1.90661">
        <ele>96.33</ele>
        <time>2019-03-10T10:43:52Z</time>
      </trkpt>
      <trkpt lat="49.11227" lon="1.9066">
        <ele>99.33</ele>
        <time>2019-03-10T10:43:55Z</time>
      </trkpt>
      <trkpt lat="49.11228" lon="1.9066">
        <ele>101.05</ele>
        <time>2019-03-10T10:44:02Z</time>
      </trkpt>
      <trkpt lat="49.11231" lon="1.90658">
        <ele>99.51</ele>
        <time>2019-03-10T10:44:20Z</time>
      </trkpt>
      <trkpt lat="49.11234" lon="1.90656">
        <ele>99.52</ele>
        <time>2019-03-10T10:44:33Z</time>
      </trkpt>
      <trkpt lat="49.11236" lon="1.90655">
        <ele>101.32</ele>
        <time>2019-03-10T10:44:40Z</time>
      </trkpt>
      <trkpt lat="49.11235" lon="1.90655">
        <ele>100.72</ele>
        <time>2019-03-10T10:44:43Z</time>
      </trkpt>
      <trkpt lat="49.11235" lon="1.90652">
        <ele>99.91</ele>
        <time>2019-03-10T10:45:03Z</time>
      </trkpt>
      <trkpt lat="49.11235" lon="1.9065">
        <ele>99.08</ele>
        <time>2019-03-10T10:45:23Z</time>
      </trkpt>
      <trkpt lat="49.11235" lon="1.9065">
        <ele>99.37</ele>
        <time>2019-03-10T10:45:24Z</time>
      </trkpt>
      <trkpt lat="49.11236" lon="1.90648">
        <ele>100.55</ele>
        <time>2019-03-10T10:45:43Z</time>
      </trkpt>
      <trkpt lat="49.11237" lon="1.90649">
        <ele>99.51</ele>
        <time>2019-03-10T10:46:05Z</time>
      </trkpt>
      <trkpt lat="49.11237" lon="1.90649">
        <ele>99.69</ele>
        <time>2019-03-10T10:46:48Z</time>
      </trkpt>
      <trkpt lat="49.11238" lon="1.9065">
        <ele>103.38</ele>
        <time>2019-03-10T10:47:09Z</time>
      </trkpt>
      <trkpt lat="49.11238" lon="1.9065">
        <ele>100.01</ele>
        <time>2019-03-10T10:47:25Z</time>
      </trkpt>
      <trkpt lat="49.11239" lon="1.90651">
        <ele>100.59</ele>
        <time>2019-03-10T10:47:44Z</time>
      </trkpt>
      <trkpt lat="49.11238" lon="1.9065">
        <ele>100.62</ele>
        <time>2019-03-10T10:47:45Z</time>
      </trkpt>
      <trkpt lat="49.11235" lon="1.9065">
        <ele>100.88</ele>
        <time>2019-03-10T10:47:59Z</time>
      </trkpt>
      <trkpt lat="49.11231" lon="1.90652">
        <ele>102.23</ele>
        <time>2019-03-10T10:48:02Z</time>
      </trkpt>
      <trkpt lat="49.1123" lon="1.90656">
        <ele>99.25</ele>
        <time>2019-03-10T10:48:05Z</time>
      </trkpt>
      <trkpt lat="49.11232" lon="1.90673">
        <ele>95.11</ele>
        <time>2019-03-10T10:48:19Z</time>
      </trkpt>
      <trkpt lat="49.11234" lon="1.90677">
        <ele>96.9</ele>
        <time>2019-03-10T10:48:22Z</time>
      </trkpt>
      <trkpt lat="49.11235" lon="1.90679">
        <ele>97.03</ele>
        <time>2019-03-10T10:48:23Z</time>
      </trkpt>
      <trkpt lat="49.11235" lon="1.90681">
        <ele>96.45</ele>
        <time>2019-03-10T10:48:24Z</time>
      </trkpt>
      <trkpt lat="49.11236" lon="1.90686">
        <ele>96.3</ele>
        <time>2019-03-10T10:48:28Z</time>
      </trkpt>
      <trkpt lat="49.11238" lon="1.90691">
        <ele>96.3</ele>
        <time>2019-03-10T10:48:33Z</time>
      </trkpt>
      <trkpt lat="49.11239" lon="1.90708">
        <ele>94.6</ele>
        <time>2019-03-10T10:48:46Z</time>
      </trkpt>
      <trkpt lat="49.11238" lon="1.90711">
        <ele>94.5</ele>
        <time>2019-03-10T10:48:48Z</time>
      </trkpt>
      <trkpt lat="49.11237" lon="1.9072">
        <ele>95.31</ele>
        <time>2019-03-10T10:48:55Z</time>
      </trkpt>
      <trkpt lat="49.11234" lon="1.90729">
        <ele>94.97</ele>
        <time>2019-03-10T10:49:03Z</time>
      </trkpt>
      <trkpt lat="49.11234" lon="1.9073">
        <ele>96.65</ele>
        <time>2019-03-10T10:49:08Z</time>
      </trkpt>
      <trkpt lat="49.11229" lon="1.90738">
        <ele>94.15</ele>
        <time>2019-03-10T10:49:27Z</time>
      </trkpt>
      <trkpt lat="49.11229" lon="1.90739">
        <ele>95.33</ele>
        <time>2019-03-10T10:49:28Z</time>
      </trkpt>
      <trkpt lat="49.11227" lon="1.90741">
        <ele>98.44</ele>
        <time>2019-03-10T10:49:31Z</time>
      </trkpt>
      <trkpt lat="49.11224" lon="1.90742">
        <ele>96.23</ele>
        <time>2019-03-10T10:49:34Z</time>
      </trkpt>
      <trkpt lat="49.11214" lon="1.90747">
        <ele>99.32</ele>
        <time>2019-03-10T10:49:43Z</time>
      </trkpt>
      <trkpt lat="49.11209" lon="1.90754">
        <ele>97.3</ele>
        <time>2019-03-10T10:49:52Z</time>
      </trkpt>
      <trkpt lat="49.11209" lon="1.90756">
        <ele>97.71</ele>
        <time>2019-03-10T10:49:53Z</time>
      </trkpt>
      <trkpt lat="49.11208" lon="1.90758">
        <ele>96.95</ele>
        <time>2019-03-10T10:49:54Z</time>
      </trkpt>
      <trkpt lat="49.11207" lon="1.90762">
        <ele>98.25</ele>
        <time>2019-03-10T10:49:57Z</time>
      </trkpt>
      <trkpt lat="49.11207" lon="1.90764">
        <ele>100.76</ele>
        <time>2019-03-10T10:49:58Z</time>
      </trkpt>
      <trkpt lat="49.11207" lon="1.90767">
        <ele>97.03</ele>
        <time>2019-03-10T10:50:00Z</time>
      </trkpt>
      <trkpt lat="49.11204" lon="1.90789">
        <ele>96.67</ele>
        <time>2019-03-10T10:50:15Z</time>
      </trkpt>
      <trkpt lat="49.11202" lon="1.90797">
        <ele>96.76</ele>
        <time>2019-03-10T10:50:21Z</time>
      </trkpt>
      <trkpt lat="49.11201" lon="1.90807">
        <ele>99.17</ele>
        <time>2019-03-10T10:50:27Z</time>
      </trkpt>
      <trkpt lat="49.11201" lon="1.90809">
        <ele>98.63</ele>
        <time>2019-03-10T10:50:28Z</time>
      </trkpt>
      <trkpt lat="49.11201" lon="1.90811">
        <ele>98.53</ele>
        <time>2019-03-10T10:50:29Z</time>
      </trkpt>
      <trkpt lat="49.11201" lon="1.90815">
        <ele>97.11</ele>
        <time>2019-03-10T10:50:32Z</time>
      </trkpt>
      <trkpt lat="49.11201" lon="1.90817">
        <ele>96.67</ele>
        <time>2019-03-10T10:50:33Z</time>
      </trkpt>
      <trkpt lat="49.11203" lon="1.90854">
        <ele>95.72</ele>
        <time>2019-03-10T10:50:51Z</time>
      </trkpt>
      <trkpt lat="49.11205" lon="1.9086">
        <ele>95.8</ele>
        <time>2019-03-10T10:50:55Z</time>
      </trkpt>
      <trkpt lat="49.11206" lon="1.90861">
        <ele>95.43</ele>
        <time>2019-03-10T10:50:56Z</time>
      </trkpt>
      <trkpt lat="49.11208" lon="1.90863">
        <ele>96</ele>
        <time>2019-03-10T10:50:57Z</time>
      </trkpt>
      <trkpt lat="49.11209" lon="1.90864">
        <ele>96.55</ele>
        <time>2019-03-10T10:50:58Z</time>
      </trkpt>
      <trkpt lat="49.11209" lon="1.90866">
        <ele>96.6</ele>
        <time>2019-03-10T10:50:59Z</time>
      </trkpt>
      <trkpt lat="49.11212" lon="1.90868">
        <ele>95.17</ele>
        <time>2019-03-10T10:51:02Z</time>
      </trkpt>
      <trkpt lat="49.11211" lon="1.90875">
        <ele>99.35</ele>
        <time>2019-03-10T10:51:12Z</time>
      </trkpt>
      <trkpt lat="49.11213" lon="1.90876">
        <ele>96.18</ele>
        <time>2019-03-10T10:51:14Z</time>
      </trkpt>
      <trkpt lat="49.11213" lon="1.90877">
        <ele>96.16</ele>
        <time>2019-03-10T10:51:15Z</time>
      </trkpt>
      <trkpt lat="49.11217" lon="1.90881">
        <ele>96.06</ele>
        <time>2019-03-10T10:51:20Z</time>
      </trkpt>
      <trkpt lat="49.11218" lon="1.90883">
        <ele>96.85</ele>
        <time>2019-03-10T10:51:21Z</time>
      </trkpt>
      <trkpt lat="49.11219" lon="1.90884">
        <ele>96.34</ele>
        <time>2019-03-10T10:51:22Z</time>
      </trkpt>
      <trkpt lat="49.11225" lon="1.90894">
        <ele>97.6</ele>
        <time>2019-03-10T10:51:29Z</time>
      </trkpt>
      <trkpt lat="49.11226" lon="1.90895">
        <ele>97.51</ele>
        <time>2019-03-10T10:51:30Z</time>
      </trkpt>
      <trkpt lat="49.11237" lon="1.90911">
        <ele>96.65</ele>
        <time>2019-03-10T10:51:47Z</time>
      </trkpt>
      <trkpt lat="49.1124" lon="1.90917">
        <ele>97.49</ele>
        <time>2019-03-10T10:51:52Z</time>
      </trkpt>
      <trkpt lat="49.11248" lon="1.90927">
        <ele>94.23</ele>
        <time>2019-03-10T10:52:06Z</time>
      </trkpt>
      <trkpt lat="49.11258" lon="1.90933">
        <ele>96.51</ele>
        <time>2019-03-10T10:52:17Z</time>
      </trkpt>
      <trkpt lat="49.11261" lon="1.90934">
        <ele>96.61</ele>
        <time>2019-03-10T10:52:23Z</time>
      </trkpt>
      <trkpt lat="49.11263" lon="1.90937">
        <ele>95.81</ele>
        <time>2019-03-10T10:52:25Z</time>
      </trkpt>
      <trkpt lat="49.11264" lon="1.90946">
        <ele>99.39</ele>
        <time>2019-03-10T10:52:31Z</time>
      </trkpt>
      <trkpt lat="49.11273" lon="1.90961">
        <ele>98.2</ele>
        <time>2019-03-10T10:52:43Z</time>
      </trkpt>
      <trkpt lat="49.11279" lon="1.90973">
        <ele>97.35</ele>
        <time>2019-03-10T10:52:53Z</time>
      </trkpt>
      <trkpt lat="49.11277" lon="1.90987">
        <ele>96.51</ele>
        <time>2019-03-10T10:55:53Z</time>
      </trkpt>
      <trkpt lat="49.11261" lon="1.91004">
        <ele>95.67</ele>
        <time>2019-03-10T10:58:53Z</time>
      </trkpt>
      <trkpt lat="49.11249" lon="1.9101">
        <ele>95.9</ele>
        <time>2019-03-10T11:38:09Z</time>
      </trkpt>
      <trkpt lat="49.11249" lon="1.91011">
        <ele>95.41</ele>
        <time>2019-03-10T11:38:32Z</time>
      </trkpt>
      <trkpt lat="49.11249" lon="1.91011">
        <ele>100.19</ele>
        <time>2019-03-10T11:38:40Z</time>
      </trkpt>
      <trkpt lat="49.11249" lon="1.91011">
        <ele>98.4</ele>
        <time>2019-03-10T11:38:41Z</time>
      </trkpt>
      <trkpt lat="49.1125" lon="1.91012">
        <ele>96.27</ele>
        <time>2019-03-10T11:39:03Z</time>
      </trkpt>
      <trkpt lat="49.1125" lon="1.91012">
        <ele>100.13</ele>
        <time>2019-03-10T11:39:05Z</time>
      </trkpt>
      <trkpt lat="49.1125" lon="1.91012">
        <ele>95.7</ele>
        <time>2019-03-10T11:39:06Z</time>
      </trkpt>
      <trkpt lat="49.1125" lon="1.91013">
        <ele>97.12</ele>
        <time>2019-03-10T11:39:09Z</time>
      </trkpt>
      <trkpt lat="49.1125" lon="1.91013">
        <ele>104.5</ele>
        <time>2019-03-10T11:39:13Z</time>
      </trkpt>
      <trkpt lat="49.1125" lon="1.91013">
        <ele>100.93</ele>
        <time>2019-03-10T11:39:14Z</time>
      </trkpt>
      <trkpt lat="49.1125" lon="1.91012">
        <ele>97.46</ele>
        <time>2019-03-10T11:39:15Z</time>
      </trkpt>
      <trkpt lat="49.1125" lon="1.91013">
        <ele>98.76</ele>
        <time>2019-03-10T11:39:16Z</time>
      </trkpt>
      <trkpt lat="49.11248" lon="1.91015">
        <ele>96.96</ele>
        <time>2019-03-10T11:39:24Z</time>
      </trkpt>
      <trkpt lat="49.11242" lon="1.91024">
        <ele>97.82</ele>
        <time>2019-03-10T11:39:34Z</time>
      </trkpt>
      <trkpt lat="49.11241" lon="1.91028">
        <ele>95.72</ele>
        <time>2019-03-10T11:39:37Z</time>
      </trkpt>
      <trkpt lat="49.11233" lon="1.91032">
        <ele>97.06</ele>
        <time>2019-03-10T11:39:53Z</time>
      </trkpt>
      <trkpt lat="49.11233" lon="1.91032">
        <ele>96.99</ele>
        <time>2019-03-10T11:39:54Z</time>
      </trkpt>
      <trkpt lat="49.11223" lon="1.91035">
        <ele>96.31</ele>
        <time>2019-03-10T11:40:07Z</time>
      </trkpt>
      <trkpt lat="49.11211" lon="1.91035">
        <ele>95.94</ele>
        <time>2019-03-10T11:40:18Z</time>
      </trkpt>
      <trkpt lat="49.11193" lon="1.91029">
        <ele>96.94</ele>
        <time>2019-03-10T11:40:37Z</time>
      </trkpt>
      <trkpt lat="49.11181" lon="1.91021">
        <ele>96.2</ele>
        <time>2019-03-10T11:40:58Z</time>
      </trkpt>
      <trkpt lat="49.11174" lon="1.91019">
        <ele>98.79</ele>
        <time>2019-03-10T11:41:05Z</time>
      </trkpt>
      <trkpt lat="49.11169" lon="1.91017">
        <ele>96.99</ele>
        <time>2019-03-10T11:41:09Z</time>
      </trkpt>
      <trkpt lat="49.11163" lon="1.91012">
        <ele>98.14</ele>
        <time>2019-03-10T11:41:16Z</time>
      </trkpt>
      <trkpt lat="49.11157" lon="1.91004">
        <ele>96.77</ele>
        <time>2019-03-10T11:41:23Z</time>
      </trkpt>
      <trkpt lat="49.11155" lon="1.91001">
        <ele>98.34</ele>
        <time>2019-03-10T11:41:27Z</time>
      </trkpt>
      <trkpt lat="49.11153" lon="1.90998">
        <ele>96.25</ele>
        <time>2019-03-10T11:41:30Z</time>
      </trkpt>
      <trkpt lat="49.11151" lon="1.90999">
        <ele>97.52</ele>
        <time>2019-03-10T11:41:32Z</time>
      </trkpt>
      <trkpt lat="49.11134" lon="1.90997">
        <ele>97.65</ele>
        <time>2019-03-10T11:41:51Z</time>
      </trkpt>
      <trkpt lat="49.11122" lon="1.90999">
        <ele>95.96</ele>
        <time>2019-03-10T11:42:03Z</time>
      </trkpt>
      <trkpt lat="49.11118" lon="1.90999">
        <ele>97.35</ele>
        <time>2019-03-10T11:42:06Z</time>
      </trkpt>
      <trkpt lat="49.11108" lon="1.91001">
        <ele>96.81</ele>
        <time>2019-03-10T11:42:17Z</time>
      </trkpt>
      <trkpt lat="49.11105" lon="1.91001">
        <ele>95.25</ele>
        <time>2019-03-10T11:42:20Z</time>
      </trkpt>
      <trkpt lat="49.11099" lon="1.90999">
        <ele>95.18</ele>
        <time>2019-03-10T11:42:27Z</time>
      </trkpt>
      <trkpt lat="49.11081" lon="1.90992">
        <ele>94.17</ele>
        <time>2019-03-10T11:42:44Z</time>
      </trkpt>
      <trkpt lat="49.11069" lon="1.90982">
        <ele>93.55</ele>
        <time>2019-03-10T11:43:01Z</time>
      </trkpt>
      <trkpt lat="49.11056" lon="1.9097">
        <ele>94.08</ele>
        <time>2019-03-10T11:43:16Z</time>
      </trkpt>
      <trkpt lat="49.11031" lon="1.9096">
        <ele>92.42</ele>
        <time>2019-03-10T11:43:37Z</time>
      </trkpt>
      <trkpt lat="49.1102" lon="1.90943">
        <ele>91.45</ele>
        <time>2019-03-10T11:43:53Z</time>
      </trkpt>
      <trkpt lat="49.11008" lon="1.90931">
        <ele>91.62</ele>
        <time>2019-03-10T11:44:06Z</time>
      </trkpt>
      <trkpt lat="49.11007" lon="1.90931">
        <ele>92.94</ele>
        <time>2019-03-10T11:44:07Z</time>
      </trkpt>
      <trkpt lat="49.1099" lon="1.90938">
        <ele>90.71</ele>
        <time>2019-03-10T11:44:20Z</time>
      </trkpt>
      <trkpt lat="49.10986" lon="1.90945">
        <ele>90.56</ele>
        <time>2019-03-10T11:44:50Z</time>
      </trkpt>
      <trkpt lat="49.10986" lon="1.90946">
        <ele>87.51</ele>
        <time>2019-03-10T11:44:52Z</time>
      </trkpt>
      <trkpt lat="49.10983" lon="1.90946">
        <ele>86.54</ele>
        <time>2019-03-10T11:44:57Z</time>
      </trkpt>
      <trkpt lat="49.10979" lon="1.90947">
        <ele>91.21</ele>
        <time>2019-03-10T11:45:03Z</time>
      </trkpt>
      <trkpt lat="49.10978" lon="1.90948">
        <ele>90.49</ele>
        <time>2019-03-10T11:45:04Z</time>
      </trkpt>
      <trkpt lat="49.10974" lon="1.90949">
        <ele>91.12</ele>
        <time>2019-03-10T11:45:18Z</time>
      </trkpt>
      <trkpt lat="49.10972" lon="1.90954">
        <ele>90.08</ele>
        <time>2019-03-10T11:45:22Z</time>
      </trkpt>
      <trkpt lat="49.1097" lon="1.9096">
        <ele>89.53</ele>
        <time>2019-03-10T11:45:27Z</time>
      </trkpt>
      <trkpt lat="49.10963" lon="1.90975">
        <ele>89.58</ele>
        <time>2019-03-10T11:45:38Z</time>
      </trkpt>
      <trkpt lat="49.10959" lon="1.90989">
        <ele>90.01</ele>
        <time>2019-03-10T11:45:48Z</time>
      </trkpt>
      <trkpt lat="49.10956" lon="1.90994">
        <ele>89.11</ele>
        <time>2019-03-10T11:45:52Z</time>
      </trkpt>
      <trkpt lat="49.10954" lon="1.90999">
        <ele>90.29</ele>
        <time>2019-03-10T11:45:55Z</time>
      </trkpt>
      <trkpt lat="49.10951" lon="1.91006">
        <ele>89</ele>
        <time>2019-03-10T11:45:59Z</time>
      </trkpt>
      <trkpt lat="49.10948" lon="1.91014">
        <ele>90.91</ele>
        <time>2019-03-10T11:46:04Z</time>
      </trkpt>
      <trkpt lat="49.10947" lon="1.91015">
        <ele>91.03</ele>
        <time>2019-03-10T11:46:05Z</time>
      </trkpt>
      <trkpt lat="49.10942" lon="1.91026">
        <ele>91.47</ele>
        <time>2019-03-10T11:46:12Z</time>
      </trkpt>
      <trkpt lat="49.10939" lon="1.91032">
        <ele>90.19</ele>
        <time>2019-03-10T11:46:16Z</time>
      </trkpt>
      <trkpt lat="49.10932" lon="1.91048">
        <ele>88.34</ele>
        <time>2019-03-10T11:46:26Z</time>
      </trkpt>
      <trkpt lat="49.10929" lon="1.91057">
        <ele>88.82</ele>
        <time>2019-03-10T11:46:31Z</time>
      </trkpt>
      <trkpt lat="49.10928" lon="1.91063">
        <ele>89.49</ele>
        <time>2019-03-10T11:46:36Z</time>
      </trkpt>
      <trkpt lat="49.10918" lon="1.91084">
        <ele>86.14</ele>
        <time>2019-03-10T11:46:52Z</time>
      </trkpt>
      <trkpt lat="49.10918" lon="1.91085">
        <ele>86.64</ele>
        <time>2019-03-10T11:46:53Z</time>
      </trkpt>
      <trkpt lat="49.10917" lon="1.91088">
        <ele>86.23</ele>
        <time>2019-03-10T11:46:55Z</time>
      </trkpt>
      <trkpt lat="49.10916" lon="1.91094">
        <ele>87.03</ele>
        <time>2019-03-10T11:46:59Z</time>
      </trkpt>
      <trkpt lat="49.10914" lon="1.91096">
        <ele>89.67</ele>
        <time>2019-03-10T11:47:01Z</time>
      </trkpt>
      <trkpt lat="49.10913" lon="1.91099">
        <ele>89.82</ele>
        <time>2019-03-10T11:47:03Z</time>
      </trkpt>
      <trkpt lat="49.1091" lon="1.91104">
        <ele>89.8</ele>
        <time>2019-03-10T11:47:07Z</time>
      </trkpt>
      <trkpt lat="49.10908" lon="1.91111">
        <ele>88.39</ele>
        <time>2019-03-10T11:47:11Z</time>
      </trkpt>
      <trkpt lat="49.10898" lon="1.91133">
        <ele>86.26</ele>
        <time>2019-03-10T11:47:26Z</time>
      </trkpt>
      <trkpt lat="49.10891" lon="1.91154">
        <ele>86.99</ele>
        <time>2019-03-10T11:47:39Z</time>
      </trkpt>
      <trkpt lat="49.1088" lon="1.91185">
        <ele>85.54</ele>
        <time>2019-03-10T11:48:00Z</time>
      </trkpt>
      <trkpt lat="49.10868" lon="1.91206">
        <ele>85.01</ele>
        <time>2019-03-10T11:48:16Z</time>
      </trkpt>
      <trkpt lat="49.10857" lon="1.9123">
        <ele>84.85</ele>
        <time>2019-03-10T11:48:34Z</time>
      </trkpt>
      <trkpt lat="49.10852" lon="1.91241">
        <ele>86.05</ele>
        <time>2019-03-10T11:48:41Z</time>
      </trkpt>
      <trkpt lat="49.10849" lon="1.91247">
        <ele>86.37</ele>
        <time>2019-03-10T11:48:47Z</time>
      </trkpt>
      <trkpt lat="49.10843" lon="1.91263">
        <ele>88.36</ele>
        <time>2019-03-10T11:48:59Z</time>
      </trkpt>
      <trkpt lat="49.1084" lon="1.91272">
        <ele>89.17</ele>
        <time>2019-03-10T11:49:05Z</time>
      </trkpt>
      <trkpt lat="49.10832" lon="1.91294">
        <ele>88.43</ele>
        <time>2019-03-10T11:49:21Z</time>
      </trkpt>
      <trkpt lat="49.10823" lon="1.91314">
        <ele>87.74</ele>
        <time>2019-03-10T11:49:37Z</time>
      </trkpt>
      <trkpt lat="49.10815" lon="1.91338">
        <ele>89.27</ele>
        <time>2019-03-10T11:49:52Z</time>
      </trkpt>
      <trkpt lat="49.1081" lon="1.91351">
        <ele>88.3</ele>
        <time>2019-03-10T11:50:02Z</time>
      </trkpt>
      <trkpt lat="49.10807" lon="1.91359">
        <ele>88.18</ele>
        <time>2019-03-10T11:50:07Z</time>
      </trkpt>
      <trkpt lat="49.10804" lon="1.91368">
        <ele>89.29</ele>
        <time>2019-03-10T11:50:13Z</time>
      </trkpt>
      <trkpt lat="49.10799" lon="1.91384">
        <ele>89.38</ele>
        <time>2019-03-10T11:50:24Z</time>
      </trkpt>
      <trkpt lat="49.1079" lon="1.91405">
        <ele>88.84</ele>
        <time>2019-03-10T11:50:40Z</time>
      </trkpt>
      <trkpt lat="49.10782" lon="1.91421">
        <ele>89.24</ele>
        <time>2019-03-10T11:50:55Z</time>
      </trkpt>
      <trkpt lat="49.10771" lon="1.91447">
        <ele>89.36</ele>
        <time>2019-03-10T11:51:14Z</time>
      </trkpt>
      <trkpt lat="49.10758" lon="1.91472">
        <ele>88.25</ele>
        <time>2019-03-10T11:51:32Z</time>
      </trkpt>
      <trkpt lat="49.10755" lon="1.91479">
        <ele>91.42</ele>
        <time>2019-03-10T11:51:37Z</time>
      </trkpt>
      <trkpt lat="49.10754" lon="1.91484">
        <ele>87.86</ele>
        <time>2019-03-10T11:51:40Z</time>
      </trkpt>
      <trkpt lat="49.10753" lon="1.91485">
        <ele>87.91</ele>
        <time>2019-03-10T11:51:41Z</time>
      </trkpt>
      <trkpt lat="49.10743" lon="1.9151">
        <ele>88.72</ele>
        <time>2019-03-10T11:51:59Z</time>
      </trkpt>
      <trkpt lat="49.10735" lon="1.91527">
        <ele>87.27</ele>
        <time>2019-03-10T11:52:14Z</time>
      </trkpt>
      <trkpt lat="49.10728" lon="1.91547">
        <ele>85.92</ele>
        <time>2019-03-10T11:52:31Z</time>
      </trkpt>
      <trkpt lat="49.10717" lon="1.91572">
        <ele>85.71</ele>
        <time>2019-03-10T11:52:48Z</time>
      </trkpt>
      <trkpt lat="49.10708" lon="1.91595">
        <ele>86.09</ele>
        <time>2019-03-10T11:53:05Z</time>
      </trkpt>
      <trkpt lat="49.10701" lon="1.9161">
        <ele>89.4</ele>
        <time>2019-03-10T11:53:16Z</time>
      </trkpt>
      <trkpt lat="49.10697" lon="1.91619">
        <ele>89.64</ele>
        <time>2019-03-10T11:53:22Z</time>
      </trkpt>
      <trkpt lat="49.10686" lon="1.91643">
        <ele>87.31</ele>
        <time>2019-03-10T11:53:39Z</time>
      </trkpt>
      <trkpt lat="49.10684" lon="1.91649">
        <ele>88.86</ele>
        <time>2019-03-10T11:53:43Z</time>
      </trkpt>
      <trkpt lat="49.10677" lon="1.91667">
        <ele>89.6</ele>
        <time>2019-03-10T11:53:56Z</time>
      </trkpt>
      <trkpt lat="49.10664" lon="1.91696">
        <ele>89.21</ele>
        <time>2019-03-10T11:54:16Z</time>
      </trkpt>
      <trkpt lat="49.10656" lon="1.91715">
        <ele>91.04</ele>
        <time>2019-03-10T11:54:30Z</time>
      </trkpt>
      <trkpt lat="49.10646" lon="1.91738">
        <ele>91.26</ele>
        <time>2019-03-10T11:54:46Z</time>
      </trkpt>
      <trkpt lat="49.10644" lon="1.91744">
        <ele>92.62</ele>
        <time>2019-03-10T11:54:51Z</time>
      </trkpt>
      <trkpt lat="49.10643" lon="1.91747">
        <ele>94.33</ele>
        <time>2019-03-10T11:54:53Z</time>
      </trkpt>
      <trkpt lat="49.10637" lon="1.91762">
        <ele>92.02</ele>
        <time>2019-03-10T11:55:04Z</time>
      </trkpt>
      <trkpt lat="49.10633" lon="1.91771">
        <ele>92.6</ele>
        <time>2019-03-10T11:55:10Z</time>
      </trkpt>
      <trkpt lat="49.10623" lon="1.91797">
        <ele>93.02</ele>
        <time>2019-03-10T11:55:27Z</time>
      </trkpt>
      <trkpt lat="49.10611" lon="1.91823">
        <ele>94.17</ele>
        <time>2019-03-10T11:55:45Z</time>
      </trkpt>
      <trkpt lat="49.10608" lon="1.9183">
        <ele>93.79</ele>
        <time>2019-03-10T11:55:50Z</time>
      </trkpt>
      <trkpt lat="49.10605" lon="1.91837">
        <ele>93.28</ele>
        <time>2019-03-10T11:55:54Z</time>
      </trkpt>
      <trkpt lat="49.10593" lon="1.91862">
        <ele>94.54</ele>
        <time>2019-03-10T11:56:11Z</time>
      </trkpt>
      <trkpt lat="49.10583" lon="1.91886">
        <ele>92.7</ele>
        <time>2019-03-10T11:56:28Z</time>
      </trkpt>
      <trkpt lat="49.10573" lon="1.9191">
        <ele>92.48</ele>
        <time>2019-03-10T11:56:44Z</time>
      </trkpt>
      <trkpt lat="49.10562" lon="1.91934">
        <ele>90.89</ele>
        <time>2019-03-10T11:57:00Z</time>
      </trkpt>
      <trkpt lat="49.10552" lon="1.91956">
        <ele>92.05</ele>
        <time>2019-03-10T11:57:15Z</time>
      </trkpt>
      <trkpt lat="49.10544" lon="1.91977">
        <ele>92.64</ele>
        <time>2019-03-10T11:57:30Z</time>
      </trkpt>
      <trkpt lat="49.1054" lon="1.91987">
        <ele>91.45</ele>
        <time>2019-03-10T11:57:37Z</time>
      </trkpt>
      <trkpt lat="49.10528" lon="1.92012">
        <ele>90.56</ele>
        <time>2019-03-10T11:57:55Z</time>
      </trkpt>
      <trkpt lat="49.10526" lon="1.92017">
        <ele>91.79</ele>
        <time>2019-03-10T11:57:58Z</time>
      </trkpt>
      <trkpt lat="49.1052" lon="1.92032">
        <ele>90.46</ele>
        <time>2019-03-10T11:58:09Z</time>
      </trkpt>
      <trkpt lat="49.10509" lon="1.92056">
        <ele>91.97</ele>
        <time>2019-03-10T11:58:25Z</time>
      </trkpt>
      <trkpt lat="49.10501" lon="1.92074">
        <ele>93.21</ele>
        <time>2019-03-10T11:58:37Z</time>
      </trkpt>
      <trkpt lat="49.10495" lon="1.92086">
        <ele>95.47</ele>
        <time>2019-03-10T11:58:46Z</time>
      </trkpt>
      <trkpt lat="49.10493" lon="1.92092">
        <ele>92.08</ele>
        <time>2019-03-10T11:58:50Z</time>
      </trkpt>
      <trkpt lat="49.10491" lon="1.92095">
        <ele>90.36</ele>
        <time>2019-03-10T11:58:52Z</time>
      </trkpt>
      <trkpt lat="49.10484" lon="1.92113">
        <ele>89.28</ele>
        <time>2019-03-10T11:59:05Z</time>
      </trkpt>
      <trkpt lat="49.10475" lon="1.92134">
        <ele>88.7</ele>
        <time>2019-03-10T11:59:20Z</time>
      </trkpt>
      <trkpt lat="49.10465" lon="1.92157">
        <ele>90.31</ele>
        <time>2019-03-10T11:59:37Z</time>
      </trkpt>
      <trkpt lat="49.10452" lon="1.92186">
        <ele>89.08</ele>
        <time>2019-03-10T11:59:57Z</time>
      </trkpt>
      <trkpt lat="49.10444" lon="1.92205">
        <ele>90.3</ele>
        <time>2019-03-10T12:00:12Z</time>
      </trkpt>
      <trkpt lat="49.10433" lon="1.92229">
        <ele>90.1</ele>
        <time>2019-03-10T12:00:29Z</time>
      </trkpt>
      <trkpt lat="49.10427" lon="1.92243">
        <ele>89.4</ele>
        <time>2019-03-10T12:00:38Z</time>
      </trkpt>
      <trkpt lat="49.10415" lon="1.92269">
        <ele>89.51</ele>
        <time>2019-03-10T12:00:55Z</time>
      </trkpt>
      <trkpt lat="49.10414" lon="1.92272">
        <ele>90.46</ele>
        <time>2019-03-10T12:00:57Z</time>
      </trkpt>
      <trkpt lat="49.10405" lon="1.92294">
        <ele>89.35</ele>
        <time>2019-03-10T12:01:13Z</time>
      </trkpt>
      <trkpt lat="49.10395" lon="1.9232">
        <ele>88.38</ele>
        <time>2019-03-10T12:01:31Z</time>
      </trkpt>
      <trkpt lat="49.10394" lon="1.92323">
        <ele>89.66</ele>
        <time>2019-03-10T12:01:33Z</time>
      </trkpt>
      <trkpt lat="49.10384" lon="1.92347">
        <ele>90.33</ele>
        <time>2019-03-10T12:01:49Z</time>
      </trkpt>
      <trkpt lat="49.1038" lon="1.92356">
        <ele>89.49</ele>
        <time>2019-03-10T12:01:55Z</time>
      </trkpt>
      <trkpt lat="49.10374" lon="1.92367">
        <ele>87.87</ele>
        <time>2019-03-10T12:02:03Z</time>
      </trkpt>
      <trkpt lat="49.10365" lon="1.92388">
        <ele>87.55</ele>
        <time>2019-03-10T12:02:18Z</time>
      </trkpt>
      <trkpt lat="49.1036" lon="1.92402">
        <ele>91.26</ele>
        <time>2019-03-10T12:02:27Z</time>
      </trkpt>
      <trkpt lat="49.10359" lon="1.92404">
        <ele>89.96</ele>
        <time>2019-03-10T12:02:28Z</time>
      </trkpt>
      <trkpt lat="49.10354" lon="1.92418">
        <ele>87.51</ele>
        <time>2019-03-10T12:02:37Z</time>
      </trkpt>
      <trkpt lat="49.10349" lon="1.92436">
        <ele>88.43</ele>
        <time>2019-03-10T12:02:48Z</time>
      </trkpt>
      <trkpt lat="49.10338" lon="1.92461">
        <ele>89.44</ele>
        <time>2019-03-10T12:03:06Z</time>
      </trkpt>
      <trkpt lat="49.10327" lon="1.92482">
        <ele>87.67</ele>
        <time>2019-03-10T12:03:23Z</time>
      </trkpt>
      <trkpt lat="49.10319" lon="1.92504">
        <ele>86.92</ele>
        <time>2019-03-10T12:03:39Z</time>
      </trkpt>
      <trkpt lat="49.1031" lon="1.92525">
        <ele>86.78</ele>
        <time>2019-03-10T12:03:55Z</time>
      </trkpt>
      <trkpt lat="49.10299" lon="1.92547">
        <ele>85.67</ele>
        <time>2019-03-10T12:04:12Z</time>
      </trkpt>
      <trkpt lat="49.10292" lon="1.92566">
        <ele>84.59</ele>
        <time>2019-03-10T12:04:27Z</time>
      </trkpt>
      <trkpt lat="49.10291" lon="1.92568">
        <ele>84.54</ele>
        <time>2019-03-10T12:04:28Z</time>
      </trkpt>
      <trkpt lat="49.10289" lon="1.92577">
        <ele>84.15</ele>
        <time>2019-03-10T12:04:34Z</time>
      </trkpt>
      <trkpt lat="49.10279" lon="1.92598">
        <ele>83.62</ele>
        <time>2019-03-10T12:04:51Z</time>
      </trkpt>
      <trkpt lat="49.1028" lon="1.926">
        <ele>83.22</ele>
        <time>2019-03-10T12:05:11Z</time>
      </trkpt>
      <trkpt lat="49.10281" lon="1.92601">
        <ele>83.83</ele>
        <time>2019-03-10T12:05:33Z</time>
      </trkpt>
      <trkpt lat="49.10281" lon="1.92603">
        <ele>84.5</ele>
        <time>2019-03-10T12:05:59Z</time>
      </trkpt>
      <trkpt lat="49.10281" lon="1.92603">
        <ele>83.11</ele>
        <time>2019-03-10T12:06:03Z</time>
      </trkpt>
      <trkpt lat="49.1028" lon="1.92602">
        <ele>86.56</ele>
        <time>2019-03-10T12:06:19Z</time>
      </trkpt>
      <trkpt lat="49.10282" lon="1.92606">
        <ele>83.25</ele>
        <time>2019-03-10T12:06:26Z</time>
      </trkpt>
      <trkpt lat="49.10283" lon="1.92607">
        <ele>85.39</ele>
        <time>2019-03-10T12:06:29Z</time>
      </trkpt>
      <trkpt lat="49.10282" lon="1.92606">
        <ele>82.91</ele>
        <time>2019-03-10T12:06:46Z</time>
      </trkpt>
      <trkpt lat="49.1028" lon="1.92609">
        <ele>84.7</ele>
        <time>2019-03-10T12:06:56Z</time>
      </trkpt>
      <trkpt lat="49.10276" lon="1.92612">
        <ele>83.87</ele>
        <time>2019-03-10T12:07:00Z</time>
      </trkpt>
      <trkpt lat="49.10266" lon="1.9263">
        <ele>85.13</ele>
        <time>2019-03-10T12:07:18Z</time>
      </trkpt>
      <trkpt lat="49.10258" lon="1.92647">
        <ele>85.05</ele>
        <time>2019-03-10T12:07:36Z</time>
      </trkpt>
      <trkpt lat="49.10256" lon="1.92655">
        <ele>85.4</ele>
        <time>2019-03-10T12:07:44Z</time>
      </trkpt>
      <trkpt lat="49.10256" lon="1.9266">
        <ele>85.35</ele>
        <time>2019-03-10T12:07:47Z</time>
      </trkpt>
      <trkpt lat="49.10246" lon="1.92685">
        <ele>85.21</ele>
        <time>2019-03-10T12:08:07Z</time>
      </trkpt>
      <trkpt lat="49.10242" lon="1.92691">
        <ele>88.53</ele>
        <time>2019-03-10T12:08:13Z</time>
      </trkpt>
      <trkpt lat="49.10237" lon="1.927">
        <ele>87.58</ele>
        <time>2019-03-10T12:08:23Z</time>
      </trkpt>
      <trkpt lat="49.10233" lon="1.92708">
        <ele>87.73</ele>
        <time>2019-03-10T12:08:29Z</time>
      </trkpt>
      <trkpt lat="49.10223" lon="1.9273">
        <ele>88.99</ele>
        <time>2019-03-10T12:08:47Z</time>
      </trkpt>
      <trkpt lat="49.10215" lon="1.9275">
        <ele>89.02</ele>
        <time>2019-03-10T12:09:03Z</time>
      </trkpt>
      <trkpt lat="49.10206" lon="1.92772">
        <ele>89.78</ele>
        <time>2019-03-10T12:09:20Z</time>
      </trkpt>
      <trkpt lat="49.10199" lon="1.92789">
        <ele>94.01</ele>
        <time>2019-03-10T12:09:33Z</time>
      </trkpt>
      <trkpt lat="49.10189" lon="1.92811">
        <ele>91.69</ele>
        <time>2019-03-10T12:09:49Z</time>
      </trkpt>
      <trkpt lat="49.10179" lon="1.92834">
        <ele>91.79</ele>
        <time>2019-03-10T12:10:06Z</time>
      </trkpt>
      <trkpt lat="49.1017" lon="1.92855">
        <ele>93.01</ele>
        <time>2019-03-10T12:10:22Z</time>
      </trkpt>
      <trkpt lat="49.10163" lon="1.92874">
        <ele>93.72</ele>
        <time>2019-03-10T12:10:37Z</time>
      </trkpt>
      <trkpt lat="49.10154" lon="1.92897">
        <ele>94.44</ele>
        <time>2019-03-10T12:10:54Z</time>
      </trkpt>
      <trkpt lat="49.10143" lon="1.92919">
        <ele>95.81</ele>
        <time>2019-03-10T12:11:11Z</time>
      </trkpt>
      <trkpt lat="49.10138" lon="1.92932">
        <ele>99.89</ele>
        <time>2019-03-10T12:11:21Z</time>
      </trkpt>
      <trkpt lat="49.10138" lon="1.92934">
        <ele>99.88</ele>
        <time>2019-03-10T12:11:22Z</time>
      </trkpt>
      <trkpt lat="49.10135" lon="1.92937">
        <ele>98.41</ele>
        <time>2019-03-10T12:11:25Z</time>
      </trkpt>
      <trkpt lat="49.10132" lon="1.92945">
        <ele>98.56</ele>
        <time>2019-03-10T12:11:32Z</time>
      </trkpt>
      <trkpt lat="49.10131" lon="1.92949">
        <ele>98.9</ele>
        <time>2019-03-10T12:11:35Z</time>
      </trkpt>
      <trkpt lat="49.10121" lon="1.92973">
        <ele>98.56</ele>
        <time>2019-03-10T12:11:54Z</time>
      </trkpt>
      <trkpt lat="49.10108" lon="1.93005">
        <ele>99.8</ele>
        <time>2019-03-10T12:12:16Z</time>
      </trkpt>
      <trkpt lat="49.10099" lon="1.93027">
        <ele>100.13</ele>
        <time>2019-03-10T12:12:36Z</time>
      </trkpt>
      <trkpt lat="49.10095" lon="1.93036">
        <ele>99.47</ele>
        <time>2019-03-10T12:13:00Z</time>
      </trkpt>
      <trkpt lat="49.10093" lon="1.93043">
        <ele>100.77</ele>
        <time>2019-03-10T12:13:06Z</time>
      </trkpt>
      <trkpt lat="49.10089" lon="1.93055">
        <ele>99.38</ele>
        <time>2019-03-10T12:13:20Z</time>
      </trkpt>
      <trkpt lat="49.10087" lon="1.93062">
        <ele>102.69</ele>
        <time>2019-03-10T12:13:25Z</time>
      </trkpt>
      <trkpt lat="49.10083" lon="1.93072">
        <ele>99.94</ele>
        <time>2019-03-10T12:13:36Z</time>
      </trkpt>
      <trkpt lat="49.10077" lon="1.93085">
        <ele>100.92</ele>
        <time>2019-03-10T12:13:47Z</time>
      </trkpt>
      <trkpt lat="49.10074" lon="1.93092">
        <ele>102.75</ele>
        <time>2019-03-10T12:13:52Z</time>
      </trkpt>
      <trkpt lat="49.10074" lon="1.93093">
        <ele>101.95</ele>
        <time>2019-03-10T12:13:53Z</time>
      </trkpt>
      <trkpt lat="49.1007" lon="1.93101">
        <ele>99.71</ele>
        <time>2019-03-10T12:13:59Z</time>
      </trkpt>
      <trkpt lat="49.1006" lon="1.93125">
        <ele>101.4</ele>
        <time>2019-03-10T12:14:17Z</time>
      </trkpt>
      <trkpt lat="49.10049" lon="1.93149">
        <ele>99.1</ele>
        <time>2019-03-10T12:14:35Z</time>
      </trkpt>
      <trkpt lat="49.10038" lon="1.93175">
        <ele>99.23</ele>
        <time>2019-03-10T12:14:54Z</time>
      </trkpt>
      <trkpt lat="49.10027" lon="1.93199">
        <ele>101.03</ele>
        <time>2019-03-10T12:15:11Z</time>
      </trkpt>
      <trkpt lat="49.10016" lon="1.93225">
        <ele>99.3</ele>
        <time>2019-03-10T12:15:31Z</time>
      </trkpt>
      <trkpt lat="49.10013" lon="1.93233">
        <ele>99.88</ele>
        <time>2019-03-10T12:15:37Z</time>
      </trkpt>
      <trkpt lat="49.10003" lon="1.93257">
        <ele>98.91</ele>
        <time>2019-03-10T12:15:54Z</time>
      </trkpt>
      <trkpt lat="49.10001" lon="1.93263">
        <ele>98.59</ele>
        <time>2019-03-10T12:15:59Z</time>
      </trkpt>
      <trkpt lat="49.1" lon="1.93269">
        <ele>99.04</ele>
        <time>2019-03-10T12:16:06Z</time>
      </trkpt>
      <trkpt lat="49.09996" lon="1.93277">
        <ele>98.27</ele>
        <time>2019-03-10T12:16:11Z</time>
      </trkpt>
      <trkpt lat="49.09982" lon="1.93307">
        <ele>97.7</ele>
        <time>2019-03-10T12:16:29Z</time>
      </trkpt>
      <trkpt lat="49.09971" lon="1.93331">
        <ele>97.56</ele>
        <time>2019-03-10T12:16:47Z</time>
      </trkpt>
      <trkpt lat="49.09964" lon="1.93347">
        <ele>98.01</ele>
        <time>2019-03-10T12:16:58Z</time>
      </trkpt>
      <trkpt lat="49.09954" lon="1.9337">
        <ele>97.79</ele>
        <time>2019-03-10T12:17:14Z</time>
      </trkpt>
      <trkpt lat="49.09951" lon="1.93377">
        <ele>99.3</ele>
        <time>2019-03-10T12:17:18Z</time>
      </trkpt>
      <trkpt lat="49.09938" lon="1.93408">
        <ele>96.96</ele>
        <time>2019-03-10T12:17:40Z</time>
      </trkpt>
      <trkpt lat="49.09926" lon="1.93436">
        <ele>95.79</ele>
        <time>2019-03-10T12:17:59Z</time>
      </trkpt>
      <trkpt lat="49.09912" lon="1.93469">
        <ele>95.2</ele>
        <time>2019-03-10T12:18:22Z</time>
      </trkpt>
      <trkpt lat="49.09901" lon="1.93497">
        <ele>94.26</ele>
        <time>2019-03-10T12:18:41Z</time>
      </trkpt>
      <trkpt lat="49.09888" lon="1.93528">
        <ele>96.19</ele>
        <time>2019-03-10T12:19:03Z</time>
      </trkpt>
      <trkpt lat="49.09876" lon="1.93556">
        <ele>95.13</ele>
        <time>2019-03-10T12:19:23Z</time>
      </trkpt>
      <trkpt lat="49.09876" lon="1.93557">
        <ele>95.22</ele>
        <time>2019-03-10T12:19:24Z</time>
      </trkpt>
      <trkpt lat="49.09866" lon="1.9358">
        <ele>94.79</ele>
        <time>2019-03-10T12:19:40Z</time>
      </trkpt>
      <trkpt lat="49.09861" lon="1.93589">
        <ele>97.92</ele>
        <time>2019-03-10T12:19:47Z</time>
      </trkpt>
      <trkpt lat="49.0986" lon="1.93592">
        <ele>94.8</ele>
        <time>2019-03-10T12:19:49Z</time>
      </trkpt>
      <trkpt lat="49.09859" lon="1.93593">
        <ele>94.88</ele>
        <time>2019-03-10T12:19:50Z</time>
      </trkpt>
      <trkpt lat="49.09855" lon="1.93602">
        <ele>96.48</ele>
        <time>2019-03-10T12:19:56Z</time>
      </trkpt>
      <trkpt lat="49.09844" lon="1.93627">
        <ele>95.54</ele>
        <time>2019-03-10T12:20:14Z</time>
      </trkpt>
      <trkpt lat="49.0984" lon="1.93638">
        <ele>93.39</ele>
        <time>2019-03-10T12:20:21Z</time>
      </trkpt>
      <trkpt lat="49.09836" lon="1.93647">
        <ele>94.24</ele>
        <time>2019-03-10T12:20:28Z</time>
      </trkpt>
      <trkpt lat="49.09831" lon="1.93659">
        <ele>92.52</ele>
        <time>2019-03-10T12:20:36Z</time>
      </trkpt>
      <trkpt lat="49.0982" lon="1.93685">
        <ele>94.44</ele>
        <time>2019-03-10T12:20:55Z</time>
      </trkpt>
      <trkpt lat="49.09815" lon="1.93696">
        <ele>93.16</ele>
        <time>2019-03-10T12:21:03Z</time>
      </trkpt>
      <trkpt lat="49.09809" lon="1.93711">
        <ele>92.88</ele>
        <time>2019-03-10T12:21:14Z</time>
      </trkpt>
      <trkpt lat="49.09805" lon="1.93722">
        <ele>96.57</ele>
        <time>2019-03-10T12:21:21Z</time>
      </trkpt>
      <trkpt lat="49.09805" lon="1.93723">
        <ele>96</ele>
        <time>2019-03-10T12:21:22Z</time>
      </trkpt>
      <trkpt lat="49.09801" lon="1.93731">
        <ele>93.49</ele>
        <time>2019-03-10T12:21:28Z</time>
      </trkpt>
      <trkpt lat="49.09795" lon="1.93747">
        <ele>94.28</ele>
        <time>2019-03-10T12:21:39Z</time>
      </trkpt>
      <trkpt lat="49.09794" lon="1.93752">
        <ele>93.96</ele>
        <time>2019-03-10T12:21:42Z</time>
      </trkpt>
      <trkpt lat="49.09791" lon="1.93755">
        <ele>93.76</ele>
        <time>2019-03-10T12:21:45Z</time>
      </trkpt>
      <trkpt lat="49.09787" lon="1.93765">
        <ele>93.04</ele>
        <time>2019-03-10T12:21:52Z</time>
      </trkpt>
      <trkpt lat="49.09785" lon="1.93771">
        <ele>94.76</ele>
        <time>2019-03-10T12:22:07Z</time>
      </trkpt>
      <trkpt lat="49.09784" lon="1.93774">
        <ele>97.13</ele>
        <time>2019-03-10T12:22:10Z</time>
      </trkpt>
      <trkpt lat="49.09782" lon="1.93778">
        <ele>96.14</ele>
        <time>2019-03-10T12:22:15Z</time>
      </trkpt>
      <trkpt lat="49.0978" lon="1.93782">
        <ele>94.08</ele>
        <time>2019-03-10T12:22:17Z</time>
      </trkpt>
      <trkpt lat="49.09779" lon="1.93785">
        <ele>94.38</ele>
        <time>2019-03-10T12:22:18Z</time>
      </trkpt>
      <trkpt lat="49.09778" lon="1.93788">
        <ele>94.84</ele>
        <time>2019-03-10T12:22:19Z</time>
      </trkpt>
      <trkpt lat="49.09779" lon="1.9379">
        <ele>90.83</ele>
        <time>2019-03-10T12:22:23Z</time>
      </trkpt>
      <trkpt lat="49.09779" lon="1.93788">
        <ele>94.25</ele>
        <time>2019-03-10T12:22:28Z</time>
      </trkpt>
      <trkpt lat="49.09779" lon="1.93787">
        <ele>89.93</ele>
        <time>2019-03-10T12:22:31Z</time>
      </trkpt>
      <trkpt lat="49.09779" lon="1.93787">
        <ele>93.77</ele>
        <time>2019-03-10T12:22:33Z</time>
      </trkpt>
      <trkpt lat="49.09779" lon="1.93787">
        <ele>90.7</ele>
        <time>2019-03-10T12:22:35Z</time>
      </trkpt>
      <trkpt lat="49.0978" lon="1.93787">
        <ele>91.15</ele>
        <time>2019-03-10T12:22:36Z</time>
      </trkpt>
      <trkpt lat="49.0978" lon="1.93787">
        <ele>92.81</ele>
        <time>2019-03-10T12:22:38Z</time>
      </trkpt>
      <trkpt lat="49.09779" lon="1.93785">
        <ele>95.4</ele>
        <time>2019-03-10T12:22:49Z</time>
      </trkpt>
      <trkpt lat="49.09778" lon="1.93787">
        <ele>93.62</ele>
        <time>2019-03-10T12:22:55Z</time>
      </trkpt>
      <trkpt lat="49.09778" lon="1.93788">
        <ele>97.36</ele>
        <time>2019-03-10T12:23:00Z</time>
      </trkpt>
      <trkpt lat="49.09777" lon="1.9379">
        <ele>95.92</ele>
        <time>2019-03-10T12:23:01Z</time>
      </trkpt>
      <trkpt lat="49.09777" lon="1.93792">
        <ele>95.12</ele>
        <time>2019-03-10T12:23:03Z</time>
      </trkpt>
      <trkpt lat="49.09776" lon="1.93795">
        <ele>94.42</ele>
        <time>2019-03-10T12:23:05Z</time>
      </trkpt>
      <trkpt lat="49.09774" lon="1.93798">
        <ele>95.57</ele>
        <time>2019-03-10T12:23:08Z</time>
      </trkpt>
      <trkpt lat="49.09774" lon="1.938">
        <ele>95.58</ele>
        <time>2019-03-10T12:23:09Z</time>
      </trkpt>
      <trkpt lat="49.09768" lon="1.93813">
        <ele>95.69</ele>
        <time>2019-03-10T12:23:20Z</time>
      </trkpt>
      <trkpt lat="49.09767" lon="1.93815">
        <ele>92.33</ele>
        <time>2019-03-10T12:23:23Z</time>
      </trkpt>
      <trkpt lat="49.09766" lon="1.93818">
        <ele>96.03</ele>
        <time>2019-03-10T12:23:27Z</time>
      </trkpt>
      <trkpt lat="49.09765" lon="1.93819">
        <ele>95.82</ele>
        <time>2019-03-10T12:23:28Z</time>
      </trkpt>
      <trkpt lat="49.09764" lon="1.93821">
        <ele>96.51</ele>
        <time>2019-03-10T12:23:29Z</time>
      </trkpt>
      <trkpt lat="49.09764" lon="1.93822">
        <ele>96.3</ele>
        <time>2019-03-10T12:23:30Z</time>
      </trkpt>
      <trkpt lat="49.09763" lon="1.93824">
        <ele>96.91</ele>
        <time>2019-03-10T12:23:31Z</time>
      </trkpt>
      <trkpt lat="49.09763" lon="1.93825">
        <ele>96.89</ele>
        <time>2019-03-10T12:23:32Z</time>
      </trkpt>
      <trkpt lat="49.09762" lon="1.93826">
        <ele>96.56</ele>
        <time>2019-03-10T12:23:33Z</time>
      </trkpt>
      <trkpt lat="49.09762" lon="1.93828">
        <ele>96.55</ele>
        <time>2019-03-10T12:23:34Z</time>
      </trkpt>
      <trkpt lat="49.09754" lon="1.93851">
        <ele>97.97</ele>
        <time>2019-03-10T12:23:50Z</time>
      </trkpt>
      <trkpt lat="49.09742" lon="1.93877">
        <ele>99.32</ele>
        <time>2019-03-10T12:24:09Z</time>
      </trkpt>
      <trkpt lat="49.09731" lon="1.93902">
        <ele>99.62</ele>
        <time>2019-03-10T12:24:27Z</time>
      </trkpt>
      <trkpt lat="49.09719" lon="1.93933">
        <ele>100.18</ele>
        <time>2019-03-10T12:24:50Z</time>
      </trkpt>
      <trkpt lat="49.09717" lon="1.93938">
        <ele>101.4</ele>
        <time>2019-03-10T12:24:53Z</time>
      </trkpt>
      <trkpt lat="49.09715" lon="1.93942">
        <ele>100.02</ele>
        <time>2019-03-10T12:24:56Z</time>
      </trkpt>
      <trkpt lat="49.09707" lon="1.93961">
        <ele>100.78</ele>
        <time>2019-03-10T12:25:10Z</time>
      </trkpt>
      <trkpt lat="49.09696" lon="1.93986">
        <ele>100.86</ele>
        <time>2019-03-10T12:25:28Z</time>
      </trkpt>
      <trkpt lat="49.0969" lon="1.94001">
        <ele>103.86</ele>
        <time>2019-03-10T12:25:38Z</time>
      </trkpt>
      <trkpt lat="49.09685" lon="1.9401">
        <ele>103.43</ele>
        <time>2019-03-10T12:25:45Z</time>
      </trkpt>
      <trkpt lat="49.09683" lon="1.94016">
        <ele>103.79</ele>
        <time>2019-03-10T12:25:49Z</time>
      </trkpt>
      <trkpt lat="49.09682" lon="1.94018">
        <ele>104.7</ele>
        <time>2019-03-10T12:25:50Z</time>
      </trkpt>
      <trkpt lat="49.09682" lon="1.94019">
        <ele>103.87</ele>
        <time>2019-03-10T12:25:51Z</time>
      </trkpt>
      <trkpt lat="49.09675" lon="1.94033">
        <ele>101.31</ele>
        <time>2019-03-10T12:26:01Z</time>
      </trkpt>
      <trkpt lat="49.09673" lon="1.94039">
        <ele>103.26</ele>
        <time>2019-03-10T12:26:05Z</time>
      </trkpt>
      <trkpt lat="49.09666" lon="1.94054">
        <ele>100.88</ele>
        <time>2019-03-10T12:26:15Z</time>
      </trkpt>
      <trkpt lat="49.09656" lon="1.94079">
        <ele>102.32</ele>
        <time>2019-03-10T12:26:33Z</time>
      </trkpt>
      <trkpt lat="49.09645" lon="1.94103">
        <ele>101.34</ele>
        <time>2019-03-10T12:26:50Z</time>
      </trkpt>
      <trkpt lat="49.09645" lon="1.94105">
        <ele>101.46</ele>
        <time>2019-03-10T12:26:51Z</time>
      </trkpt>
      <trkpt lat="49.09634" lon="1.94131">
        <ele>105.36</ele>
        <time>2019-03-10T12:27:09Z</time>
      </trkpt>
      <trkpt lat="49.09628" lon="1.94143">
        <ele>101.67</ele>
        <time>2019-03-10T12:27:17Z</time>
      </trkpt>
      <trkpt lat="49.09623" lon="1.94154">
        <ele>100.41</ele>
        <time>2019-03-10T12:27:25Z</time>
      </trkpt>
      <trkpt lat="49.09617" lon="1.9417">
        <ele>103.43</ele>
        <time>2019-03-10T12:27:35Z</time>
      </trkpt>
      <trkpt lat="49.09617" lon="1.94171">
        <ele>103.23</ele>
        <time>2019-03-10T12:27:36Z</time>
      </trkpt>
      <trkpt lat="49.09615" lon="1.94175">
        <ele>101.42</ele>
        <time>2019-03-10T12:27:39Z</time>
      </trkpt>
      <trkpt lat="49.09604" lon="1.942">
        <ele>101.32</ele>
        <time>2019-03-10T12:27:56Z</time>
      </trkpt>
      <trkpt lat="49.09601" lon="1.94206">
        <ele>104.43</ele>
        <time>2019-03-10T12:28:00Z</time>
      </trkpt>
      <trkpt lat="49.09599" lon="1.94212">
        <ele>102.12</ele>
        <time>2019-03-10T12:28:04Z</time>
      </trkpt>
      <trkpt lat="49.09598" lon="1.94215">
        <ele>100.7</ele>
        <time>2019-03-10T12:28:06Z</time>
      </trkpt>
      <trkpt lat="49.09594" lon="1.94224">
        <ele>100.81</ele>
        <time>2019-03-10T12:28:12Z</time>
      </trkpt>
      <trkpt lat="49.0959" lon="1.94233">
        <ele>101.29</ele>
        <time>2019-03-10T12:28:18Z</time>
      </trkpt>
      <trkpt lat="49.0959" lon="1.94234">
        <ele>100.32</ele>
        <time>2019-03-10T12:28:19Z</time>
      </trkpt>
      <trkpt lat="49.09589" lon="1.94236">
        <ele>101</ele>
        <time>2019-03-10T12:28:20Z</time>
      </trkpt>
      <trkpt lat="49.09587" lon="1.9424">
        <ele>99.58</ele>
        <time>2019-03-10T12:28:23Z</time>
      </trkpt>
      <trkpt lat="49.09575" lon="1.94271">
        <ele>99.85</ele>
        <time>2019-03-10T12:28:44Z</time>
      </trkpt>
      <trkpt lat="49.09575" lon="1.94272">
        <ele>100.11</ele>
        <time>2019-03-10T12:28:45Z</time>
      </trkpt>
      <trkpt lat="49.09569" lon="1.94287">
        <ele>96.97</ele>
        <time>2019-03-10T12:28:55Z</time>
      </trkpt>
      <trkpt lat="49.09568" lon="1.94288">
        <ele>96.87</ele>
        <time>2019-03-10T12:28:56Z</time>
      </trkpt>
      <trkpt lat="49.0956" lon="1.9431">
        <ele>98.38</ele>
        <time>2019-03-10T12:29:12Z</time>
      </trkpt>
      <trkpt lat="49.09558" lon="1.94314">
        <ele>98.6</ele>
        <time>2019-03-10T12:29:20Z</time>
      </trkpt>
      <trkpt lat="49.09558" lon="1.94313">
        <ele>97.15</ele>
        <time>2019-03-10T12:29:37Z</time>
      </trkpt>
      <trkpt lat="49.09557" lon="1.94315">
        <ele>97.2</ele>
        <time>2019-03-10T12:29:58Z</time>
      </trkpt>
      <trkpt lat="49.09557" lon="1.94316">
        <ele>96.81</ele>
        <time>2019-03-10T12:30:21Z</time>
      </trkpt>
      <trkpt lat="49.09554" lon="1.9432">
        <ele>97.03</ele>
        <time>2019-03-10T12:30:25Z</time>
      </trkpt>
      <trkpt lat="49.09554" lon="1.94321">
        <ele>96.86</ele>
        <time>2019-03-10T12:30:26Z</time>
      </trkpt>
      <trkpt lat="49.09553" lon="1.94323">
        <ele>96.61</ele>
        <time>2019-03-10T12:30:27Z</time>
      </trkpt>
      <trkpt lat="49.09553" lon="1.94325">
        <ele>96.56</ele>
        <time>2019-03-10T12:30:28Z</time>
      </trkpt>
      <trkpt lat="49.09552" lon="1.94326">
        <ele>96.57</ele>
        <time>2019-03-10T12:30:29Z</time>
      </trkpt>
      <trkpt lat="49.09551" lon="1.94327">
        <ele>96.46</ele>
        <time>2019-03-10T12:30:30Z</time>
      </trkpt>
      <trkpt lat="49.09551" lon="1.94329">
        <ele>96.01</ele>
        <time>2019-03-10T12:30:31Z</time>
      </trkpt>
      <trkpt lat="49.0955" lon="1.9433">
        <ele>95.64</ele>
        <time>2019-03-10T12:30:32Z</time>
      </trkpt>
      <trkpt lat="49.0955" lon="1.94332">
        <ele>96.32</ele>
        <time>2019-03-10T12:30:33Z</time>
      </trkpt>
      <trkpt lat="49.09543" lon="1.94359">
        <ele>95.49</ele>
        <time>2019-03-10T12:30:49Z</time>
      </trkpt>
      <trkpt lat="49.09543" lon="1.94363">
        <ele>97.03</ele>
        <time>2019-03-10T12:30:52Z</time>
      </trkpt>
      <trkpt lat="49.09544" lon="1.94364">
        <ele>97.13</ele>
        <time>2019-03-10T12:30:53Z</time>
      </trkpt>
      <trkpt lat="49.09548" lon="1.94369">
        <ele>97.07</ele>
        <time>2019-03-10T12:30:58Z</time>
      </trkpt>
      <trkpt lat="49.09548" lon="1.9437">
        <ele>97.11</ele>
        <time>2019-03-10T12:30:59Z</time>
      </trkpt>
      <trkpt lat="49.09548" lon="1.94369">
        <ele>93.89</ele>
        <time>2019-03-10T12:31:09Z</time>
      </trkpt>
      <trkpt lat="49.09548" lon="1.94369">
        <ele>96.96</ele>
        <time>2019-03-10T12:31:10Z</time>
      </trkpt>
      <trkpt lat="49.09546" lon="1.9437">
        <ele>97.79</ele>
        <time>2019-03-10T12:31:24Z</time>
      </trkpt>
      <trkpt lat="49.09548" lon="1.94373">
        <ele>91.9</ele>
        <time>2019-03-10T12:31:28Z</time>
      </trkpt>
      <trkpt lat="49.09548" lon="1.94373">
        <ele>97.07</ele>
        <time>2019-03-10T12:31:29Z</time>
      </trkpt>
      <trkpt lat="49.0955" lon="1.94374">
        <ele>94.95</ele>
        <time>2019-03-10T12:31:31Z</time>
      </trkpt>
      <trkpt lat="49.09551" lon="1.94375">
        <ele>95.73</ele>
        <time>2019-03-10T12:31:32Z</time>
      </trkpt>
      <trkpt lat="49.09552" lon="1.94376">
        <ele>96.5</ele>
        <time>2019-03-10T12:31:33Z</time>
      </trkpt>
      <trkpt lat="49.09553" lon="1.94378">
        <ele>97.05</ele>
        <time>2019-03-10T12:31:34Z</time>
      </trkpt>
      <trkpt lat="49.09554" lon="1.94379">
        <ele>95.61</ele>
        <time>2019-03-10T12:31:35Z</time>
      </trkpt>
      <trkpt lat="49.09563" lon="1.94392">
        <ele>95.91</ele>
        <time>2019-03-10T12:31:44Z</time>
      </trkpt>
      <trkpt lat="49.09569" lon="1.94401">
        <ele>94.88</ele>
        <time>2019-03-10T12:31:50Z</time>
      </trkpt>
      <trkpt lat="49.09584" lon="1.94424">
        <ele>95.75</ele>
        <time>2019-03-10T12:32:07Z</time>
      </trkpt>
      <trkpt lat="49.09587" lon="1.94429">
        <ele>96.7</ele>
        <time>2019-03-10T12:32:13Z</time>
      </trkpt>
      <trkpt lat="49.09588" lon="1.94431">
        <ele>96.37</ele>
        <time>2019-03-10T12:32:14Z</time>
      </trkpt>
      <trkpt lat="49.09588" lon="1.94432">
        <ele>96.73</ele>
        <time>2019-03-10T12:32:15Z</time>
      </trkpt>
      <trkpt lat="49.09591" lon="1.94436">
        <ele>98.14</ele>
        <time>2019-03-10T12:32:18Z</time>
      </trkpt>
      <trkpt lat="49.09603" lon="1.94455">
        <ele>98.2</ele>
        <time>2019-03-10T12:32:33Z</time>
      </trkpt>
      <trkpt lat="49.09602" lon="1.94453">
        <ele>94</ele>
        <time>2019-03-10T12:32:35Z</time>
      </trkpt>
      <trkpt lat="49.096" lon="1.94451">
        <ele>92.79</ele>
        <time>2019-03-10T12:32:37Z</time>
      </trkpt>
      <trkpt lat="49.09599" lon="1.9445">
        <ele>92.95</ele>
        <time>2019-03-10T12:32:38Z</time>
      </trkpt>
      <trkpt lat="49.09598" lon="1.94446">
        <ele>98.42</ele>
        <time>2019-03-10T12:32:41Z</time>
      </trkpt>
      <trkpt lat="49.09596" lon="1.94444">
        <ele>97.04</ele>
        <time>2019-03-10T12:32:54Z</time>
      </trkpt>
      <trkpt lat="49.09596" lon="1.94445">
        <ele>100.54</ele>
        <time>2019-03-10T12:33:02Z</time>
      </trkpt>
      <trkpt lat="49.09597" lon="1.94445">
        <ele>97.21</ele>
        <time>2019-03-10T12:33:03Z</time>
      </trkpt>
      <trkpt lat="49.09597" lon="1.94445">
        <ele>97.09</ele>
        <time>2019-03-10T12:33:04Z</time>
      </trkpt>
      <trkpt lat="49.09597" lon="1.94447">
        <ele>96.51</ele>
        <time>2019-03-10T12:33:12Z</time>
      </trkpt>
      <trkpt lat="49.09598" lon="1.94449">
        <ele>99.53</ele>
        <time>2019-03-10T12:33:14Z</time>
      </trkpt>
      <trkpt lat="49.09598" lon="1.94451">
        <ele>99.16</ele>
        <time>2019-03-10T12:33:21Z</time>
      </trkpt>
      <trkpt lat="49.09598" lon="1.94452">
        <ele>95.65</ele>
        <time>2019-03-10T12:33:30Z</time>
      </trkpt>
      <trkpt lat="49.096" lon="1.94453">
        <ele>99.62</ele>
        <time>2019-03-10T12:33:34Z</time>
      </trkpt>
      <trkpt lat="49.096" lon="1.94455">
        <ele>96.61</ele>
        <time>2019-03-10T12:33:48Z</time>
      </trkpt>
      <trkpt lat="49.096" lon="1.94454">
        <ele>98.48</ele>
        <time>2019-03-10T12:33:52Z</time>
      </trkpt>
      <trkpt lat="49.09601" lon="1.94454">
        <ele>94.92</ele>
        <time>2019-03-10T12:33:55Z</time>
      </trkpt>
      <trkpt lat="49.09601" lon="1.94454">
        <ele>97.47</ele>
        <time>2019-03-10T12:33:58Z</time>
      </trkpt>
      <trkpt lat="49.09602" lon="1.94455">
        <ele>96</ele>
        <time>2019-03-10T12:34:15Z</time>
      </trkpt>
      <trkpt lat="49.09602" lon="1.94458">
        <ele>97.39</ele>
        <time>2019-03-10T12:34:25Z</time>
      </trkpt>
      <trkpt lat="49.09604" lon="1.94457">
        <ele>94.7</ele>
        <time>2019-03-10T12:34:38Z</time>
      </trkpt>
      <trkpt lat="49.09604" lon="1.94457">
        <ele>98.29</ele>
        <time>2019-03-10T12:34:39Z</time>
      </trkpt>
      <trkpt lat="49.09604" lon="1.94457">
        <ele>98.11</ele>
        <time>2019-03-10T12:34:40Z</time>
      </trkpt>
      <trkpt lat="49.09605" lon="1.94459">
        <ele>94.82</ele>
        <time>2019-03-10T12:34:48Z</time>
      </trkpt>
      <trkpt lat="49.09605" lon="1.94459">
        <ele>95.05</ele>
        <time>2019-03-10T12:34:49Z</time>
      </trkpt>
      <trkpt lat="49.09605" lon="1.94463">
        <ele>94.91</ele>
        <time>2019-03-10T12:34:59Z</time>
      </trkpt>
      <trkpt lat="49.09605" lon="1.94462">
        <ele>93.92</ele>
        <time>2019-03-10T12:35:00Z</time>
      </trkpt>
      <trkpt lat="49.09605" lon="1.94459">
        <ele>95.26</ele>
        <time>2019-03-10T12:35:13Z</time>
      </trkpt>
      <trkpt lat="49.09606" lon="1.94463">
        <ele>97.35</ele>
        <time>2019-03-10T12:35:19Z</time>
      </trkpt>
      <trkpt lat="49.09612" lon="1.94469">
        <ele>97.2</ele>
        <time>2019-03-10T12:35:25Z</time>
      </trkpt>
      <trkpt lat="49.09626" lon="1.94493">
        <ele>96.1</ele>
        <time>2019-03-10T12:35:42Z</time>
      </trkpt>
      <trkpt lat="49.09629" lon="1.94499">
        <ele>94.43</ele>
        <time>2019-03-10T12:35:46Z</time>
      </trkpt>
      <trkpt lat="49.09638" lon="1.94514">
        <ele>95.53</ele>
        <time>2019-03-10T12:36:00Z</time>
      </trkpt>
      <trkpt lat="49.09639" lon="1.94516">
        <ele>95.92</ele>
        <time>2019-03-10T12:36:02Z</time>
      </trkpt>
      <trkpt lat="49.09642" lon="1.9452">
        <ele>95.91</ele>
        <time>2019-03-10T12:36:06Z</time>
      </trkpt>
      <trkpt lat="49.09649" lon="1.94529">
        <ele>95.24</ele>
        <time>2019-03-10T12:36:13Z</time>
      </trkpt>
      <trkpt lat="49.0965" lon="1.9453">
        <ele>95.58</ele>
        <time>2019-03-10T12:36:14Z</time>
      </trkpt>
      <trkpt lat="49.09651" lon="1.94531">
        <ele>96.84</ele>
        <time>2019-03-10T12:36:15Z</time>
      </trkpt>
      <trkpt lat="49.09655" lon="1.94537">
        <ele>97.28</ele>
        <time>2019-03-10T12:36:19Z</time>
      </trkpt>
      <trkpt lat="49.09657" lon="1.9454">
        <ele>95.53</ele>
        <time>2019-03-10T12:36:21Z</time>
      </trkpt>
      <trkpt lat="49.0966" lon="1.94546">
        <ele>96.37</ele>
        <time>2019-03-10T12:36:26Z</time>
      </trkpt>
      <trkpt lat="49.09664" lon="1.94554">
        <ele>97.77</ele>
        <time>2019-03-10T12:36:31Z</time>
      </trkpt>
      <trkpt lat="49.09665" lon="1.94556">
        <ele>96.13</ele>
        <time>2019-03-10T12:36:33Z</time>
      </trkpt>
      <trkpt lat="49.0967" lon="1.94563">
        <ele>95.6</ele>
        <time>2019-03-10T12:36:38Z</time>
      </trkpt>
      <trkpt lat="49.09679" lon="1.94578">
        <ele>96.37</ele>
        <time>2019-03-10T12:36:49Z</time>
      </trkpt>
      <trkpt lat="49.0968" lon="1.94579">
        <ele>94.52</ele>
        <time>2019-03-10T12:36:50Z</time>
      </trkpt>
      <trkpt lat="49.09682" lon="1.94581">
        <ele>93.83</ele>
        <time>2019-03-10T12:36:52Z</time>
      </trkpt>
      <trkpt lat="49.09684" lon="1.94586">
        <ele>93.99</ele>
        <time>2019-03-10T12:36:55Z</time>
      </trkpt>
      <trkpt lat="49.09692" lon="1.94602">
        <ele>96.34</ele>
        <time>2019-03-10T12:37:06Z</time>
      </trkpt>
      <trkpt lat="49.09699" lon="1.94613">
        <ele>94.67</ele>
        <time>2019-03-10T12:37:17Z</time>
      </trkpt>
      <trkpt lat="49.09704" lon="1.94624">
        <ele>95.9</ele>
        <time>2019-03-10T12:37:25Z</time>
      </trkpt>
      <trkpt lat="49.09715" lon="1.94649">
        <ele>97.37</ele>
        <time>2019-03-10T12:37:42Z</time>
      </trkpt>
      <trkpt lat="49.09716" lon="1.94651">
        <ele>97.03</ele>
        <time>2019-03-10T12:37:43Z</time>
      </trkpt>
      <trkpt lat="49.09722" lon="1.94667">
        <ele>93.14</ele>
        <time>2019-03-10T12:37:54Z</time>
      </trkpt>
      <trkpt lat="49.09731" lon="1.94692">
        <ele>96.54</ele>
        <time>2019-03-10T12:38:07Z</time>
      </trkpt>
      <trkpt lat="49.09731" lon="1.94695">
        <ele>95</ele>
        <time>2019-03-10T12:38:08Z</time>
      </trkpt>
      <trkpt lat="49.09725" lon="1.94753">
        <ele>96.51</ele>
        <time>2019-03-10T12:38:22Z</time>
      </trkpt>
      <trkpt lat="49.09724" lon="1.94763">
        <ele>92.84</ele>
        <time>2019-03-10T12:38:25Z</time>
      </trkpt>
      <trkpt lat="49.09723" lon="1.94772">
        <ele>92.18</ele>
        <time>2019-03-10T12:38:27Z</time>
      </trkpt>
      <trkpt lat="49.09716" lon="1.94826">
        <ele>93.55</ele>
        <time>2019-03-10T12:38:41Z</time>
      </trkpt>
      <trkpt lat="49.09715" lon="1.9486">
        <ele>93.63</ele>
        <time>2019-03-10T12:38:53Z</time>
      </trkpt>
      <trkpt lat="49.09713" lon="1.94877">
        <ele>90.38</ele>
        <time>2019-03-10T12:38:57Z</time>
      </trkpt>
      <trkpt lat="49.09708" lon="1.94924">
        <ele>88.8</ele>
        <time>2019-03-10T12:39:10Z</time>
      </trkpt>
      <trkpt lat="49.09704" lon="1.94944">
        <ele>88.89</ele>
        <time>2019-03-10T12:39:17Z</time>
      </trkpt>
      <trkpt lat="49.09705" lon="1.94947">
        <ele>89.5</ele>
        <time>2019-03-10T12:39:19Z</time>
      </trkpt>
      <trkpt lat="49.09706" lon="1.9495">
        <ele>92.12</ele>
        <time>2019-03-10T12:39:21Z</time>
      </trkpt>
      <trkpt lat="49.09706" lon="1.94956">
        <ele>88.72</ele>
        <time>2019-03-10T12:39:24Z</time>
      </trkpt>
      <trkpt lat="49.09706" lon="1.9496">
        <ele>89.85</ele>
        <time>2019-03-10T12:39:26Z</time>
      </trkpt>
      <trkpt lat="49.09709" lon="1.94994">
        <ele>88.4</ele>
        <time>2019-03-10T12:39:42Z</time>
      </trkpt>
      <trkpt lat="49.09706" lon="1.95004">
        <ele>86.67</ele>
        <time>2019-03-10T12:39:47Z</time>
      </trkpt>
      <trkpt lat="49.097" lon="1.95038">
        <ele>86.44</ele>
        <time>2019-03-10T12:40:05Z</time>
      </trkpt>
      <trkpt lat="49.09703" lon="1.95043">
        <ele>87.57</ele>
        <time>2019-03-10T12:40:15Z</time>
      </trkpt>
      <trkpt lat="49.09703" lon="1.95043">
        <ele>82.55</ele>
        <time>2019-03-10T12:40:16Z</time>
      </trkpt>
      <trkpt lat="49.09703" lon="1.95043">
        <ele>87.15</ele>
        <time>2019-03-10T12:40:17Z</time>
      </trkpt>
      <trkpt lat="49.09703" lon="1.9505">
        <ele>88.04</ele>
        <time>2019-03-10T12:40:22Z</time>
      </trkpt>
      <trkpt lat="49.09702" lon="1.95056">
        <ele>88.92</ele>
        <time>2019-03-10T12:40:28Z</time>
      </trkpt>
      <trkpt lat="49.097" lon="1.95059">
        <ele>85.98</ele>
        <time>2019-03-10T12:40:30Z</time>
      </trkpt>
      <trkpt lat="49.09687" lon="1.9508">
        <ele>84.87</ele>
        <time>2019-03-10T12:40:44Z</time>
      </trkpt>
      <trkpt lat="49.09666" lon="1.95112">
        <ele>84.82</ele>
        <time>2019-03-10T12:41:05Z</time>
      </trkpt>
      <trkpt lat="49.09655" lon="1.95124">
        <ele>83.37</ele>
        <time>2019-03-10T12:41:15Z</time>
      </trkpt>
      <trkpt lat="49.09653" lon="1.95127">
        <ele>87.07</ele>
        <time>2019-03-10T12:41:17Z</time>
      </trkpt>
      <trkpt lat="49.09652" lon="1.95128">
        <ele>87.05</ele>
        <time>2019-03-10T12:41:18Z</time>
      </trkpt>
      <trkpt lat="49.0965" lon="1.95131">
        <ele>83.61</ele>
        <time>2019-03-10T12:41:20Z</time>
      </trkpt>
      <trkpt lat="49.0964" lon="1.95142">
        <ele>84.21</ele>
        <time>2019-03-10T12:41:29Z</time>
      </trkpt>
      <trkpt lat="49.09632" lon="1.95155">
        <ele>82.52</ele>
        <time>2019-03-10T12:41:38Z</time>
      </trkpt>
      <trkpt lat="49.09627" lon="1.95161">
        <ele>81.7</ele>
        <time>2019-03-10T12:41:43Z</time>
      </trkpt>
      <trkpt lat="49.09625" lon="1.95165">
        <ele>82.99</ele>
        <time>2019-03-10T12:41:46Z</time>
      </trkpt>
      <trkpt lat="49.09617" lon="1.95176">
        <ele>83.18</ele>
        <time>2019-03-10T12:41:57Z</time>
      </trkpt>
      <trkpt lat="49.09618" lon="1.95186">
        <ele>81.11</ele>
        <time>2019-03-10T12:42:05Z</time>
      </trkpt>
      <trkpt lat="49.09619" lon="1.95189">
        <ele>80.42</ele>
        <time>2019-03-10T12:42:07Z</time>
      </trkpt>
      <trkpt lat="49.09619" lon="1.95198">
        <ele>80.99</ele>
        <time>2019-03-10T12:42:14Z</time>
      </trkpt>
      <trkpt lat="49.09619" lon="1.95202">
        <ele>80.65</ele>
        <time>2019-03-10T12:42:17Z</time>
      </trkpt>
      <trkpt lat="49.09628" lon="1.95231">
        <ele>79.39</ele>
        <time>2019-03-10T12:42:34Z</time>
      </trkpt>
      <trkpt lat="49.09632" lon="1.95252">
        <ele>78.2</ele>
        <time>2019-03-10T12:42:49Z</time>
      </trkpt>
      <trkpt lat="49.09632" lon="1.95253">
        <ele>78.81</ele>
        <time>2019-03-10T12:42:50Z</time>
      </trkpt>
      <trkpt lat="49.09633" lon="1.95256">
        <ele>78.95</ele>
        <time>2019-03-10T12:42:52Z</time>
      </trkpt>
      <trkpt lat="49.09637" lon="1.95272">
        <ele>80.88</ele>
        <time>2019-03-10T12:43:06Z</time>
      </trkpt>
      <trkpt lat="49.09641" lon="1.95289">
        <ele>80.94</ele>
        <time>2019-03-10T12:43:18Z</time>
      </trkpt>
      <trkpt lat="49.09642" lon="1.95293">
        <ele>80.03</ele>
        <time>2019-03-10T12:43:20Z</time>
      </trkpt>
      <trkpt lat="49.09652" lon="1.95329">
        <ele>79.05</ele>
        <time>2019-03-10T12:43:41Z</time>
      </trkpt>
      <trkpt lat="49.09656" lon="1.95346">
        <ele>78.49</ele>
        <time>2019-03-10T12:43:53Z</time>
      </trkpt>
      <trkpt lat="49.09659" lon="1.95356">
        <ele>78.4</ele>
        <time>2019-03-10T12:43:59Z</time>
      </trkpt>
      <trkpt lat="49.09665" lon="1.95388">
        <ele>76.78</ele>
        <time>2019-03-10T12:44:16Z</time>
      </trkpt>
      <trkpt lat="49.09671" lon="1.95418">
        <ele>77.63</ele>
        <time>2019-03-10T12:44:31Z</time>
      </trkpt>
      <trkpt lat="49.0968" lon="1.95451">
        <ele>76.91</ele>
        <time>2019-03-10T12:44:47Z</time>
      </trkpt>
      <trkpt lat="49.09687" lon="1.95482">
        <ele>77.02</ele>
        <time>2019-03-10T12:45:03Z</time>
      </trkpt>
      <trkpt lat="49.09692" lon="1.95499">
        <ele>76.91</ele>
        <time>2019-03-10T12:45:13Z</time>
      </trkpt>
      <trkpt lat="49.09701" lon="1.9553">
        <ele>76.66</ele>
        <time>2019-03-10T12:45:31Z</time>
      </trkpt>
      <trkpt lat="49.09706" lon="1.95549">
        <ele>76.21</ele>
        <time>2019-03-10T12:45:47Z</time>
      </trkpt>
      <trkpt lat="49.09708" lon="1.95557">
        <ele>75.81</ele>
        <time>2019-03-10T12:45:51Z</time>
      </trkpt>
      <trkpt lat="49.09717" lon="1.95593">
        <ele>75.5</ele>
        <time>2019-03-10T12:46:10Z</time>
      </trkpt>
      <trkpt lat="49.09728" lon="1.95631">
        <ele>74.1</ele>
        <time>2019-03-10T12:46:31Z</time>
      </trkpt>
      <trkpt lat="49.09734" lon="1.95653">
        <ele>74.55</ele>
        <time>2019-03-10T12:46:43Z</time>
      </trkpt>
      <trkpt lat="49.09737" lon="1.95661">
        <ele>76.43</ele>
        <time>2019-03-10T12:46:48Z</time>
      </trkpt>
      <trkpt lat="49.09741" lon="1.95672">
        <ele>77.48</ele>
        <time>2019-03-10T12:46:54Z</time>
      </trkpt>
      <trkpt lat="49.09748" lon="1.95688">
        <ele>75.17</ele>
        <time>2019-03-10T12:47:05Z</time>
      </trkpt>
      <trkpt lat="49.0975" lon="1.95687">
        <ele>74.06</ele>
        <time>2019-03-10T12:47:08Z</time>
      </trkpt>
      <trkpt lat="49.09756" lon="1.95679">
        <ele>78.28</ele>
        <time>2019-03-10T12:47:16Z</time>
      </trkpt>
      <trkpt lat="49.09765" lon="1.95665">
        <ele>79.97</ele>
        <time>2019-03-10T12:47:27Z</time>
      </trkpt>
      <trkpt lat="49.09771" lon="1.9566">
        <ele>80.28</ele>
        <time>2019-03-10T12:47:33Z</time>
      </trkpt>
      <trkpt lat="49.09776" lon="1.95653">
        <ele>78.57</ele>
        <time>2019-03-10T12:47:39Z</time>
      </trkpt>
      <trkpt lat="49.09782" lon="1.95646">
        <ele>81.8</ele>
        <time>2019-03-10T12:47:45Z</time>
      </trkpt>
      <trkpt lat="49.09785" lon="1.95642">
        <ele>82.39</ele>
        <time>2019-03-10T12:47:49Z</time>
      </trkpt>
      <trkpt lat="49.09793" lon="1.95632">
        <ele>80.92</ele>
        <time>2019-03-10T12:47:57Z</time>
      </trkpt>
      <trkpt lat="49.09796" lon="1.95629">
        <ele>82.48</ele>
        <time>2019-03-10T12:48:00Z</time>
      </trkpt>
      <trkpt lat="49.09813" lon="1.95606">
        <ele>81.12</ele>
        <time>2019-03-10T12:48:18Z</time>
      </trkpt>
      <trkpt lat="49.0982" lon="1.95597">
        <ele>84.62</ele>
        <time>2019-03-10T12:48:26Z</time>
      </trkpt>
      <trkpt lat="49.09823" lon="1.95594">
        <ele>82.22</ele>
        <time>2019-03-10T12:48:29Z</time>
      </trkpt>
      <trkpt lat="49.09841" lon="1.95573">
        <ele>82.07</ele>
        <time>2019-03-10T12:48:48Z</time>
      </trkpt>
      <trkpt lat="49.09843" lon="1.9557">
        <ele>79.42</ele>
        <time>2019-03-10T12:48:50Z</time>
      </trkpt>
      <trkpt lat="49.09848" lon="1.95563">
        <ele>84.33</ele>
        <time>2019-03-10T12:48:56Z</time>
      </trkpt>
      <trkpt lat="49.0985" lon="1.95562">
        <ele>86.23</ele>
        <time>2019-03-10T12:48:58Z</time>
      </trkpt>
      <trkpt lat="49.09852" lon="1.95558">
        <ele>80.68</ele>
        <time>2019-03-10T12:49:01Z</time>
      </trkpt>
      <trkpt lat="49.09854" lon="1.95556">
        <ele>85.4</ele>
        <time>2019-03-10T12:49:03Z</time>
      </trkpt>
      <trkpt lat="49.09855" lon="1.95555">
        <ele>85.3</ele>
        <time>2019-03-10T12:49:04Z</time>
      </trkpt>
      <trkpt lat="49.09856" lon="1.95554">
        <ele>83.99</ele>
        <time>2019-03-10T12:49:05Z</time>
      </trkpt>
      <trkpt lat="49.09862" lon="1.95546">
        <ele>80.1</ele>
        <time>2019-03-10T12:49:12Z</time>
      </trkpt>
      <trkpt lat="49.09865" lon="1.95542">
        <ele>84.77</ele>
        <time>2019-03-10T12:49:15Z</time>
      </trkpt>
      <trkpt lat="49.09866" lon="1.95539">
        <ele>86.06</ele>
        <time>2019-03-10T12:49:17Z</time>
      </trkpt>
      <trkpt lat="49.09868" lon="1.95536">
        <ele>85.9</ele>
        <time>2019-03-10T12:49:19Z</time>
      </trkpt>
      <trkpt lat="49.09884" lon="1.95517">
        <ele>85.4</ele>
        <time>2019-03-10T12:49:36Z</time>
      </trkpt>
      <trkpt lat="49.09896" lon="1.955">
        <ele>84.77</ele>
        <time>2019-03-10T12:49:52Z</time>
      </trkpt>
      <trkpt lat="49.09905" lon="1.95489">
        <ele>86.12</ele>
        <time>2019-03-10T12:50:07Z</time>
      </trkpt>
      <trkpt lat="49.09914" lon="1.95479">
        <ele>90.68</ele>
        <time>2019-03-10T12:50:17Z</time>
      </trkpt>
      <trkpt lat="49.09924" lon="1.95464">
        <ele>91.54</ele>
        <time>2019-03-10T12:50:34Z</time>
      </trkpt>
      <trkpt lat="49.09925" lon="1.95463">
        <ele>88.18</ele>
        <time>2019-03-10T12:50:38Z</time>
      </trkpt>
      <trkpt lat="49.09927" lon="1.9546">
        <ele>89.96</ele>
        <time>2019-03-10T12:50:46Z</time>
      </trkpt>
      <trkpt lat="49.09929" lon="1.95457">
        <ele>89.44</ele>
        <time>2019-03-10T12:50:49Z</time>
      </trkpt>
      <trkpt lat="49.09934" lon="1.95451">
        <ele>88.45</ele>
        <time>2019-03-10T12:50:54Z</time>
      </trkpt>
      <trkpt lat="49.09935" lon="1.95449">
        <ele>89.64</ele>
        <time>2019-03-10T12:50:56Z</time>
      </trkpt>
      <trkpt lat="49.09936" lon="1.95448">
        <ele>88.52</ele>
        <time>2019-03-10T12:50:59Z</time>
      </trkpt>
      <trkpt lat="49.09938" lon="1.95446">
        <ele>89.23</ele>
        <time>2019-03-10T12:51:01Z</time>
      </trkpt>
      <trkpt lat="49.09941" lon="1.95444">
        <ele>89.43</ele>
        <time>2019-03-10T12:51:14Z</time>
      </trkpt>
      <trkpt lat="49.09947" lon="1.95438">
        <ele>90.79</ele>
        <time>2019-03-10T12:51:21Z</time>
      </trkpt>
      <trkpt lat="49.09948" lon="1.95434">
        <ele>89.42</ele>
        <time>2019-03-10T12:51:24Z</time>
      </trkpt>
      <trkpt lat="49.0995" lon="1.95432">
        <ele>88.41</ele>
        <time>2019-03-10T12:51:26Z</time>
      </trkpt>
      <trkpt lat="49.09953" lon="1.95428">
        <ele>89.75</ele>
        <time>2019-03-10T12:51:29Z</time>
      </trkpt>
      <trkpt lat="49.09956" lon="1.95425">
        <ele>88.84</ele>
        <time>2019-03-10T12:51:37Z</time>
      </trkpt>
      <trkpt lat="49.09957" lon="1.95423">
        <ele>90.98</ele>
        <time>2019-03-10T12:51:42Z</time>
      </trkpt>
      <trkpt lat="49.09972" lon="1.9543">
        <ele>87.9</ele>
        <time>2019-03-10T12:51:55Z</time>
      </trkpt>
      <trkpt lat="49.09989" lon="1.95449">
        <ele>86.21</ele>
        <time>2019-03-10T12:52:12Z</time>
      </trkpt>
      <trkpt lat="49.10002" lon="1.95479">
        <ele>84.8</ele>
        <time>2019-03-10T12:52:31Z</time>
      </trkpt>
      <trkpt lat="49.10003" lon="1.95481">
        <ele>84.89</ele>
        <time>2019-03-10T12:52:32Z</time>
      </trkpt>
      <trkpt lat="49.10005" lon="1.95489">
        <ele>86.53</ele>
        <time>2019-03-10T12:52:36Z</time>
      </trkpt>
      <trkpt lat="49.10009" lon="1.955">
        <ele>85.39</ele>
        <time>2019-03-10T12:52:42Z</time>
      </trkpt>
      <trkpt lat="49.1001" lon="1.95506">
        <ele>84.08</ele>
        <time>2019-03-10T12:52:45Z</time>
      </trkpt>
      <trkpt lat="49.10012" lon="1.95538">
        <ele>85.67</ele>
        <time>2019-03-10T12:53:00Z</time>
      </trkpt>
      <trkpt lat="49.10013" lon="1.95546">
        <ele>83.76</ele>
        <time>2019-03-10T12:53:04Z</time>
      </trkpt>
      <trkpt lat="49.10015" lon="1.95584">
        <ele>83.39</ele>
        <time>2019-03-10T12:53:22Z</time>
      </trkpt>
      <trkpt lat="49.10015" lon="1.95601">
        <ele>80.33</ele>
        <time>2019-03-10T12:53:31Z</time>
      </trkpt>
      <trkpt lat="49.10014" lon="1.95636">
        <ele>78.92</ele>
        <time>2019-03-10T12:53:47Z</time>
      </trkpt>
      <trkpt lat="49.10017" lon="1.95662">
        <ele>75.44</ele>
        <time>2019-03-10T12:53:59Z</time>
      </trkpt>
      <trkpt lat="49.10016" lon="1.95666">
        <ele>75.58</ele>
        <time>2019-03-10T12:54:01Z</time>
      </trkpt>
      <trkpt lat="49.1002" lon="1.95675">
        <ele>74.88</ele>
        <time>2019-03-10T12:54:06Z</time>
      </trkpt>
      <trkpt lat="49.10015" lon="1.95709">
        <ele>73.43</ele>
        <time>2019-03-10T12:54:24Z</time>
      </trkpt>
      <trkpt lat="49.10013" lon="1.95723">
        <ele>71.31</ele>
        <time>2019-03-10T12:54:32Z</time>
      </trkpt>
      <trkpt lat="49.10012" lon="1.95729">
        <ele>70.94</ele>
        <time>2019-03-10T12:54:35Z</time>
      </trkpt>
      <trkpt lat="49.10008" lon="1.95759">
        <ele>69.99</ele>
        <time>2019-03-10T12:54:52Z</time>
      </trkpt>
      <trkpt lat="49.10009" lon="1.95759">
        <ele>70.04</ele>
        <time>2019-03-10T12:54:53Z</time>
      </trkpt>
      <trkpt lat="49.1001" lon="1.95764">
        <ele>68.25</ele>
        <time>2019-03-10T12:54:56Z</time>
      </trkpt>
      <trkpt lat="49.10009" lon="1.95766">
        <ele>68.73</ele>
        <time>2019-03-10T12:54:57Z</time>
      </trkpt>
      <trkpt lat="49.10005" lon="1.958">
        <ele>67.93</ele>
        <time>2019-03-10T12:55:12Z</time>
      </trkpt>
      <trkpt lat="49.10004" lon="1.95807">
        <ele>69.29</ele>
        <time>2019-03-10T12:55:15Z</time>
      </trkpt>
      <trkpt lat="49.10004" lon="1.95839">
        <ele>68.07</ele>
        <time>2019-03-10T12:55:31Z</time>
      </trkpt>
      <trkpt lat="49.10011" lon="1.95876">
        <ele>69.13</ele>
        <time>2019-03-10T12:55:48Z</time>
      </trkpt>
      <trkpt lat="49.10022" lon="1.95905">
        <ele>68.75</ele>
        <time>2019-03-10T12:56:03Z</time>
      </trkpt>
      <trkpt lat="49.10033" lon="1.95932">
        <ele>68.79</ele>
        <time>2019-03-10T12:56:20Z</time>
      </trkpt>
      <trkpt lat="49.10044" lon="1.95962">
        <ele>69.07</ele>
        <time>2019-03-10T12:56:37Z</time>
      </trkpt>
      <trkpt lat="49.10052" lon="1.95987">
        <ele>70.37</ele>
        <time>2019-03-10T12:56:50Z</time>
      </trkpt>
      <trkpt lat="49.10054" lon="1.95992">
        <ele>68.5</ele>
        <time>2019-03-10T12:57:00Z</time>
      </trkpt>
      <trkpt lat="49.10055" lon="1.95996">
        <ele>69.37</ele>
        <time>2019-03-10T12:57:18Z</time>
      </trkpt>
      <trkpt lat="49.10057" lon="1.96">
        <ele>68.48</ele>
        <time>2019-03-10T12:57:37Z</time>
      </trkpt>
      <trkpt lat="49.10058" lon="1.96004">
        <ele>68.43</ele>
        <time>2019-03-10T12:57:42Z</time>
      </trkpt>
      <trkpt lat="49.10058" lon="1.96009">
        <ele>67.05</ele>
        <time>2019-03-10T12:57:46Z</time>
      </trkpt>
      <trkpt lat="49.10059" lon="1.96013">
        <ele>67.65</ele>
        <time>2019-03-10T12:57:49Z</time>
      </trkpt>
      <trkpt lat="49.10061" lon="1.96024">
        <ele>70.35</ele>
        <time>2019-03-10T12:57:57Z</time>
      </trkpt>
      <trkpt lat="49.10062" lon="1.96029">
        <ele>69.01</ele>
        <time>2019-03-10T12:58:01Z</time>
      </trkpt>
      <trkpt lat="49.10063" lon="1.96035">
        <ele>69.07</ele>
        <time>2019-03-10T12:58:06Z</time>
      </trkpt>
      <trkpt lat="49.10065" lon="1.96042">
        <ele>68.55</ele>
        <time>2019-03-10T12:58:13Z</time>
      </trkpt>
      <trkpt lat="49.10068" lon="1.96053">
        <ele>67.85</ele>
        <time>2019-03-10T12:58:19Z</time>
      </trkpt>
      <trkpt lat="49.1007" lon="1.96061">
        <ele>68.57</ele>
        <time>2019-03-10T12:58:24Z</time>
      </trkpt>
      <trkpt lat="49.10073" lon="1.96079">
        <ele>69.47</ele>
        <time>2019-03-10T12:58:35Z</time>
      </trkpt>
      <trkpt lat="49.10078" lon="1.961">
        <ele>68.84</ele>
        <time>2019-03-10T12:58:49Z</time>
      </trkpt>
      <trkpt lat="49.1008" lon="1.96108">
        <ele>69.33</ele>
        <time>2019-03-10T12:58:54Z</time>
      </trkpt>
      <trkpt lat="49.10082" lon="1.96119">
        <ele>68.26</ele>
        <time>2019-03-10T12:59:00Z</time>
      </trkpt>
      <trkpt lat="49.10083" lon="1.96122">
        <ele>69.03</ele>
        <time>2019-03-10T12:59:02Z</time>
      </trkpt>
      <trkpt lat="49.10087" lon="1.96141">
        <ele>69.8</ele>
        <time>2019-03-10T12:59:15Z</time>
      </trkpt>
      <trkpt lat="49.10088" lon="1.96146">
        <ele>71.19</ele>
        <time>2019-03-10T12:59:18Z</time>
      </trkpt>
      <trkpt lat="49.10094" lon="1.96172">
        <ele>68.39</ele>
        <time>2019-03-10T12:59:32Z</time>
      </trkpt>
      <trkpt lat="49.10096" lon="1.9618">
        <ele>68.96</ele>
        <time>2019-03-10T12:59:37Z</time>
      </trkpt>
      <trkpt lat="49.10098" lon="1.9619">
        <ele>71.62</ele>
        <time>2019-03-10T12:59:43Z</time>
      </trkpt>
      <trkpt lat="49.101" lon="1.96198">
        <ele>70.53</ele>
        <time>2019-03-10T12:59:52Z</time>
      </trkpt>
      <trkpt lat="49.10107" lon="1.96224">
        <ele>69.97</ele>
        <time>2019-03-10T13:00:09Z</time>
      </trkpt>
      <trkpt lat="49.10119" lon="1.96248">
        <ele>67.62</ele>
        <time>2019-03-10T13:00:30Z</time>
      </trkpt>
      <trkpt lat="49.1013" lon="1.96272">
        <ele>67.05</ele>
        <time>2019-03-10T13:00:48Z</time>
      </trkpt>
      <trkpt lat="49.10133" lon="1.96294">
        <ele>66.12</ele>
        <time>2019-03-10T13:01:04Z</time>
      </trkpt>
      <trkpt lat="49.10135" lon="1.96321">
        <ele>65.08</ele>
        <time>2019-03-10T13:01:22Z</time>
      </trkpt>
      <trkpt lat="49.10142" lon="1.96342">
        <ele>62.84</ele>
        <time>2019-03-10T13:01:38Z</time>
      </trkpt>
      <trkpt lat="49.10147" lon="1.96361">
        <ele>60.11</ele>
        <time>2019-03-10T13:01:52Z</time>
      </trkpt>
      <trkpt lat="49.10153" lon="1.96389">
        <ele>57.54</ele>
        <time>2019-03-10T13:02:12Z</time>
      </trkpt>
      <trkpt lat="49.10158" lon="1.96408">
        <ele>54.76</ele>
        <time>2019-03-10T13:02:24Z</time>
      </trkpt>
      <trkpt lat="49.10164" lon="1.96417">
        <ele>54.69</ele>
        <time>2019-03-10T13:02:30Z</time>
      </trkpt>
      <trkpt lat="49.10173" lon="1.9643">
        <ele>53.55</ele>
        <time>2019-03-10T13:02:44Z</time>
      </trkpt>
      <trkpt lat="49.10182" lon="1.96444">
        <ele>51.11</ele>
        <time>2019-03-10T13:02:57Z</time>
      </trkpt>
      <trkpt lat="49.10196" lon="1.9646">
        <ele>48.76</ele>
        <time>2019-03-10T13:03:14Z</time>
      </trkpt>
      <trkpt lat="49.10194" lon="1.96464">
        <ele>50.07</ele>
        <time>2019-03-10T13:03:33Z</time>
      </trkpt>
      <trkpt lat="49.10195" lon="1.96464">
        <ele>50.41</ele>
        <time>2019-03-10T13:03:38Z</time>
      </trkpt>
      <trkpt lat="49.10194" lon="1.96467">
        <ele>49.32</ele>
        <time>2019-03-10T13:03:53Z</time>
      </trkpt>
      <trkpt lat="49.10196" lon="1.96469">
        <ele>49.34</ele>
        <time>2019-03-10T13:04:09Z</time>
      </trkpt>
      <trkpt lat="49.10196" lon="1.96468">
        <ele>50.25</ele>
        <time>2019-03-10T13:04:16Z</time>
      </trkpt>
      <trkpt lat="49.10196" lon="1.96468">
        <ele>49.08</ele>
        <time>2019-03-10T13:04:18Z</time>
      </trkpt>
      <trkpt lat="49.10197" lon="1.96476">
        <ele>48.49</ele>
        <time>2019-03-10T13:04:29Z</time>
      </trkpt>
      <trkpt lat="49.10193" lon="1.96491">
        <ele>46.53</ele>
        <time>2019-03-10T13:04:44Z</time>
      </trkpt>
      <trkpt lat="49.10193" lon="1.965">
        <ele>48.65</ele>
        <time>2019-03-10T13:04:57Z</time>
      </trkpt>
      <trkpt lat="49.10193" lon="1.9651">
        <ele>47.44</ele>
        <time>2019-03-10T13:05:11Z</time>
      </trkpt>
      <trkpt lat="49.10189" lon="1.96522">
        <ele>45.18</ele>
        <time>2019-03-10T13:05:21Z</time>
      </trkpt>
      <trkpt lat="49.10187" lon="1.96529">
        <ele>45.32</ele>
        <time>2019-03-10T13:05:25Z</time>
      </trkpt>
      <trkpt lat="49.1018" lon="1.96549">
        <ele>44.41</ele>
        <time>2019-03-10T13:05:44Z</time>
      </trkpt>
      <trkpt lat="49.10171" lon="1.96575">
        <ele>44.28</ele>
        <time>2019-03-10T13:06:03Z</time>
      </trkpt>
      <trkpt lat="49.10169" lon="1.9658">
        <ele>47.3</ele>
        <time>2019-03-10T13:06:07Z</time>
      </trkpt>
      <trkpt lat="49.10167" lon="1.96584">
        <ele>44.14</ele>
        <time>2019-03-10T13:06:10Z</time>
      </trkpt>
      <trkpt lat="49.10158" lon="1.96613">
        <ele>42.63</ele>
        <time>2019-03-10T13:06:26Z</time>
      </trkpt>
      <trkpt lat="49.10158" lon="1.96615">
        <ele>42.03</ele>
        <time>2019-03-10T13:06:27Z</time>
      </trkpt>
      <trkpt lat="49.10155" lon="1.96626">
        <ele>40.04</ele>
        <time>2019-03-10T13:06:35Z</time>
      </trkpt>
      <trkpt lat="49.10158" lon="1.96631">
        <ele>41.13</ele>
        <time>2019-03-10T13:06:39Z</time>
      </trkpt>
      <trkpt lat="49.10159" lon="1.96635">
        <ele>37.77</ele>
        <time>2019-03-10T13:06:42Z</time>
      </trkpt>
      <trkpt lat="49.1016" lon="1.96639">
        <ele>40.74</ele>
        <time>2019-03-10T13:06:47Z</time>
      </trkpt>
      <trkpt lat="49.10163" lon="1.9664">
        <ele>38.62</ele>
        <time>2019-03-10T13:06:54Z</time>
      </trkpt>
      <trkpt lat="49.10164" lon="1.96641">
        <ele>41.18</ele>
        <time>2019-03-10T13:06:56Z</time>
      </trkpt>
      <trkpt lat="49.10168" lon="1.9664">
        <ele>40.29</ele>
        <time>2019-03-10T13:06:59Z</time>
      </trkpt>
      <trkpt lat="49.10187" lon="1.96638">
        <ele>39.45</ele>
        <time>2019-03-10T13:07:15Z</time>
      </trkpt>
      <trkpt lat="49.10195" lon="1.96637">
        <ele>39.03</ele>
        <time>2019-03-10T13:07:28Z</time>
      </trkpt>
      <trkpt lat="49.10214" lon="1.96632">
        <ele>40.47</ele>
        <time>2019-03-10T13:07:44Z</time>
      </trkpt>
      <trkpt lat="49.10226" lon="1.96631">
        <ele>38.42</ele>
        <time>2019-03-10T13:07:54Z</time>
      </trkpt>
      <trkpt lat="49.10236" lon="1.96626">
        <ele>38.73</ele>
        <time>2019-03-10T13:08:03Z</time>
      </trkpt>
      <trkpt lat="49.10248" lon="1.96622">
        <ele>37.63</ele>
        <time>2019-03-10T13:08:13Z</time>
      </trkpt>
      <trkpt lat="49.10253" lon="1.96619">
        <ele>38.92</ele>
        <time>2019-03-10T13:08:18Z</time>
      </trkpt>
      <trkpt lat="49.10261" lon="1.96617">
        <ele>39.17</ele>
        <time>2019-03-10T13:08:26Z</time>
      </trkpt>
      <trkpt lat="49.10264" lon="1.96618">
        <ele>35.71</ele>
        <time>2019-03-10T13:08:29Z</time>
      </trkpt>
      <trkpt lat="49.10278" lon="1.96622">
        <ele>35.26</ele>
        <time>2019-03-10T13:08:42Z</time>
      </trkpt>
      <trkpt lat="49.10281" lon="1.96621">
        <ele>37</ele>
        <time>2019-03-10T13:08:44Z</time>
      </trkpt>
      <trkpt lat="49.10283" lon="1.96621">
        <ele>38.14</ele>
        <time>2019-03-10T13:08:46Z</time>
      </trkpt>
      <trkpt lat="49.10288" lon="1.96621">
        <ele>35.36</ele>
        <time>2019-03-10T13:08:51Z</time>
      </trkpt>
      <trkpt lat="49.10293" lon="1.9662">
        <ele>39.28</ele>
        <time>2019-03-10T13:08:55Z</time>
      </trkpt>
      <trkpt lat="49.10294" lon="1.9662">
        <ele>38.2</ele>
        <time>2019-03-10T13:08:56Z</time>
      </trkpt>
      <trkpt lat="49.10301" lon="1.96617">
        <ele>40.06</ele>
        <time>2019-03-10T13:09:03Z</time>
      </trkpt>
      <trkpt lat="49.10304" lon="1.96617">
        <ele>36.83</ele>
        <time>2019-03-10T13:09:05Z</time>
      </trkpt>
      <trkpt lat="49.10319" lon="1.96618">
        <ele>38.22</ele>
        <time>2019-03-10T13:09:18Z</time>
      </trkpt>
      <trkpt lat="49.10321" lon="1.96618">
        <ele>38.03</ele>
        <time>2019-03-10T13:09:20Z</time>
      </trkpt>
      <trkpt lat="49.10333" lon="1.96618">
        <ele>37.85</ele>
        <time>2019-03-10T13:09:30Z</time>
      </trkpt>
      <trkpt lat="49.10338" lon="1.96615">
        <ele>37.9</ele>
        <time>2019-03-10T13:09:34Z</time>
      </trkpt>
      <trkpt lat="49.10354" lon="1.9661">
        <ele>39.02</ele>
        <time>2019-03-10T13:09:50Z</time>
      </trkpt>
      <trkpt lat="49.10357" lon="1.96606">
        <ele>37.33</ele>
        <time>2019-03-10T13:09:55Z</time>
      </trkpt>
      <trkpt lat="49.10359" lon="1.96605">
        <ele>39.12</ele>
        <time>2019-03-10T13:09:58Z</time>
      </trkpt>
      <trkpt lat="49.10378" lon="1.96599">
        <ele>39.53</ele>
        <time>2019-03-10T13:10:13Z</time>
      </trkpt>
      <trkpt lat="49.10379" lon="1.96598">
        <ele>42.72</ele>
        <time>2019-03-10T13:10:14Z</time>
      </trkpt>
      <trkpt lat="49.10382" lon="1.96597">
        <ele>38.69</ele>
        <time>2019-03-10T13:10:16Z</time>
      </trkpt>
      <trkpt lat="49.10384" lon="1.96597">
        <ele>38.97</ele>
        <time>2019-03-10T13:10:17Z</time>
      </trkpt>
      <trkpt lat="49.10397" lon="1.96596">
        <ele>38.35</ele>
        <time>2019-03-10T13:10:31Z</time>
      </trkpt>
      <trkpt lat="49.10403" lon="1.96593">
        <ele>41.67</ele>
        <time>2019-03-10T13:10:42Z</time>
      </trkpt>
      <trkpt lat="49.10423" lon="1.96576">
        <ele>41</ele>
        <time>2019-03-10T13:11:02Z</time>
      </trkpt>
      <trkpt lat="49.10426" lon="1.96574">
        <ele>41.45</ele>
        <time>2019-03-10T13:11:05Z</time>
      </trkpt>
      <trkpt lat="49.10442" lon="1.96562">
        <ele>41.32</ele>
        <time>2019-03-10T13:11:21Z</time>
      </trkpt>
      <trkpt lat="49.10446" lon="1.9656">
        <ele>41.07</ele>
        <time>2019-03-10T13:11:24Z</time>
      </trkpt>
      <trkpt lat="49.10462" lon="1.96547">
        <ele>39.45</ele>
        <time>2019-03-10T13:11:39Z</time>
      </trkpt>
      <trkpt lat="49.10477" lon="1.96532">
        <ele>42.1</ele>
        <time>2019-03-10T13:11:55Z</time>
      </trkpt>
      <trkpt lat="49.10488" lon="1.96524">
        <ele>42.4</ele>
        <time>2019-03-10T13:12:05Z</time>
      </trkpt>
      <trkpt lat="49.10498" lon="1.96518">
        <ele>44.49</ele>
        <time>2019-03-10T13:12:14Z</time>
      </trkpt>
      <trkpt lat="49.10511" lon="1.96516">
        <ele>43.06</ele>
        <time>2019-03-10T13:12:30Z</time>
      </trkpt>
      <trkpt lat="49.10516" lon="1.96518">
        <ele>43.41</ele>
        <time>2019-03-10T13:12:37Z</time>
      </trkpt>
      <trkpt lat="49.10518" lon="1.96517">
        <ele>41.24</ele>
        <time>2019-03-10T13:12:39Z</time>
      </trkpt>
      <trkpt lat="49.10526" lon="1.96513">
        <ele>41.22</ele>
        <time>2019-03-10T13:12:54Z</time>
      </trkpt>
      <trkpt lat="49.10527" lon="1.96513">
        <ele>41.6</ele>
        <time>2019-03-10T13:12:56Z</time>
      </trkpt>
      <trkpt lat="49.10536" lon="1.96511">
        <ele>40.27</ele>
        <time>2019-03-10T13:13:05Z</time>
      </trkpt>
      <trkpt lat="49.10539" lon="1.96508">
        <ele>38.05</ele>
        <time>2019-03-10T13:13:08Z</time>
      </trkpt>
      <trkpt lat="49.10545" lon="1.96504">
        <ele>37.96</ele>
        <time>2019-03-10T13:13:18Z</time>
      </trkpt>
      <trkpt lat="49.10548" lon="1.96502">
        <ele>40.21</ele>
        <time>2019-03-10T13:13:21Z</time>
      </trkpt>
      <trkpt lat="49.10549" lon="1.96502">
        <ele>38.39</ele>
        <time>2019-03-10T13:13:22Z</time>
      </trkpt>
      <trkpt lat="49.10553" lon="1.965">
        <ele>40.31</ele>
        <time>2019-03-10T13:13:25Z</time>
      </trkpt>
      <trkpt lat="49.10555" lon="1.96499">
        <ele>43.57</ele>
        <time>2019-03-10T13:13:27Z</time>
      </trkpt>
      <trkpt lat="49.10556" lon="1.96498">
        <ele>42.69</ele>
        <time>2019-03-10T13:13:28Z</time>
      </trkpt>
      <trkpt lat="49.10575" lon="1.96487">
        <ele>40.39</ele>
        <time>2019-03-10T13:13:45Z</time>
      </trkpt>
      <trkpt lat="49.10576" lon="1.96486">
        <ele>36.42</ele>
        <time>2019-03-10T13:13:57Z</time>
      </trkpt>
      <trkpt lat="49.10578" lon="1.96484">
        <ele>39.68</ele>
        <time>2019-03-10T13:14:00Z</time>
      </trkpt>
      <trkpt lat="49.10579" lon="1.96484">
        <ele>40.56</ele>
        <time>2019-03-10T13:14:02Z</time>
      </trkpt>
      <trkpt lat="49.1058" lon="1.96484">
        <ele>40.84</ele>
        <time>2019-03-10T13:14:03Z</time>
      </trkpt>
      <trkpt lat="49.10593" lon="1.9648">
        <ele>40.75</ele>
        <time>2019-03-10T13:14:16Z</time>
      </trkpt>
      <trkpt lat="49.10598" lon="1.96477">
        <ele>39.05</ele>
        <time>2019-03-10T13:14:21Z</time>
      </trkpt>
      <trkpt lat="49.10617" lon="1.9647">
        <ele>39.79</ele>
        <time>2019-03-10T13:14:38Z</time>
      </trkpt>
      <trkpt lat="49.10619" lon="1.96469">
        <ele>39.89</ele>
        <time>2019-03-10T13:14:40Z</time>
      </trkpt>
      <trkpt lat="49.10637" lon="1.96462">
        <ele>40.25</ele>
        <time>2019-03-10T13:14:57Z</time>
      </trkpt>
      <trkpt lat="49.10655" lon="1.96454">
        <ele>39.08</ele>
        <time>2019-03-10T13:15:13Z</time>
      </trkpt>
      <trkpt lat="49.10674" lon="1.96446">
        <ele>38.55</ele>
        <time>2019-03-10T13:15:30Z</time>
      </trkpt>
      <trkpt lat="49.10687" lon="1.96441">
        <ele>39.16</ele>
        <time>2019-03-10T13:15:45Z</time>
      </trkpt>
      <trkpt lat="49.10689" lon="1.9644">
        <ele>38.78</ele>
        <time>2019-03-10T13:15:47Z</time>
      </trkpt>
      <trkpt lat="49.10711" lon="1.96429">
        <ele>41.5</ele>
        <time>2019-03-10T13:16:06Z</time>
      </trkpt>
      <trkpt lat="49.10716" lon="1.96427">
        <ele>40.88</ele>
        <time>2019-03-10T13:16:12Z</time>
      </trkpt>
      <trkpt lat="49.10723" lon="1.96423">
        <ele>41.28</ele>
        <time>2019-03-10T13:16:19Z</time>
      </trkpt>
      <trkpt lat="49.10729" lon="1.9642">
        <ele>40.93</ele>
        <time>2019-03-10T13:16:25Z</time>
      </trkpt>
      <trkpt lat="49.10739" lon="1.96417">
        <ele>39.78</ele>
        <time>2019-03-10T13:16:34Z</time>
      </trkpt>
      <trkpt lat="49.10762" lon="1.96409">
        <ele>39.02</ele>
        <time>2019-03-10T13:16:54Z</time>
      </trkpt>
      <trkpt lat="49.10777" lon="1.96407">
        <ele>39.3</ele>
        <time>2019-03-10T13:17:09Z</time>
      </trkpt>
      <trkpt lat="49.10781" lon="1.96406">
        <ele>38.89</ele>
        <time>2019-03-10T13:17:15Z</time>
      </trkpt>
      <trkpt lat="49.10785" lon="1.96406">
        <ele>38.67</ele>
        <time>2019-03-10T13:17:19Z</time>
      </trkpt>
      <trkpt lat="49.10805" lon="1.96402">
        <ele>37.58</ele>
        <time>2019-03-10T13:17:35Z</time>
      </trkpt>
      <trkpt lat="49.10807" lon="1.96402">
        <ele>38.67</ele>
        <time>2019-03-10T13:17:39Z</time>
      </trkpt>
      <trkpt lat="49.1081" lon="1.96403">
        <ele>38.06</ele>
        <time>2019-03-10T13:17:41Z</time>
      </trkpt>
      <trkpt lat="49.10816" lon="1.96403">
        <ele>38.73</ele>
        <time>2019-03-10T13:17:46Z</time>
      </trkpt>
      <trkpt lat="49.10819" lon="1.96403">
        <ele>38.4</ele>
        <time>2019-03-10T13:17:50Z</time>
      </trkpt>
      <trkpt lat="49.10833" lon="1.96402">
        <ele>37.97</ele>
        <time>2019-03-10T13:18:05Z</time>
      </trkpt>
      <trkpt lat="49.10836" lon="1.96403">
        <ele>40.19</ele>
        <time>2019-03-10T13:18:07Z</time>
      </trkpt>
      <trkpt lat="49.1084" lon="1.96404">
        <ele>39.26</ele>
        <time>2019-03-10T13:18:13Z</time>
      </trkpt>
      <trkpt lat="49.10843" lon="1.96403">
        <ele>39.82</ele>
        <time>2019-03-10T13:18:16Z</time>
      </trkpt>
      <trkpt lat="49.10861" lon="1.96402">
        <ele>42.85</ele>
        <time>2019-03-10T13:18:32Z</time>
      </trkpt>
      <trkpt lat="49.10863" lon="1.96402">
        <ele>40.54</ele>
        <time>2019-03-10T13:18:35Z</time>
      </trkpt>
      <trkpt lat="49.10876" lon="1.96403">
        <ele>41.52</ele>
        <time>2019-03-10T13:18:50Z</time>
      </trkpt>
      <trkpt lat="49.10897" lon="1.96401">
        <ele>42.32</ele>
        <time>2019-03-10T13:19:10Z</time>
      </trkpt>
      <trkpt lat="49.10899" lon="1.96401">
        <ele>43.19</ele>
        <time>2019-03-10T13:19:12Z</time>
      </trkpt>
      <trkpt lat="49.1091" lon="1.96398">
        <ele>43.29</ele>
        <time>2019-03-10T13:19:24Z</time>
      </trkpt>
      <trkpt lat="49.10912" lon="1.96397">
        <ele>43.03</ele>
        <time>2019-03-10T13:19:26Z</time>
      </trkpt>
      <trkpt lat="49.1093" lon="1.96392">
        <ele>44.6</ele>
        <time>2019-03-10T13:19:44Z</time>
      </trkpt>
      <trkpt lat="49.10945" lon="1.96389">
        <ele>44.55</ele>
        <time>2019-03-10T13:20:00Z</time>
      </trkpt>
      <trkpt lat="49.10962" lon="1.96385">
        <ele>44.7</ele>
        <time>2019-03-10T13:20:16Z</time>
      </trkpt>
      <trkpt lat="49.1098" lon="1.96382">
        <ele>45.98</ele>
        <time>2019-03-10T13:20:34Z</time>
      </trkpt>
      <trkpt lat="49.10995" lon="1.96381">
        <ele>45.1</ele>
        <time>2019-03-10T13:20:49Z</time>
      </trkpt>
      <trkpt lat="49.11015" lon="1.9638">
        <ele>44.64</ele>
        <time>2019-03-10T13:21:07Z</time>
      </trkpt>
      <trkpt lat="49.11032" lon="1.9638">
        <ele>43.57</ele>
        <time>2019-03-10T13:21:24Z</time>
      </trkpt>
      <trkpt lat="49.11039" lon="1.96376">
        <ele>43.73</ele>
        <time>2019-03-10T13:21:37Z</time>
      </trkpt>
      <trkpt lat="49.11041" lon="1.96371">
        <ele>43.32</ele>
        <time>2019-03-10T13:21:48Z</time>
      </trkpt>
      <trkpt lat="49.11043" lon="1.9637">
        <ele>41.54</ele>
        <time>2019-03-10T13:22:04Z</time>
      </trkpt>
      <trkpt lat="49.11046" lon="1.9637">
        <ele>43.23</ele>
        <time>2019-03-10T13:22:08Z</time>
      </trkpt>
      <trkpt lat="49.11051" lon="1.9637">
        <ele>41.71</ele>
        <time>2019-03-10T13:22:30Z</time>
      </trkpt>
      <trkpt lat="49.11059" lon="1.96366">
        <ele>42.71</ele>
        <time>2019-03-10T13:22:46Z</time>
      </trkpt>
      <trkpt lat="49.11061" lon="1.96365">
        <ele>42.35</ele>
        <time>2019-03-10T13:22:49Z</time>
      </trkpt>
      <trkpt lat="49.11074" lon="1.96361">
        <ele>41.73</ele>
        <time>2019-03-10T13:23:04Z</time>
      </trkpt>
      <trkpt lat="49.1109" lon="1.96354">
        <ele>42.05</ele>
        <time>2019-03-10T13:23:19Z</time>
      </trkpt>
      <trkpt lat="49.11096" lon="1.96352">
        <ele>40.92</ele>
        <time>2019-03-10T13:23:25Z</time>
      </trkpt>
      <trkpt lat="49.11098" lon="1.96352">
        <ele>40.78</ele>
        <time>2019-03-10T13:23:27Z</time>
      </trkpt>
      <trkpt lat="49.11122" lon="1.96346">
        <ele>39.43</ele>
        <time>2019-03-10T13:23:46Z</time>
      </trkpt>
      <trkpt lat="49.11127" lon="1.96347">
        <ele>38.93</ele>
        <time>2019-03-10T13:23:50Z</time>
      </trkpt>
      <trkpt lat="49.1114" lon="1.9635">
        <ele>37.95</ele>
        <time>2019-03-10T13:24:02Z</time>
      </trkpt>
      <trkpt lat="49.11158" lon="1.96357">
        <ele>36.7</ele>
        <time>2019-03-10T13:24:17Z</time>
      </trkpt>
      <trkpt lat="49.11159" lon="1.96358">
        <ele>37.48</ele>
        <time>2019-03-10T13:24:18Z</time>
      </trkpt>
      <trkpt lat="49.11174" lon="1.96363">
        <ele>35.18</ele>
        <time>2019-03-10T13:24:32Z</time>
      </trkpt>
      <trkpt lat="49.11178" lon="1.96366">
        <ele>36.68</ele>
        <time>2019-03-10T13:24:35Z</time>
      </trkpt>
      <trkpt lat="49.11188" lon="1.96382">
        <ele>36.07</ele>
        <time>2019-03-10T13:24:47Z</time>
      </trkpt>
      <trkpt lat="49.11193" lon="1.9639">
        <ele>36.11</ele>
        <time>2019-03-10T13:24:58Z</time>
      </trkpt>
      <trkpt lat="49.11196" lon="1.9639">
        <ele>36.55</ele>
        <time>2019-03-10T13:25:02Z</time>
      </trkpt>
      <trkpt lat="49.112" lon="1.96392">
        <ele>35.61</ele>
        <time>2019-03-10T13:25:06Z</time>
      </trkpt>
      <trkpt lat="49.11217" lon="1.96391">
        <ele>34.07</ele>
        <time>2019-03-10T13:25:21Z</time>
      </trkpt>
      <trkpt lat="49.11221" lon="1.96392">
        <ele>33.28</ele>
        <time>2019-03-10T13:25:28Z</time>
      </trkpt>
      <trkpt lat="49.11223" lon="1.96391">
        <ele>33.8</ele>
        <time>2019-03-10T13:25:31Z</time>
      </trkpt>
      <trkpt lat="49.11228" lon="1.96389">
        <ele>34.54</ele>
        <time>2019-03-10T13:25:35Z</time>
      </trkpt>
      <trkpt lat="49.11246" lon="1.96379">
        <ele>33.95</ele>
        <time>2019-03-10T13:25:50Z</time>
      </trkpt>
      <trkpt lat="49.11259" lon="1.96367">
        <ele>34.2</ele>
        <time>2019-03-10T13:26:06Z</time>
      </trkpt>
      <trkpt lat="49.11264" lon="1.96362">
        <ele>33.42</ele>
        <time>2019-03-10T13:26:13Z</time>
      </trkpt>
      <trkpt lat="49.11269" lon="1.96358">
        <ele>33.69</ele>
        <time>2019-03-10T13:26:17Z</time>
      </trkpt>
      <trkpt lat="49.11274" lon="1.96354">
        <ele>34.67</ele>
        <time>2019-03-10T13:26:22Z</time>
      </trkpt>
      <trkpt lat="49.11289" lon="1.96355">
        <ele>34.08</ele>
        <time>2019-03-10T13:26:34Z</time>
      </trkpt>
      <trkpt lat="49.11299" lon="1.96378">
        <ele>32.96</ele>
        <time>2019-03-10T13:26:52Z</time>
      </trkpt>
      <trkpt lat="49.11303" lon="1.96387">
        <ele>32.83</ele>
        <time>2019-03-10T13:27:00Z</time>
      </trkpt>
      <trkpt lat="49.11306" lon="1.96401">
        <ele>34.03</ele>
        <time>2019-03-10T13:27:15Z</time>
      </trkpt>
      <trkpt lat="49.11304" lon="1.9641">
        <ele>33.27</ele>
        <time>2019-03-10T13:27:38Z</time>
      </trkpt>
      <trkpt lat="49.11308" lon="1.96423">
        <ele>32.53</ele>
        <time>2019-03-10T13:27:56Z</time>
      </trkpt>
      <trkpt lat="49.11312" lon="1.96433">
        <ele>34.47</ele>
        <time>2019-03-10T13:28:04Z</time>
      </trkpt>
      <trkpt lat="49.1132" lon="1.96452">
        <ele>33.57</ele>
        <time>2019-03-10T13:28:18Z</time>
      </trkpt>
      <trkpt lat="49.11321" lon="1.96456">
        <ele>32.88</ele>
        <time>2019-03-10T13:28:21Z</time>
      </trkpt>
      <trkpt lat="49.11323" lon="1.96468">
        <ele>34.06</ele>
        <time>2019-03-10T13:28:28Z</time>
      </trkpt>
      <trkpt lat="49.11325" lon="1.96473">
        <ele>35.67</ele>
        <time>2019-03-10T13:28:31Z</time>
      </trkpt>
      <trkpt lat="49.11326" lon="1.9648">
        <ele>34.17</ele>
        <time>2019-03-10T13:28:35Z</time>
      </trkpt>
      <trkpt lat="49.11331" lon="1.96507">
        <ele>33.08</ele>
        <time>2019-03-10T13:28:49Z</time>
      </trkpt>
      <trkpt lat="49.11331" lon="1.96516">
        <ele>36.1</ele>
        <time>2019-03-10T13:28:54Z</time>
      </trkpt>
      <trkpt lat="49.1133" lon="1.96519">
        <ele>35.57</ele>
        <time>2019-03-10T13:28:55Z</time>
      </trkpt>
      <trkpt lat="49.1133" lon="1.96521">
        <ele>36.24</ele>
        <time>2019-03-10T13:28:56Z</time>
      </trkpt>
      <trkpt lat="49.11333" lon="1.96535">
        <ele>36.64</ele>
        <time>2019-03-10T13:29:04Z</time>
      </trkpt>
      <trkpt lat="49.11335" lon="1.96543">
        <ele>36.97</ele>
        <time>2019-03-10T13:29:09Z</time>
      </trkpt>
      <trkpt lat="49.11336" lon="1.96556">
        <ele>37.03</ele>
        <time>2019-03-10T13:29:17Z</time>
      </trkpt>
      <trkpt lat="49.11347" lon="1.96578">
        <ele>38.27</ele>
        <time>2019-03-10T13:29:33Z</time>
      </trkpt>
      <trkpt lat="49.11351" lon="1.96589">
        <ele>38.57</ele>
        <time>2019-03-10T13:29:43Z</time>
      </trkpt>
      <trkpt lat="49.11359" lon="1.96597">
        <ele>39.59</ele>
        <time>2019-03-10T13:29:54Z</time>
      </trkpt>
      <trkpt lat="49.11358" lon="1.96608">
        <ele>40.68</ele>
        <time>2019-03-10T13:30:00Z</time>
      </trkpt>
      <trkpt lat="49.11363" lon="1.96605">
        <ele>42.05</ele>
        <time>2019-03-10T13:30:14Z</time>
      </trkpt>
      <trkpt lat="49.11373" lon="1.96601">
        <ele>42.91</ele>
        <time>2019-03-10T13:30:27Z</time>
      </trkpt>
      <trkpt lat="49.11376" lon="1.96599">
        <ele>43.42</ele>
        <time>2019-03-10T13:30:30Z</time>
      </trkpt>
      <trkpt lat="49.11387" lon="1.96578">
        <ele>45</ele>
        <time>2019-03-10T13:30:47Z</time>
      </trkpt>
      <trkpt lat="49.11391" lon="1.96569">
        <ele>43.49</ele>
        <time>2019-03-10T13:31:02Z</time>
      </trkpt>
      <trkpt lat="49.11392" lon="1.96568">
        <ele>50.1</ele>
        <time>2019-03-10T13:31:04Z</time>
      </trkpt>
      <trkpt lat="49.11393" lon="1.96567">
        <ele>46.99</ele>
        <time>2019-03-10T13:31:05Z</time>
      </trkpt>
      <trkpt lat="49.11393" lon="1.96564">
        <ele>45.62</ele>
        <time>2019-03-10T13:31:07Z</time>
      </trkpt>
      <trkpt lat="49.114" lon="1.96552">
        <ele>46.44</ele>
        <time>2019-03-10T13:31:24Z</time>
      </trkpt>
      <trkpt lat="49.11402" lon="1.96549">
        <ele>47.8</ele>
        <time>2019-03-10T13:31:27Z</time>
      </trkpt>
      <trkpt lat="49.11408" lon="1.96527">
        <ele>47.9</ele>
        <time>2019-03-10T13:31:42Z</time>
      </trkpt>
      <trkpt lat="49.11419" lon="1.96507">
        <ele>47.78</ele>
        <time>2019-03-10T13:31:59Z</time>
      </trkpt>
      <trkpt lat="49.11422" lon="1.96501">
        <ele>51.55</ele>
        <time>2019-03-10T13:32:04Z</time>
      </trkpt>
      <trkpt lat="49.11422" lon="1.965">
        <ele>51.55</ele>
        <time>2019-03-10T13:32:05Z</time>
      </trkpt>
      <trkpt lat="49.11425" lon="1.96494">
        <ele>49.6</ele>
        <time>2019-03-10T13:32:11Z</time>
      </trkpt>
      <trkpt lat="49.11434" lon="1.96478">
        <ele>50.44</ele>
        <time>2019-03-10T13:32:29Z</time>
      </trkpt>
      <trkpt lat="49.11442" lon="1.96463">
        <ele>50.97</ele>
        <time>2019-03-10T13:32:44Z</time>
      </trkpt>
      <trkpt lat="49.11452" lon="1.96444">
        <ele>51.64</ele>
        <time>2019-03-10T13:33:01Z</time>
      </trkpt>
      <trkpt lat="49.11464" lon="1.96422">
        <ele>52.17</ele>
        <time>2019-03-10T13:33:19Z</time>
      </trkpt>
      <trkpt lat="49.11474" lon="1.96409">
        <ele>52.75</ele>
        <time>2019-03-10T13:33:32Z</time>
      </trkpt>
      <trkpt lat="49.11482" lon="1.96385">
        <ele>52.77</ele>
        <time>2019-03-10T13:33:51Z</time>
      </trkpt>
      <trkpt lat="49.11498" lon="1.96368">
        <ele>54.82</ele>
        <time>2019-03-10T13:34:11Z</time>
      </trkpt>
      <trkpt lat="49.11521" lon="1.96355">
        <ele>54.14</ele>
        <time>2019-03-10T13:34:34Z</time>
      </trkpt>
      <trkpt lat="49.1154" lon="1.96351">
        <ele>54.7</ele>
        <time>2019-03-10T13:34:54Z</time>
      </trkpt>
      <trkpt lat="49.11556" lon="1.96355">
        <ele>53.26</ele>
        <time>2019-03-10T13:35:14Z</time>
      </trkpt>
      <trkpt lat="49.11577" lon="1.9636">
        <ele>53.47</ele>
        <time>2019-03-10T13:35:35Z</time>
      </trkpt>
      <trkpt lat="49.11598" lon="1.96367">
        <ele>51.82</ele>
        <time>2019-03-10T13:35:54Z</time>
      </trkpt>
      <trkpt lat="49.11602" lon="1.96368">
        <ele>53.85</ele>
        <time>2019-03-10T13:35:57Z</time>
      </trkpt>
      <trkpt lat="49.11618" lon="1.96375">
        <ele>53.23</ele>
        <time>2019-03-10T13:36:16Z</time>
      </trkpt>
      <trkpt lat="49.11635" lon="1.96384">
        <ele>54.71</ele>
        <time>2019-03-10T13:36:37Z</time>
      </trkpt>
      <trkpt lat="49.11642" lon="1.96388">
        <ele>52.38</ele>
        <time>2019-03-10T13:36:45Z</time>
      </trkpt>
      <trkpt lat="49.11647" lon="1.96391">
        <ele>55.82</ele>
        <time>2019-03-10T13:36:51Z</time>
      </trkpt>
      <trkpt lat="49.11648" lon="1.96391">
        <ele>55.51</ele>
        <time>2019-03-10T13:36:52Z</time>
      </trkpt>
      <trkpt lat="49.11662" lon="1.96402">
        <ele>57.33</ele>
        <time>2019-03-10T13:37:13Z</time>
      </trkpt>
      <trkpt lat="49.11684" lon="1.96415">
        <ele>58.12</ele>
        <time>2019-03-10T13:37:35Z</time>
      </trkpt>
      <trkpt lat="49.11695" lon="1.9643">
        <ele>59.37</ele>
        <time>2019-03-10T13:37:57Z</time>
      </trkpt>
      <trkpt lat="49.11703" lon="1.96433">
        <ele>61.61</ele>
        <time>2019-03-10T13:38:10Z</time>
      </trkpt>
      <trkpt lat="49.11718" lon="1.9643">
        <ele>63.41</ele>
        <time>2019-03-10T13:38:30Z</time>
      </trkpt>
      <trkpt lat="49.11733" lon="1.96424">
        <ele>64.76</ele>
        <time>2019-03-10T13:38:51Z</time>
      </trkpt>
      <trkpt lat="49.11749" lon="1.96427">
        <ele>65.79</ele>
        <time>2019-03-10T13:39:11Z</time>
      </trkpt>
      <trkpt lat="49.1176" lon="1.9643">
        <ele>65.3</ele>
        <time>2019-03-10T13:39:29Z</time>
      </trkpt>
      <trkpt lat="49.11775" lon="1.9643">
        <ele>65.74</ele>
        <time>2019-03-10T13:39:50Z</time>
      </trkpt>
      <trkpt lat="49.11792" lon="1.96433">
        <ele>66.45</ele>
        <time>2019-03-10T13:40:09Z</time>
      </trkpt>
      <trkpt lat="49.11809" lon="1.96433">
        <ele>66.71</ele>
        <time>2019-03-10T13:40:28Z</time>
      </trkpt>
      <trkpt lat="49.11819" lon="1.96435">
        <ele>67.12</ele>
        <time>2019-03-10T13:40:37Z</time>
      </trkpt>
      <trkpt lat="49.11823" lon="1.96436">
        <ele>65.67</ele>
        <time>2019-03-10T13:40:41Z</time>
      </trkpt>
      <trkpt lat="49.11829" lon="1.96437">
        <ele>66.16</ele>
        <time>2019-03-10T13:41:02Z</time>
      </trkpt>
      <trkpt lat="49.11829" lon="1.96438">
        <ele>65.87</ele>
        <time>2019-03-10T13:41:17Z</time>
      </trkpt>
      <trkpt lat="49.1183" lon="1.96438">
        <ele>66.15</ele>
        <time>2019-03-10T13:41:27Z</time>
      </trkpt>
      <trkpt lat="49.11831" lon="1.96438">
        <ele>65.95</ele>
        <time>2019-03-10T13:41:53Z</time>
      </trkpt>
      <trkpt lat="49.11831" lon="1.96439">
        <ele>67.34</ele>
        <time>2019-03-10T13:42:00Z</time>
      </trkpt>
      <trkpt lat="49.11831" lon="1.96438">
        <ele>64.05</ele>
        <time>2019-03-10T13:42:14Z</time>
      </trkpt>
      <trkpt lat="49.11831" lon="1.96434">
        <ele>65.67</ele>
        <time>2019-03-10T13:42:35Z</time>
      </trkpt>
      <trkpt lat="49.11831" lon="1.96434">
        <ele>69.21</ele>
        <time>2019-03-10T13:42:39Z</time>
      </trkpt>
      <trkpt lat="49.11831" lon="1.96434">
        <ele>68.91</ele>
        <time>2019-03-10T13:42:40Z</time>
      </trkpt>
      <trkpt lat="49.11831" lon="1.96434">
        <ele>69.06</ele>
        <time>2019-03-10T13:42:48Z</time>
      </trkpt>
      <trkpt lat="49.11831" lon="1.96434">
        <ele>65.78</ele>
        <time>2019-03-10T13:42:51Z</time>
      </trkpt>
      <trkpt lat="49.11829" lon="1.96435">
        <ele>70.66</ele>
        <time>2019-03-10T13:43:08Z</time>
      </trkpt>
      <trkpt lat="49.11829" lon="1.96435">
        <ele>70.87</ele>
        <time>2019-03-10T13:43:09Z</time>
      </trkpt>
      <trkpt lat="49.1183" lon="1.96436">
        <ele>67.85</ele>
        <time>2019-03-10T13:43:14Z</time>
      </trkpt>
      <trkpt lat="49.1183" lon="1.96436">
        <ele>65.3</ele>
        <time>2019-03-10T13:43:17Z</time>
      </trkpt>
      <trkpt lat="49.1183" lon="1.96436">
        <ele>68.08</ele>
        <time>2019-03-10T13:43:20Z</time>
      </trkpt>
      <trkpt lat="49.11832" lon="1.96438">
        <ele>68</ele>
        <time>2019-03-10T13:43:41Z</time>
      </trkpt>
      <trkpt lat="49.11832" lon="1.96438">
        <ele>69.89</ele>
        <time>2019-03-10T13:43:49Z</time>
      </trkpt>
      <trkpt lat="49.11832" lon="1.96437">
        <ele>67.44</ele>
        <time>2019-03-10T13:44:06Z</time>
      </trkpt>
      <trkpt lat="49.11832" lon="1.96437">
        <ele>67.01</ele>
        <time>2019-03-10T13:44:15Z</time>
      </trkpt>
      <trkpt lat="49.11833" lon="1.96437">
        <ele>68.76</ele>
        <time>2019-03-10T13:44:39Z</time>
      </trkpt>
      <trkpt lat="49.11834" lon="1.96438">
        <ele>69.21</ele>
        <time>2019-03-10T13:45:06Z</time>
      </trkpt>
      <trkpt lat="49.11834" lon="1.96438">
        <ele>69.1</ele>
        <time>2019-03-10T13:45:07Z</time>
      </trkpt>
      <trkpt lat="49.11834" lon="1.96439">
        <ele>66.26</ele>
        <time>2019-03-10T13:45:13Z</time>
      </trkpt>
      <trkpt lat="49.11834" lon="1.96438">
        <ele>68.28</ele>
        <time>2019-03-10T13:45:38Z</time>
      </trkpt>
      <trkpt lat="49.11833" lon="1.96437">
        <ele>69.43</ele>
        <time>2019-03-10T13:46:04Z</time>
      </trkpt>
      <trkpt lat="49.11832" lon="1.96436">
        <ele>67.5</ele>
        <time>2019-03-10T13:46:16Z</time>
      </trkpt>
      <trkpt lat="49.1183" lon="1.96435">
        <ele>68.22</ele>
        <time>2019-03-10T13:46:42Z</time>
      </trkpt>
      <trkpt lat="49.1183" lon="1.96434">
        <ele>66.47</ele>
        <time>2019-03-10T13:46:49Z</time>
      </trkpt>
      <trkpt lat="49.1183" lon="1.96434">
        <ele>69.55</ele>
        <time>2019-03-10T13:46:55Z</time>
      </trkpt>
      <trkpt lat="49.11831" lon="1.96432">
        <ele>70</ele>
        <time>2019-03-10T13:47:10Z</time>
      </trkpt>
      <trkpt lat="49.11832" lon="1.96431">
        <ele>68.4</ele>
        <time>2019-03-10T13:47:20Z</time>
      </trkpt>
      <trkpt lat="49.11833" lon="1.96431">
        <ele>69.45</ele>
        <time>2019-03-10T13:47:45Z</time>
      </trkpt>
      <trkpt lat="49.11833" lon="1.96431">
        <ele>70.09</ele>
        <time>2019-03-10T13:47:47Z</time>
      </trkpt>
      <trkpt lat="49.11833" lon="1.96431">
        <ele>68.94</ele>
        <time>2019-03-10T13:48:11Z</time>
      </trkpt>
      <trkpt lat="49.11832" lon="1.96432">
        <ele>69.22</ele>
        <time>2019-03-10T13:48:36Z</time>
      </trkpt>
      <trkpt lat="49.11833" lon="1.96432">
        <ele>70.73</ele>
        <time>2019-03-10T13:48:43Z</time>
      </trkpt>
      <trkpt lat="49.11833" lon="1.96432">
        <ele>67.8</ele>
        <time>2019-03-10T13:48:46Z</time>
      </trkpt>
      <trkpt lat="49.11843" lon="1.9643">
        <ele>68.87</ele>
        <time>2019-03-10T13:49:04Z</time>
      </trkpt>
      <trkpt lat="49.11847" lon="1.96428">
        <ele>68.25</ele>
        <time>2019-03-10T13:49:09Z</time>
      </trkpt>
      <trkpt lat="49.11849" lon="1.96428">
        <ele>69.64</ele>
        <time>2019-03-10T13:49:12Z</time>
      </trkpt>
      <trkpt lat="49.11859" lon="1.96426">
        <ele>69.93</ele>
        <time>2019-03-10T13:49:31Z</time>
      </trkpt>
      <trkpt lat="49.1186" lon="1.96426">
        <ele>70.13</ele>
        <time>2019-03-10T13:49:32Z</time>
      </trkpt>
      <trkpt lat="49.11871" lon="1.96424">
        <ele>66.4</ele>
        <time>2019-03-10T13:49:49Z</time>
      </trkpt>
      <trkpt lat="49.11872" lon="1.96424">
        <ele>66.31</ele>
        <time>2019-03-10T13:49:50Z</time>
      </trkpt>
      <trkpt lat="49.11877" lon="1.96423">
        <ele>69.04</ele>
        <time>2019-03-10T13:49:56Z</time>
      </trkpt>
      <trkpt lat="49.11879" lon="1.96423">
        <ele>66.75</ele>
        <time>2019-03-10T13:49:58Z</time>
      </trkpt>
      <trkpt lat="49.11893" lon="1.96426">
        <ele>63.64</ele>
        <time>2019-03-10T13:50:14Z</time>
      </trkpt>
      <trkpt lat="49.11897" lon="1.96427">
        <ele>64.5</ele>
        <time>2019-03-10T13:50:20Z</time>
      </trkpt>
      <trkpt lat="49.11914" lon="1.96438">
        <ele>60.54</ele>
        <time>2019-03-10T13:50:40Z</time>
      </trkpt>
      <trkpt lat="49.11929" lon="1.96452">
        <ele>58.61</ele>
        <time>2019-03-10T13:50:59Z</time>
      </trkpt>
      <trkpt lat="49.11935" lon="1.96455">
        <ele>55.86</ele>
        <time>2019-03-10T13:51:08Z</time>
      </trkpt>
      <trkpt lat="49.11948" lon="1.96471">
        <ele>53.9</ele>
        <time>2019-03-10T13:51:28Z</time>
      </trkpt>
      <trkpt lat="49.11956" lon="1.9648">
        <ele>50.45</ele>
        <time>2019-03-10T13:51:44Z</time>
      </trkpt>
      <trkpt lat="49.11957" lon="1.96481">
        <ele>50.3</ele>
        <time>2019-03-10T13:51:45Z</time>
      </trkpt>
      <trkpt lat="49.1197" lon="1.96494">
        <ele>47.82</ele>
        <time>2019-03-10T13:52:06Z</time>
      </trkpt>
      <trkpt lat="49.11985" lon="1.96509">
        <ele>47.02</ele>
        <time>2019-03-10T13:52:25Z</time>
      </trkpt>
      <trkpt lat="49.12001" lon="1.96525">
        <ele>45.13</ele>
        <time>2019-03-10T13:52:42Z</time>
      </trkpt>
      <trkpt lat="49.12004" lon="1.96528">
        <ele>43.6</ele>
        <time>2019-03-10T13:52:46Z</time>
      </trkpt>
      <trkpt lat="49.12013" lon="1.96542">
        <ele>43.51</ele>
        <time>2019-03-10T13:53:08Z</time>
      </trkpt>
      <trkpt lat="49.1202" lon="1.96544">
        <ele>44.85</ele>
        <time>2019-03-10T13:53:30Z</time>
      </trkpt>
      <trkpt lat="49.12029" lon="1.96544">
        <ele>44.03</ele>
        <time>2019-03-10T13:53:52Z</time>
      </trkpt>
      <trkpt lat="49.12038" lon="1.96536">
        <ele>43.74</ele>
        <time>2019-03-10T13:54:14Z</time>
      </trkpt>
      <trkpt lat="49.12053" lon="1.96526">
        <ele>42.14</ele>
        <time>2019-03-10T13:54:32Z</time>
      </trkpt>
      <trkpt lat="49.12055" lon="1.96525">
        <ele>44.06</ele>
        <time>2019-03-10T13:54:35Z</time>
      </trkpt>
      <trkpt lat="49.12066" lon="1.96522">
        <ele>43.96</ele>
        <time>2019-03-10T13:54:46Z</time>
      </trkpt>
      <trkpt lat="49.12082" lon="1.96505">
        <ele>44.6</ele>
        <time>2019-03-10T13:55:06Z</time>
      </trkpt>
      <trkpt lat="49.12081" lon="1.96482">
        <ele>44.18</ele>
        <time>2019-03-10T13:55:25Z</time>
      </trkpt>
      <trkpt lat="49.12077" lon="1.96456">
        <ele>44.07</ele>
        <time>2019-03-10T13:55:46Z</time>
      </trkpt>
      <trkpt lat="49.12075" lon="1.96445">
        <ele>47.09</ele>
        <time>2019-03-10T13:55:54Z</time>
      </trkpt>
      <trkpt lat="49.12073" lon="1.96425">
        <ele>46.1</ele>
        <time>2019-03-10T13:56:11Z</time>
      </trkpt>
      <trkpt lat="49.12069" lon="1.96408">
        <ele>49.45</ele>
        <time>2019-03-10T13:56:25Z</time>
      </trkpt>
      <trkpt lat="49.12069" lon="1.96407">
        <ele>49.43</ele>
        <time>2019-03-10T13:56:26Z</time>
      </trkpt>
      <trkpt lat="49.12068" lon="1.9638">
        <ele>51.74</ele>
        <time>2019-03-10T13:56:47Z</time>
      </trkpt>
      <trkpt lat="49.12068" lon="1.96378">
        <ele>50.57</ele>
        <time>2019-03-10T13:56:51Z</time>
      </trkpt>
      <trkpt lat="49.1207" lon="1.96363">
        <ele>51.15</ele>
        <time>2019-03-10T13:57:08Z</time>
      </trkpt>
      <trkpt lat="49.1207" lon="1.96347">
        <ele>54.21</ele>
        <time>2019-03-10T13:57:20Z</time>
      </trkpt>
      <trkpt lat="49.12072" lon="1.96338">
        <ele>51.19</ele>
        <time>2019-03-10T13:57:27Z</time>
      </trkpt>
      <trkpt lat="49.12072" lon="1.96336">
        <ele>51.71</ele>
        <time>2019-03-10T13:57:28Z</time>
      </trkpt>
      <trkpt lat="49.12073" lon="1.96329">
        <ele>53.75</ele>
        <time>2019-03-10T13:57:34Z</time>
      </trkpt>
      <trkpt lat="49.12076" lon="1.96311">
        <ele>53.85</ele>
        <time>2019-03-10T13:57:53Z</time>
      </trkpt>
      <trkpt lat="49.12077" lon="1.96301">
        <ele>56.9</ele>
        <time>2019-03-10T13:58:00Z</time>
      </trkpt>
      <trkpt lat="49.12078" lon="1.963">
        <ele>55.94</ele>
        <time>2019-03-10T13:58:01Z</time>
      </trkpt>
      <trkpt lat="49.12079" lon="1.96291">
        <ele>56.47</ele>
        <time>2019-03-10T13:58:07Z</time>
      </trkpt>
      <trkpt lat="49.12087" lon="1.96271">
        <ele>60.06</ele>
        <time>2019-03-10T13:58:27Z</time>
      </trkpt>
      <trkpt lat="49.12091" lon="1.96255">
        <ele>59.26</ele>
        <time>2019-03-10T13:58:42Z</time>
      </trkpt>
      <trkpt lat="49.12092" lon="1.9625">
        <ele>60.32</ele>
        <time>2019-03-10T13:58:47Z</time>
      </trkpt>
      <trkpt lat="49.12098" lon="1.96226">
        <ele>60.53</ele>
        <time>2019-03-10T13:59:06Z</time>
      </trkpt>
      <trkpt lat="49.121" lon="1.96222">
        <ele>61.75</ele>
        <time>2019-03-10T13:59:10Z</time>
      </trkpt>
      <trkpt lat="49.12107" lon="1.96208">
        <ele>59.29</ele>
        <time>2019-03-10T13:59:23Z</time>
      </trkpt>
      <trkpt lat="49.12111" lon="1.96199">
        <ele>63.18</ele>
        <time>2019-03-10T13:59:32Z</time>
      </trkpt>
      <trkpt lat="49.12115" lon="1.96192">
        <ele>65.44</ele>
        <time>2019-03-10T13:59:39Z</time>
      </trkpt>
      <trkpt lat="49.12115" lon="1.96191">
        <ele>57.74</ele>
        <time>2019-03-10T13:59:41Z</time>
      </trkpt>
      <trkpt lat="49.12116" lon="1.9619">
        <ele>67.93</ele>
        <time>2019-03-10T13:59:42Z</time>
      </trkpt>
      <trkpt lat="49.12116" lon="1.96189">
        <ele>65.62</ele>
        <time>2019-03-10T13:59:43Z</time>
      </trkpt>
      <trkpt lat="49.12117" lon="1.96187">
        <ele>64.97</ele>
        <time>2019-03-10T13:59:45Z</time>
      </trkpt>
      <trkpt lat="49.12118" lon="1.96183">
        <ele>63.64</ele>
        <time>2019-03-10T13:59:48Z</time>
      </trkpt>
      <trkpt lat="49.1212" lon="1.96179">
        <ele>64.79</ele>
        <time>2019-03-10T13:59:52Z</time>
      </trkpt>
      <trkpt lat="49.12121" lon="1.96176">
        <ele>62.64</ele>
        <time>2019-03-10T13:59:55Z</time>
      </trkpt>
      <trkpt lat="49.12121" lon="1.96174">
        <ele>66.39</ele>
        <time>2019-03-10T13:59:57Z</time>
      </trkpt>
      <trkpt lat="49.12121" lon="1.96174">
        <ele>69.86</ele>
        <time>2019-03-10T13:59:58Z</time>
      </trkpt>
      <trkpt lat="49.12121" lon="1.96174">
        <ele>69.67</ele>
        <time>2019-03-10T13:59:59Z</time>
      </trkpt>
      <trkpt lat="49.12122" lon="1.96172">
        <ele>63.02</ele>
        <time>2019-03-10T14:00:02Z</time>
      </trkpt>
      <trkpt lat="49.12122" lon="1.96169">
        <ele>64.55</ele>
        <time>2019-03-10T14:00:05Z</time>
      </trkpt>
      <trkpt lat="49.12124" lon="1.96165">
        <ele>66.74</ele>
        <time>2019-03-10T14:00:08Z</time>
      </trkpt>
      <trkpt lat="49.12128" lon="1.9616">
        <ele>68.2</ele>
        <time>2019-03-10T14:00:13Z</time>
      </trkpt>
      <trkpt lat="49.12129" lon="1.96158">
        <ele>71.22</ele>
        <time>2019-03-10T14:00:15Z</time>
      </trkpt>
      <trkpt lat="49.1213" lon="1.96158">
        <ele>67.29</ele>
        <time>2019-03-10T14:00:17Z</time>
      </trkpt>
      <trkpt lat="49.12131" lon="1.96158">
        <ele>67.76</ele>
        <time>2019-03-10T14:00:18Z</time>
      </trkpt>
      <trkpt lat="49.12131" lon="1.96157">
        <ele>64.44</ele>
        <time>2019-03-10T14:00:19Z</time>
      </trkpt>
      <trkpt lat="49.12132" lon="1.96156">
        <ele>64.24</ele>
        <time>2019-03-10T14:00:20Z</time>
      </trkpt>
      <trkpt lat="49.12133" lon="1.96154">
        <ele>68.82</ele>
        <time>2019-03-10T14:00:22Z</time>
      </trkpt>
      <trkpt lat="49.12139" lon="1.9614">
        <ele>69.86</ele>
        <time>2019-03-10T14:00:36Z</time>
      </trkpt>
      <trkpt lat="49.1214" lon="1.96137">
        <ele>65.53</ele>
        <time>2019-03-10T14:00:38Z</time>
      </trkpt>
      <trkpt lat="49.12143" lon="1.96134">
        <ele>70.04</ele>
        <time>2019-03-10T14:00:41Z</time>
      </trkpt>
      <trkpt lat="49.12143" lon="1.96133">
        <ele>70.02</ele>
        <time>2019-03-10T14:00:42Z</time>
      </trkpt>
      <trkpt lat="49.12151" lon="1.96119">
        <ele>70.52</ele>
        <time>2019-03-10T14:00:53Z</time>
      </trkpt>
      <trkpt lat="49.12152" lon="1.96117">
        <ele>69.24</ele>
        <time>2019-03-10T14:00:55Z</time>
      </trkpt>
      <trkpt lat="49.12155" lon="1.96111">
        <ele>65.92</ele>
        <time>2019-03-10T14:01:00Z</time>
      </trkpt>
      <trkpt lat="49.12156" lon="1.96109">
        <ele>65.92</ele>
        <time>2019-03-10T14:01:01Z</time>
      </trkpt>
      <trkpt lat="49.12158" lon="1.96105">
        <ele>69.84</ele>
        <time>2019-03-10T14:01:05Z</time>
      </trkpt>
      <trkpt lat="49.12159" lon="1.96104">
        <ele>71.1</ele>
        <time>2019-03-10T14:01:07Z</time>
      </trkpt>
      <trkpt lat="49.12159" lon="1.96103">
        <ele>74.74</ele>
        <time>2019-03-10T14:01:08Z</time>
      </trkpt>
      <trkpt lat="49.1216" lon="1.961">
        <ele>67.92</ele>
        <time>2019-03-10T14:01:10Z</time>
      </trkpt>
      <trkpt lat="49.12161" lon="1.96099">
        <ele>66.26</ele>
        <time>2019-03-10T14:01:11Z</time>
      </trkpt>
      <trkpt lat="49.12163" lon="1.96097">
        <ele>67.62</ele>
        <time>2019-03-10T14:01:14Z</time>
      </trkpt>
      <trkpt lat="49.12163" lon="1.96096">
        <ele>64.1</ele>
        <time>2019-03-10T14:01:15Z</time>
      </trkpt>
      <trkpt lat="49.12164" lon="1.96095">
        <ele>65.33</ele>
        <time>2019-03-10T14:01:16Z</time>
      </trkpt>
      <trkpt lat="49.12165" lon="1.96093">
        <ele>71.7</ele>
        <time>2019-03-10T14:01:18Z</time>
      </trkpt>
      <trkpt lat="49.12166" lon="1.96092">
        <ele>66.78</ele>
        <time>2019-03-10T14:01:19Z</time>
      </trkpt>
      <trkpt lat="49.12167" lon="1.9609">
        <ele>71.02</ele>
        <time>2019-03-10T14:01:21Z</time>
      </trkpt>
      <trkpt lat="49.12172" lon="1.96082">
        <ele>68.67</ele>
        <time>2019-03-10T14:01:29Z</time>
      </trkpt>
      <trkpt lat="49.12173" lon="1.9608">
        <ele>66.43</ele>
        <time>2019-03-10T14:01:31Z</time>
      </trkpt>
      <trkpt lat="49.12176" lon="1.96076">
        <ele>64.17</ele>
        <time>2019-03-10T14:01:35Z</time>
      </trkpt>
      <trkpt lat="49.12177" lon="1.96074">
        <ele>67.39</ele>
        <time>2019-03-10T14:01:37Z</time>
      </trkpt>
      <trkpt lat="49.12178" lon="1.96071">
        <ele>70.49</ele>
        <time>2019-03-10T14:01:39Z</time>
      </trkpt>
      <trkpt lat="49.1218" lon="1.96069">
        <ele>69.16</ele>
        <time>2019-03-10T14:01:41Z</time>
      </trkpt>
      <trkpt lat="49.12182" lon="1.96067">
        <ele>71.53</ele>
        <time>2019-03-10T14:01:43Z</time>
      </trkpt>
      <trkpt lat="49.12186" lon="1.96061">
        <ele>69.29</ele>
        <time>2019-03-10T14:01:49Z</time>
      </trkpt>
      <trkpt lat="49.12187" lon="1.96059">
        <ele>72.72</ele>
        <time>2019-03-10T14:01:51Z</time>
      </trkpt>
      <trkpt lat="49.12188" lon="1.96058">
        <ele>72.87</ele>
        <time>2019-03-10T14:01:52Z</time>
      </trkpt>
      <trkpt lat="49.12192" lon="1.96049">
        <ele>76.15</ele>
        <time>2019-03-10T14:01:59Z</time>
      </trkpt>
      <trkpt lat="49.12198" lon="1.96035">
        <ele>72.94</ele>
        <time>2019-03-10T14:02:10Z</time>
      </trkpt>
      <trkpt lat="49.12199" lon="1.96034">
        <ele>74.6</ele>
        <time>2019-03-10T14:02:11Z</time>
      </trkpt>
      <trkpt lat="49.12201" lon="1.96027">
        <ele>75.61</ele>
        <time>2019-03-10T14:02:16Z</time>
      </trkpt>
      <trkpt lat="49.12203" lon="1.9602">
        <ele>74.17</ele>
        <time>2019-03-10T14:02:21Z</time>
      </trkpt>
      <trkpt lat="49.12209" lon="1.96003">
        <ele>73.8</ele>
        <time>2019-03-10T14:02:35Z</time>
      </trkpt>
      <trkpt lat="49.12218" lon="1.9599">
        <ele>76.02</ele>
        <time>2019-03-10T14:02:47Z</time>
      </trkpt>
      <trkpt lat="49.1222" lon="1.95988">
        <ele>74.55</ele>
        <time>2019-03-10T14:02:50Z</time>
      </trkpt>
      <trkpt lat="49.12229" lon="1.9598">
        <ele>77.69</ele>
        <time>2019-03-10T14:03:02Z</time>
      </trkpt>
      <trkpt lat="49.12231" lon="1.95977">
        <ele>75.1</ele>
        <time>2019-03-10T14:03:06Z</time>
      </trkpt>
      <trkpt lat="49.12235" lon="1.95975">
        <ele>78.13</ele>
        <time>2019-03-10T14:03:09Z</time>
      </trkpt>
      <trkpt lat="49.12237" lon="1.95973">
        <ele>80.25</ele>
        <time>2019-03-10T14:03:12Z</time>
      </trkpt>
      <trkpt lat="49.12239" lon="1.95971">
        <ele>78.51</ele>
        <time>2019-03-10T14:03:15Z</time>
      </trkpt>
      <trkpt lat="49.12241" lon="1.9597">
        <ele>74.7</ele>
        <time>2019-03-10T14:03:17Z</time>
      </trkpt>
      <trkpt lat="49.12242" lon="1.95969">
        <ele>76.36</ele>
        <time>2019-03-10T14:03:18Z</time>
      </trkpt>
      <trkpt lat="49.12244" lon="1.95967">
        <ele>77.71</ele>
        <time>2019-03-10T14:03:20Z</time>
      </trkpt>
      <trkpt lat="49.12247" lon="1.95965">
        <ele>74.5</ele>
        <time>2019-03-10T14:03:23Z</time>
      </trkpt>
      <trkpt lat="49.12251" lon="1.95963">
        <ele>77.66</ele>
        <time>2019-03-10T14:03:27Z</time>
      </trkpt>
      <trkpt lat="49.12257" lon="1.95957">
        <ele>76.98</ele>
        <time>2019-03-10T14:03:34Z</time>
      </trkpt>
      <trkpt lat="49.12264" lon="1.95952">
        <ele>75.02</ele>
        <time>2019-03-10T14:03:39Z</time>
      </trkpt>
      <trkpt lat="49.12267" lon="1.95952">
        <ele>79.4</ele>
        <time>2019-03-10T14:03:41Z</time>
      </trkpt>
      <trkpt lat="49.12269" lon="1.95951">
        <ele>80.72</ele>
        <time>2019-03-10T14:03:43Z</time>
      </trkpt>
      <trkpt lat="49.12271" lon="1.9595">
        <ele>76.65</ele>
        <time>2019-03-10T14:03:45Z</time>
      </trkpt>
      <trkpt lat="49.12274" lon="1.95947">
        <ele>77.75</ele>
        <time>2019-03-10T14:03:49Z</time>
      </trkpt>
      <trkpt lat="49.12282" lon="1.9594">
        <ele>79.14</ele>
        <time>2019-03-10T14:03:55Z</time>
      </trkpt>
      <trkpt lat="49.12284" lon="1.95939">
        <ele>76.33</ele>
        <time>2019-03-10T14:03:57Z</time>
      </trkpt>
      <trkpt lat="49.12291" lon="1.95932">
        <ele>78.22</ele>
        <time>2019-03-10T14:04:03Z</time>
      </trkpt>
      <trkpt lat="49.12295" lon="1.95928">
        <ele>74.68</ele>
        <time>2019-03-10T14:04:07Z</time>
      </trkpt>
      <trkpt lat="49.12296" lon="1.95927">
        <ele>77.83</ele>
        <time>2019-03-10T14:04:08Z</time>
      </trkpt>
      <trkpt lat="49.12297" lon="1.95925">
        <ele>81.24</ele>
        <time>2019-03-10T14:04:09Z</time>
      </trkpt>
      <trkpt lat="49.123" lon="1.95922">
        <ele>79.2</ele>
        <time>2019-03-10T14:04:12Z</time>
      </trkpt>
      <trkpt lat="49.12302" lon="1.9592">
        <ele>76.37</ele>
        <time>2019-03-10T14:04:14Z</time>
      </trkpt>
      <trkpt lat="49.12304" lon="1.95918">
        <ele>80.59</ele>
        <time>2019-03-10T14:04:16Z</time>
      </trkpt>
      <trkpt lat="49.12305" lon="1.95917">
        <ele>76.71</ele>
        <time>2019-03-10T14:04:17Z</time>
      </trkpt>
      <trkpt lat="49.12309" lon="1.95915">
        <ele>82.62</ele>
        <time>2019-03-10T14:04:20Z</time>
      </trkpt>
      <trkpt lat="49.1231" lon="1.95915">
        <ele>78.77</ele>
        <time>2019-03-10T14:04:21Z</time>
      </trkpt>
      <trkpt lat="49.12313" lon="1.95911">
        <ele>80.75</ele>
        <time>2019-03-10T14:04:24Z</time>
      </trkpt>
      <trkpt lat="49.12318" lon="1.95905">
        <ele>77.44</ele>
        <time>2019-03-10T14:04:28Z</time>
      </trkpt>
      <trkpt lat="49.1232" lon="1.95903">
        <ele>74.27</ele>
        <time>2019-03-10T14:04:30Z</time>
      </trkpt>
      <trkpt lat="49.12321" lon="1.95902">
        <ele>75.08</ele>
        <time>2019-03-10T14:04:31Z</time>
      </trkpt>
      <trkpt lat="49.12322" lon="1.95901">
        <ele>78.4</ele>
        <time>2019-03-10T14:04:32Z</time>
      </trkpt>
      <trkpt lat="49.12323" lon="1.95899">
        <ele>76.61</ele>
        <time>2019-03-10T14:04:33Z</time>
      </trkpt>
      <trkpt lat="49.12325" lon="1.95897">
        <ele>74.85</ele>
        <time>2019-03-10T14:04:35Z</time>
      </trkpt>
      <trkpt lat="49.12329" lon="1.95894">
        <ele>74.89</ele>
        <time>2019-03-10T14:04:39Z</time>
      </trkpt>
      <trkpt lat="49.12332" lon="1.95892">
        <ele>80.6</ele>
        <time>2019-03-10T14:04:42Z</time>
      </trkpt>
      <trkpt lat="49.12338" lon="1.95887">
        <ele>80.52</ele>
        <time>2019-03-10T14:04:48Z</time>
      </trkpt>
      <trkpt lat="49.12344" lon="1.95882">
        <ele>80.63</ele>
        <time>2019-03-10T14:04:53Z</time>
      </trkpt>
      <trkpt lat="49.12346" lon="1.95879">
        <ele>81.57</ele>
        <time>2019-03-10T14:04:55Z</time>
      </trkpt>
      <trkpt lat="49.12351" lon="1.95876">
        <ele>78.11</ele>
        <time>2019-03-10T14:04:59Z</time>
      </trkpt>
      <trkpt lat="49.12357" lon="1.95875">
        <ele>74.88</ele>
        <time>2019-03-10T14:05:03Z</time>
      </trkpt>
      <trkpt lat="49.12362" lon="1.95872">
        <ele>79.21</ele>
        <time>2019-03-10T14:05:09Z</time>
      </trkpt>
      <trkpt lat="49.12365" lon="1.95871">
        <ele>83.49</ele>
        <time>2019-03-10T14:05:12Z</time>
      </trkpt>
      <trkpt lat="49.12366" lon="1.9587">
        <ele>80.44</ele>
        <time>2019-03-10T14:05:14Z</time>
      </trkpt>
      <trkpt lat="49.12367" lon="1.95869">
        <ele>80.69</ele>
        <time>2019-03-10T14:05:15Z</time>
      </trkpt>
      <trkpt lat="49.12372" lon="1.95869">
        <ele>77.13</ele>
        <time>2019-03-10T14:05:22Z</time>
      </trkpt>
      <trkpt lat="49.12375" lon="1.9587">
        <ele>80.16</ele>
        <time>2019-03-10T14:05:25Z</time>
      </trkpt>
      <trkpt lat="49.1238" lon="1.95867">
        <ele>74.85</ele>
        <time>2019-03-10T14:05:31Z</time>
      </trkpt>
      <trkpt lat="49.12381" lon="1.95867">
        <ele>75.03</ele>
        <time>2019-03-10T14:05:32Z</time>
      </trkpt>
      <trkpt lat="49.12382" lon="1.95867">
        <ele>79.35</ele>
        <time>2019-03-10T14:05:33Z</time>
      </trkpt>
      <trkpt lat="49.12383" lon="1.95867">
        <ele>76.88</ele>
        <time>2019-03-10T14:05:34Z</time>
      </trkpt>
      <trkpt lat="49.12392" lon="1.95867">
        <ele>75.8</ele>
        <time>2019-03-10T14:05:44Z</time>
      </trkpt>
      <trkpt lat="49.12401" lon="1.95867">
        <ele>77.92</ele>
        <time>2019-03-10T14:05:50Z</time>
      </trkpt>
      <trkpt lat="49.12403" lon="1.95866">
        <ele>73.85</ele>
        <time>2019-03-10T14:05:52Z</time>
      </trkpt>
      <trkpt lat="49.12408" lon="1.95867">
        <ele>77.72</ele>
        <time>2019-03-10T14:05:56Z</time>
      </trkpt>
      <trkpt lat="49.12409" lon="1.95868">
        <ele>77.57</ele>
        <time>2019-03-10T14:05:57Z</time>
      </trkpt>
      <trkpt lat="49.12425" lon="1.95873">
        <ele>74.21</ele>
        <time>2019-03-10T14:06:10Z</time>
      </trkpt>
      <trkpt lat="49.12427" lon="1.95873">
        <ele>74.86</ele>
        <time>2019-03-10T14:06:11Z</time>
      </trkpt>
      <trkpt lat="49.1243" lon="1.95875">
        <ele>78.88</ele>
        <time>2019-03-10T14:06:13Z</time>
      </trkpt>
      <trkpt lat="49.12431" lon="1.95876">
        <ele>78.62</ele>
        <time>2019-03-10T14:06:14Z</time>
      </trkpt>
      <trkpt lat="49.12439" lon="1.9588">
        <ele>75.34</ele>
        <time>2019-03-10T14:06:20Z</time>
      </trkpt>
      <trkpt lat="49.12445" lon="1.95885">
        <ele>77.49</ele>
        <time>2019-03-10T14:06:25Z</time>
      </trkpt>
      <trkpt lat="49.1246" lon="1.95902">
        <ele>75.95</ele>
        <time>2019-03-10T14:06:41Z</time>
      </trkpt>
      <trkpt lat="49.12465" lon="1.95907">
        <ele>75.29</ele>
        <time>2019-03-10T14:06:46Z</time>
      </trkpt>
      <trkpt lat="49.12467" lon="1.95909">
        <ele>74.7</ele>
        <time>2019-03-10T14:06:49Z</time>
      </trkpt>
      <trkpt lat="49.12481" lon="1.95928">
        <ele>75.6</ele>
        <time>2019-03-10T14:07:05Z</time>
      </trkpt>
      <trkpt lat="49.12492" lon="1.95942">
        <ele>75.44</ele>
        <time>2019-03-10T14:07:19Z</time>
      </trkpt>
      <trkpt lat="49.12494" lon="1.95944">
        <ele>75.02</ele>
        <time>2019-03-10T14:07:21Z</time>
      </trkpt>
      <trkpt lat="49.12506" lon="1.9596">
        <ele>75.89</ele>
        <time>2019-03-10T14:07:39Z</time>
      </trkpt>
      <trkpt lat="49.12515" lon="1.95979">
        <ele>75.52</ele>
        <time>2019-03-10T14:07:55Z</time>
      </trkpt>
      <trkpt lat="49.12526" lon="1.95996">
        <ele>74.36</ele>
        <time>2019-03-10T14:08:10Z</time>
      </trkpt>
      <trkpt lat="49.12535" lon="1.96013">
        <ele>75.28</ele>
        <time>2019-03-10T14:08:23Z</time>
      </trkpt>
      <trkpt lat="49.12538" lon="1.96016">
        <ele>73.92</ele>
        <time>2019-03-10T14:08:26Z</time>
      </trkpt>
      <trkpt lat="49.12551" lon="1.96032">
        <ele>71.8</ele>
        <time>2019-03-10T14:08:41Z</time>
      </trkpt>
      <trkpt lat="49.12566" lon="1.96044">
        <ele>71.42</ele>
        <time>2019-03-10T14:08:56Z</time>
      </trkpt>
      <trkpt lat="49.12574" lon="1.9605">
        <ele>70.52</ele>
        <time>2019-03-10T14:09:04Z</time>
      </trkpt>
      <trkpt lat="49.1259" lon="1.96062">
        <ele>69.93</ele>
        <time>2019-03-10T14:09:20Z</time>
      </trkpt>
      <trkpt lat="49.12605" lon="1.96082">
        <ele>69.14</ele>
        <time>2019-03-10T14:09:40Z</time>
      </trkpt>
      <trkpt lat="49.12619" lon="1.96097">
        <ele>67.83</ele>
        <time>2019-03-10T14:09:53Z</time>
      </trkpt>
      <trkpt lat="49.12622" lon="1.96098">
        <ele>67.79</ele>
        <time>2019-03-10T14:09:56Z</time>
      </trkpt>
      <trkpt lat="49.12631" lon="1.9608">
        <ele>65.87</ele>
        <time>2019-03-10T14:10:09Z</time>
      </trkpt>
      <trkpt lat="49.12631" lon="1.96073">
        <ele>66.88</ele>
        <time>2019-03-10T14:10:13Z</time>
      </trkpt>
      <trkpt lat="49.12632" lon="1.96067">
        <ele>66.76</ele>
        <time>2019-03-10T14:10:17Z</time>
      </trkpt>
      <trkpt lat="49.12632" lon="1.9606">
        <ele>66.79</ele>
        <time>2019-03-10T14:10:21Z</time>
      </trkpt>
      <trkpt lat="49.12627" lon="1.96034">
        <ele>66.11</ele>
        <time>2019-03-10T14:10:38Z</time>
      </trkpt>
      <trkpt lat="49.12627" lon="1.9602">
        <ele>68.73</ele>
        <time>2019-03-10T14:10:47Z</time>
      </trkpt>
      <trkpt lat="49.12626" lon="1.96015">
        <ele>66.7</ele>
        <time>2019-03-10T14:10:50Z</time>
      </trkpt>
      <trkpt lat="49.12622" lon="1.95999">
        <ele>67.1</ele>
        <time>2019-03-10T14:11:01Z</time>
      </trkpt>
      <trkpt lat="49.12622" lon="1.95996">
        <ele>65.63</ele>
        <time>2019-03-10T14:11:03Z</time>
      </trkpt>
      <trkpt lat="49.1262" lon="1.95989">
        <ele>66.93</ele>
        <time>2019-03-10T14:11:07Z</time>
      </trkpt>
      <trkpt lat="49.1262" lon="1.95984">
        <ele>66.38</ele>
        <time>2019-03-10T14:11:10Z</time>
      </trkpt>
      <trkpt lat="49.12616" lon="1.95961">
        <ele>67.52</ele>
        <time>2019-03-10T14:11:24Z</time>
      </trkpt>
      <trkpt lat="49.12615" lon="1.95939">
        <ele>67.9</ele>
        <time>2019-03-10T14:11:38Z</time>
      </trkpt>
      <trkpt lat="49.12614" lon="1.95929">
        <ele>66.2</ele>
        <time>2019-03-10T14:11:44Z</time>
      </trkpt>
      <trkpt lat="49.12612" lon="1.95918">
        <ele>66.39</ele>
        <time>2019-03-10T14:11:51Z</time>
      </trkpt>
      <trkpt lat="49.12612" lon="1.95914">
        <ele>64.97</ele>
        <time>2019-03-10T14:11:53Z</time>
      </trkpt>
      <trkpt lat="49.12612" lon="1.959">
        <ele>68.55</ele>
        <time>2019-03-10T14:12:01Z</time>
      </trkpt>
      <trkpt lat="49.12612" lon="1.95898">
        <ele>67.84</ele>
        <time>2019-03-10T14:12:02Z</time>
      </trkpt>
      <trkpt lat="49.12612" lon="1.95878">
        <ele>68.41</ele>
        <time>2019-03-10T14:12:15Z</time>
      </trkpt>
      <trkpt lat="49.12607" lon="1.95858">
        <ele>68.43</ele>
        <time>2019-03-10T14:12:32Z</time>
      </trkpt>
      <trkpt lat="49.12606" lon="1.95852">
        <ele>69.29</ele>
        <time>2019-03-10T14:12:40Z</time>
      </trkpt>
      <trkpt lat="49.12606" lon="1.9585">
        <ele>68.86</ele>
        <time>2019-03-10T14:12:58Z</time>
      </trkpt>
      <trkpt lat="49.12607" lon="1.9585">
        <ele>69.45</ele>
        <time>2019-03-10T14:13:26Z</time>
      </trkpt>
      <trkpt lat="49.12609" lon="1.95844">
        <ele>68.64</ele>
        <time>2019-03-10T14:13:53Z</time>
      </trkpt>
      <trkpt lat="49.1261" lon="1.95829">
        <ele>69.81</ele>
        <time>2019-03-10T14:14:12Z</time>
      </trkpt>
      <trkpt lat="49.1261" lon="1.95825">
        <ele>68.46</ele>
        <time>2019-03-10T14:14:15Z</time>
      </trkpt>
      <trkpt lat="49.12611" lon="1.95818">
        <ele>69.65</ele>
        <time>2019-03-10T14:14:20Z</time>
      </trkpt>
      <trkpt lat="49.12612" lon="1.95812">
        <ele>69.48</ele>
        <time>2019-03-10T14:14:24Z</time>
      </trkpt>
      <trkpt lat="49.12614" lon="1.95801">
        <ele>69.69</ele>
        <time>2019-03-10T14:14:32Z</time>
      </trkpt>
      <trkpt lat="49.12618" lon="1.95778">
        <ele>70.29</ele>
        <time>2019-03-10T14:14:49Z</time>
      </trkpt>
      <trkpt lat="49.12622" lon="1.95757">
        <ele>71.22</ele>
        <time>2019-03-10T14:15:02Z</time>
      </trkpt>
      <trkpt lat="49.12624" lon="1.95733">
        <ele>71.57</ele>
        <time>2019-03-10T14:15:17Z</time>
      </trkpt>
      <trkpt lat="49.12624" lon="1.95731">
        <ele>71.48</ele>
        <time>2019-03-10T14:15:18Z</time>
      </trkpt>
      <trkpt lat="49.12623" lon="1.95716">
        <ele>70.78</ele>
        <time>2019-03-10T14:15:27Z</time>
      </trkpt>
      <trkpt lat="49.12621" lon="1.95701">
        <ele>71.94</ele>
        <time>2019-03-10T14:15:36Z</time>
      </trkpt>
      <trkpt lat="49.12619" lon="1.95678">
        <ele>71.09</ele>
        <time>2019-03-10T14:15:50Z</time>
      </trkpt>
      <trkpt lat="49.12616" lon="1.95653">
        <ele>71.38</ele>
        <time>2019-03-10T14:16:05Z</time>
      </trkpt>
      <trkpt lat="49.12616" lon="1.95652">
        <ele>71.13</ele>
        <time>2019-03-10T14:16:06Z</time>
      </trkpt>
      <trkpt lat="49.12612" lon="1.95624">
        <ele>71.09</ele>
        <time>2019-03-10T14:16:24Z</time>
      </trkpt>
      <trkpt lat="49.12608" lon="1.95603">
        <ele>71.78</ele>
        <time>2019-03-10T14:16:39Z</time>
      </trkpt>
      <trkpt lat="49.12603" lon="1.9558">
        <ele>72.36</ele>
        <time>2019-03-10T14:16:58Z</time>
      </trkpt>
      <trkpt lat="49.12603" lon="1.95576">
        <ele>69.05</ele>
        <time>2019-03-10T14:17:01Z</time>
      </trkpt>
      <trkpt lat="49.12603" lon="1.95575">
        <ele>70.51</ele>
        <time>2019-03-10T14:17:02Z</time>
      </trkpt>
      <trkpt lat="49.12602" lon="1.9557">
        <ele>71.72</ele>
        <time>2019-03-10T14:17:06Z</time>
      </trkpt>
      <trkpt lat="49.12602" lon="1.95563">
        <ele>70.13</ele>
        <time>2019-03-10T14:17:10Z</time>
      </trkpt>
      <trkpt lat="49.126" lon="1.95557">
        <ele>69.75</ele>
        <time>2019-03-10T14:17:15Z</time>
      </trkpt>
      <trkpt lat="49.12601" lon="1.95537">
        <ele>70.96</ele>
        <time>2019-03-10T14:17:27Z</time>
      </trkpt>
      <trkpt lat="49.126" lon="1.9552">
        <ele>69.07</ele>
        <time>2019-03-10T14:17:40Z</time>
      </trkpt>
      <trkpt lat="49.126" lon="1.9552">
        <ele>71.68</ele>
        <time>2019-03-10T14:17:42Z</time>
      </trkpt>
      <trkpt lat="49.12601" lon="1.95514">
        <ele>73.37</ele>
        <time>2019-03-10T14:17:53Z</time>
      </trkpt>
      <trkpt lat="49.12602" lon="1.9551">
        <ele>72.8</ele>
        <time>2019-03-10T14:18:19Z</time>
      </trkpt>
      <trkpt lat="49.12602" lon="1.9551">
        <ele>72.26</ele>
        <time>2019-03-10T14:18:24Z</time>
      </trkpt>
      <trkpt lat="49.12603" lon="1.95508">
        <ele>72.29</ele>
        <time>2019-03-10T14:18:31Z</time>
      </trkpt>
      <trkpt lat="49.12601" lon="1.95498">
        <ele>72.77</ele>
        <time>2019-03-10T14:18:44Z</time>
      </trkpt>
      <trkpt lat="49.12599" lon="1.95495">
        <ele>71.31</ele>
        <time>2019-03-10T14:18:47Z</time>
      </trkpt>
      <trkpt lat="49.12591" lon="1.9548">
        <ele>70.12</ele>
        <time>2019-03-10T14:18:57Z</time>
      </trkpt>
      <trkpt lat="49.12586" lon="1.95454">
        <ele>71.17</ele>
        <time>2019-03-10T14:19:12Z</time>
      </trkpt>
      <trkpt lat="49.12583" lon="1.95432">
        <ele>70.22</ele>
        <time>2019-03-10T14:19:26Z</time>
      </trkpt>
      <trkpt lat="49.12579" lon="1.95415">
        <ele>67.1</ele>
        <time>2019-03-10T14:19:38Z</time>
      </trkpt>
      <trkpt lat="49.12578" lon="1.95408">
        <ele>68.64</ele>
        <time>2019-03-10T14:19:42Z</time>
      </trkpt>
      <trkpt lat="49.12578" lon="1.95403">
        <ele>67.04</ele>
        <time>2019-03-10T14:19:45Z</time>
      </trkpt>
      <trkpt lat="49.12577" lon="1.95399">
        <ele>66.35</ele>
        <time>2019-03-10T14:19:47Z</time>
      </trkpt>
      <trkpt lat="49.12576" lon="1.95389">
        <ele>68.91</ele>
        <time>2019-03-10T14:19:54Z</time>
      </trkpt>
      <trkpt lat="49.12575" lon="1.95385">
        <ele>65.27</ele>
        <time>2019-03-10T14:19:57Z</time>
      </trkpt>
      <trkpt lat="49.12575" lon="1.95377">
        <ele>66.34</ele>
        <time>2019-03-10T14:20:02Z</time>
      </trkpt>
      <trkpt lat="49.12575" lon="1.95375">
        <ele>62.57</ele>
        <time>2019-03-10T14:20:04Z</time>
      </trkpt>
      <trkpt lat="49.12574" lon="1.95372">
        <ele>67.16</ele>
        <time>2019-03-10T14:20:06Z</time>
      </trkpt>
      <trkpt lat="49.12573" lon="1.95371">
        <ele>67.19</ele>
        <time>2019-03-10T14:20:07Z</time>
      </trkpt>
      <trkpt lat="49.12572" lon="1.95367">
        <ele>69.14</ele>
        <time>2019-03-10T14:20:09Z</time>
      </trkpt>
      <trkpt lat="49.12571" lon="1.95365">
        <ele>64.78</ele>
        <time>2019-03-10T14:20:11Z</time>
      </trkpt>
      <trkpt lat="49.1257" lon="1.95362">
        <ele>62.97</ele>
        <time>2019-03-10T14:20:13Z</time>
      </trkpt>
      <trkpt lat="49.12567" lon="1.95356">
        <ele>60.83</ele>
        <time>2019-03-10T14:20:18Z</time>
      </trkpt>
      <trkpt lat="49.12566" lon="1.95349">
        <ele>61.47</ele>
        <time>2019-03-10T14:20:22Z</time>
      </trkpt>
      <trkpt lat="49.12566" lon="1.95344">
        <ele>62.51</ele>
        <time>2019-03-10T14:20:24Z</time>
      </trkpt>
      <trkpt lat="49.12564" lon="1.95327">
        <ele>60.11</ele>
        <time>2019-03-10T14:20:33Z</time>
      </trkpt>
      <trkpt lat="49.12567" lon="1.95313">
        <ele>57.24</ele>
        <time>2019-03-10T14:20:42Z</time>
      </trkpt>
      <trkpt lat="49.1257" lon="1.95304">
        <ele>54.35</ele>
        <time>2019-03-10T14:20:47Z</time>
      </trkpt>
      <trkpt lat="49.1257" lon="1.95303">
        <ele>55.67</ele>
        <time>2019-03-10T14:20:48Z</time>
      </trkpt>
      <trkpt lat="49.12572" lon="1.95293">
        <ele>58.8</ele>
        <time>2019-03-10T14:20:53Z</time>
      </trkpt>
      <trkpt lat="49.12574" lon="1.95284">
        <ele>56.87</ele>
        <time>2019-03-10T14:20:58Z</time>
      </trkpt>
      <trkpt lat="49.12578" lon="1.95274">
        <ele>54.88</ele>
        <time>2019-03-10T14:21:03Z</time>
      </trkpt>
      <trkpt lat="49.12584" lon="1.95254">
        <ele>53</ele>
        <time>2019-03-10T14:21:14Z</time>
      </trkpt>
      <trkpt lat="49.12584" lon="1.95216">
        <ele>49.49</ele>
        <time>2019-03-10T14:21:34Z</time>
      </trkpt>
      <trkpt lat="49.12584" lon="1.95214">
        <ele>49.23</ele>
        <time>2019-03-10T14:21:35Z</time>
      </trkpt>
      <trkpt lat="49.12581" lon="1.95201">
        <ele>48.8</ele>
        <time>2019-03-10T14:21:43Z</time>
      </trkpt>
      <trkpt lat="49.12581" lon="1.95189">
        <ele>44.69</ele>
        <time>2019-03-10T14:21:49Z</time>
      </trkpt>
      <trkpt lat="49.12581" lon="1.95187">
        <ele>44.71</ele>
        <time>2019-03-10T14:21:50Z</time>
      </trkpt>
      <trkpt lat="49.12582" lon="1.95182">
        <ele>47.24</ele>
        <time>2019-03-10T14:21:53Z</time>
      </trkpt>
      <trkpt lat="49.1258" lon="1.95177">
        <ele>45.34</ele>
        <time>2019-03-10T14:21:59Z</time>
      </trkpt>
      <trkpt lat="49.12579" lon="1.95178">
        <ele>45.18</ele>
        <time>2019-03-10T14:22:00Z</time>
      </trkpt>
      <trkpt lat="49.12575" lon="1.95181">
        <ele>45.94</ele>
        <time>2019-03-10T14:22:07Z</time>
      </trkpt>
      <trkpt lat="49.12563" lon="1.95174">
        <ele>41.81</ele>
        <time>2019-03-10T14:22:19Z</time>
      </trkpt>
      <trkpt lat="49.12562" lon="1.95171">
        <ele>42.97</ele>
        <time>2019-03-10T14:22:27Z</time>
      </trkpt>
      <trkpt lat="49.12561" lon="1.95169">
        <ele>42.29</ele>
        <time>2019-03-10T14:22:29Z</time>
      </trkpt>
      <trkpt lat="49.12559" lon="1.95167">
        <ele>40.28</ele>
        <time>2019-03-10T14:22:32Z</time>
      </trkpt>
      <trkpt lat="49.12557" lon="1.95163">
        <ele>38.23</ele>
        <time>2019-03-10T14:22:35Z</time>
      </trkpt>
      <trkpt lat="49.12556" lon="1.95163">
        <ele>42.74</ele>
        <time>2019-03-10T14:22:36Z</time>
      </trkpt>
      <trkpt lat="49.12555" lon="1.95162">
        <ele>40.61</ele>
        <time>2019-03-10T14:22:37Z</time>
      </trkpt>
      <trkpt lat="49.12553" lon="1.95159">
        <ele>39.47</ele>
        <time>2019-03-10T14:22:40Z</time>
      </trkpt>
      <trkpt lat="49.12552" lon="1.95151">
        <ele>38.29</ele>
        <time>2019-03-10T14:22:45Z</time>
      </trkpt>
      <trkpt lat="49.12553" lon="1.95133">
        <ele>37.09</ele>
        <time>2019-03-10T14:22:57Z</time>
      </trkpt>
      <trkpt lat="49.12553" lon="1.95125">
        <ele>38.55</ele>
        <time>2019-03-10T14:23:03Z</time>
      </trkpt>
      <trkpt lat="49.12553" lon="1.9512">
        <ele>35.58</ele>
        <time>2019-03-10T14:23:08Z</time>
      </trkpt>
      <trkpt lat="49.12553" lon="1.95104">
        <ele>36.11</ele>
        <time>2019-03-10T14:23:17Z</time>
      </trkpt>
      <trkpt lat="49.12555" lon="1.95092">
        <ele>36.5</ele>
        <time>2019-03-10T14:23:25Z</time>
      </trkpt>
      <trkpt lat="49.12554" lon="1.95088">
        <ele>33.96</ele>
        <time>2019-03-10T14:23:27Z</time>
      </trkpt>
      <trkpt lat="49.12555" lon="1.9508">
        <ele>33.82</ele>
        <time>2019-03-10T14:23:32Z</time>
      </trkpt>
      <trkpt lat="49.12555" lon="1.95074">
        <ele>31.26</ele>
        <time>2019-03-10T14:23:36Z</time>
      </trkpt>
      <trkpt lat="49.12555" lon="1.95069">
        <ele>32.97</ele>
        <time>2019-03-10T14:23:39Z</time>
      </trkpt>
      <trkpt lat="49.12555" lon="1.9505">
        <ele>32.79</ele>
        <time>2019-03-10T14:23:53Z</time>
      </trkpt>
      <trkpt lat="49.12554" lon="1.95044">
        <ele>32.32</ele>
        <time>2019-03-10T14:23:58Z</time>
      </trkpt>
      <trkpt lat="49.12553" lon="1.95036">
        <ele>34.44</ele>
        <time>2019-03-10T14:24:03Z</time>
      </trkpt>
      <trkpt lat="49.12552" lon="1.95029">
        <ele>33.57</ele>
        <time>2019-03-10T14:24:06Z</time>
      </trkpt>
      <trkpt lat="49.12551" lon="1.9502">
        <ele>31.86</ele>
        <time>2019-03-10T14:24:16Z</time>
      </trkpt>
      <trkpt lat="49.12551" lon="1.95018">
        <ele>34.54</ele>
        <time>2019-03-10T14:24:30Z</time>
      </trkpt>
      <trkpt lat="49.12542" lon="1.9502">
        <ele>30.87</ele>
        <time>2019-03-10T14:24:40Z</time>
      </trkpt>
      <trkpt lat="49.12541" lon="1.95019">
        <ele>31.16</ele>
        <time>2019-03-10T14:24:41Z</time>
      </trkpt>
      <trkpt lat="49.12525" lon="1.95005">
        <ele>31.91</ele>
        <time>2019-03-10T14:24:58Z</time>
      </trkpt>
      <trkpt lat="49.12517" lon="1.94998">
        <ele>32.34</ele>
        <time>2019-03-10T14:25:06Z</time>
      </trkpt>
      <trkpt lat="49.12513" lon="1.94993">
        <ele>32.34</ele>
        <time>2019-03-10T14:25:11Z</time>
      </trkpt>
      <trkpt lat="49.12497" lon="1.9498">
        <ele>32.11</ele>
        <time>2019-03-10T14:25:28Z</time>
      </trkpt>
      <trkpt lat="49.12488" lon="1.94972">
        <ele>30.53</ele>
        <time>2019-03-10T14:25:38Z</time>
      </trkpt>
      <trkpt lat="49.12486" lon="1.9497">
        <ele>31.81</ele>
        <time>2019-03-10T14:25:40Z</time>
      </trkpt>
      <trkpt lat="49.12481" lon="1.94968">
        <ele>32.78</ele>
        <time>2019-03-10T14:25:45Z</time>
      </trkpt>
      <trkpt lat="49.12479" lon="1.94966">
        <ele>34.21</ele>
        <time>2019-03-10T14:25:48Z</time>
      </trkpt>
      <trkpt lat="49.12475" lon="1.94959">
        <ele>30.71</ele>
        <time>2019-03-10T14:25:53Z</time>
      </trkpt>
      <trkpt lat="49.12474" lon="1.94958">
        <ele>30.71</ele>
        <time>2019-03-10T14:25:54Z</time>
      </trkpt>
      <trkpt lat="49.12473" lon="1.94956">
        <ele>31.33</ele>
        <time>2019-03-10T14:25:55Z</time>
      </trkpt>
      <trkpt lat="49.12456" lon="1.94937">
        <ele>30.73</ele>
        <time>2019-03-10T14:26:13Z</time>
      </trkpt>
      <trkpt lat="49.12451" lon="1.94932">
        <ele>31.22</ele>
        <time>2019-03-10T14:26:20Z</time>
      </trkpt>
      <trkpt lat="49.12448" lon="1.94929">
        <ele>33.27</ele>
        <time>2019-03-10T14:26:26Z</time>
      </trkpt>
      <trkpt lat="49.12449" lon="1.94921">
        <ele>33.83</ele>
        <time>2019-03-10T14:26:49Z</time>
      </trkpt>
      <trkpt lat="49.12447" lon="1.94919">
        <ele>33.18</ele>
        <time>2019-03-10T14:27:03Z</time>
      </trkpt>
    </trkseg>
  </trk>
</gpx>